Date StartTime U_cm/s V_cm/s W_cm/s Ustd_cm/s Vstd_cm/s Wstd_cm/s Uvar_(cm/s)^2 Vvar_(cm/s)^2 Wvar_(cm/s)^2 KE_(m/s)^2 TurbulentKE_(m/s)^2 HorizWindSpeed_cm/s FrictionSpeec_cm/s DragCoef SpeedOfSound_m/s SonicTemperature_C Pressure_mb 
08/21/2013  00:00:00       33.717       16.911      -11.639       42.408       22.646       16.258     1798.405      512.827      264.309        0.207        0.129       37.721       11.924        0.100      344.722       21.742      863.290
08/21/2013  00:01:00        6.131       34.483       -0.185       12.585       14.857       17.158      158.380      220.735      294.387        0.095        0.034       35.023       11.327        0.105      345.080       22.358      863.279
08/21/2013  00:02:00       -3.224        8.963        5.145        8.819       14.207       18.970       77.769      201.840      359.865        0.038        0.032        9.525       14.861        2.434      344.672       21.657      863.266
08/21/2013  00:03:00      -15.081        5.611        8.966       13.293       10.604        8.214      176.691      112.452       67.465        0.035        0.018       16.090        5.811        0.130      345.010       22.237      863.244
08/21/2013  00:04:00       -5.894        2.580       10.078       17.380        9.287       10.595      302.060       86.246      112.248        0.032        0.025        6.434        5.715        0.789      344.803       21.880      863.245
08/21/2013  00:05:00      -40.222       14.628        3.224       19.948        8.336        6.299      397.917       69.496       39.675        0.117        0.025       42.799        5.694        0.018      345.002       22.223      863.240
08/21/2013  00:06:00      -75.864       20.637       -5.059       10.191        8.204        6.800      103.865       67.306       46.236        0.321        0.011       78.621        4.139        0.003      345.147       22.468      863.227
08/21/2013  00:07:00      -51.189       10.557       -5.422       25.902       12.336        9.592      670.905      152.166       92.014        0.184        0.046       52.267        8.664        0.027      345.032       22.274      863.229
08/21/2013  00:08:00      -38.142       20.280       -5.155       29.239       19.610       10.872      854.915      384.570      118.201        0.162        0.068       43.199       10.849        0.063      344.971       22.168      863.242
08/21/2013  00:09:00      -21.798        7.398       -1.200       13.420       25.590       10.231      180.103      654.831      104.683        0.074        0.047       23.020       12.668        0.303      345.035       22.279      863.256
08/21/2013  00:10:00      -65.251       -1.722       -1.219       35.950       26.584       17.878     1292.435      706.721      319.617        0.329        0.116       65.274       18.268        0.078      345.077       22.351      863.273
08/21/2013  00:11:00      -56.985       -5.348        0.780       34.510       33.358       15.549     1190.928     1112.737      241.762        0.291        0.127       57.236       13.731        0.058      344.986       22.195      863.272
08/21/2013  00:12:00      -57.381      -44.410       -4.145       29.933       29.513       17.351      895.956      871.010      301.047        0.367        0.103       72.559        8.598        0.014      344.886       22.024      863.272
08/21/2013  00:13:00      -84.904       -8.750        2.071       37.516       37.377       19.830     1407.440     1397.041      393.232        0.524        0.160       85.353       14.888        0.030      344.915       22.074      863.263
08/21/2013  00:14:00      -70.825        0.654       -1.459       47.620       31.793       20.924     2267.641     1010.776      437.808        0.437        0.186       70.828       22.760        0.103      344.896       22.042      863.252
08/21/2013  00:15:00      -52.548        5.804        0.797       35.236       22.817       14.989     1241.610      520.625      224.662        0.239        0.099       52.867       16.067        0.092      344.857       21.975      863.244
08/21/2013  00:16:00      -63.143       10.690       -3.020       37.137       30.614       22.434     1379.133      937.196      503.292        0.346        0.141       64.042       15.510        0.059      344.866       21.989      863.243
08/21/2013  00:17:00      -98.856       -3.350       -9.768       45.854       36.577       20.660     2102.610     1337.849      426.852        0.687        0.193       98.913       17.263        0.030      344.881       22.016      863.241
08/21/2013  00:18:00      -84.888      -30.538        0.596       28.360       27.945       17.034      804.280      780.904      290.171        0.501        0.094       90.214       15.423        0.029      344.878       22.010      863.252
08/21/2013  00:19:00      -66.219      -11.358        4.052       32.205       29.739       18.080     1037.171      884.390      326.898        0.339        0.112       67.186       20.390        0.092      344.834       21.933      863.287
08/21/2013  00:20:00      -29.110      -25.955       -0.665       36.037       25.567       20.439     1298.697      653.649      417.757        0.195        0.119       39.001       13.272        0.116      344.831       21.931      863.315
08/21/2013  00:21:00      -82.532      -45.534       -0.731       42.120       23.910       19.014     1774.092      571.693      361.518        0.580        0.135       94.260       21.332        0.051      344.874       22.003      863.332
08/21/2013  00:22:00      -51.869      -20.992        2.522       22.722       18.622       10.888      516.306      346.795      118.554        0.206        0.049       55.956        9.643        0.030      344.901       22.049      863.347
08/21/2013  00:23:00        9.069        7.226       19.448       21.982       15.872       12.829      483.221      251.926      164.579        0.071        0.045       11.596        6.234        0.289      344.581       21.502      863.362
08/21/2013  00:24:00       16.759       29.098       10.724       15.410       21.751       13.529      237.464      473.096      183.041        0.107        0.045       33.580       14.379        0.183      344.621       21.569      863.354
08/21/2013  00:25:00       22.895       31.257        9.949       12.180       14.407       10.797      148.353      207.568      116.581        0.104        0.024       38.745        8.846        0.052      344.722       21.741      863.341
08/21/2013  00:26:00       12.720        7.869       -2.009       15.238       17.599        6.186      232.181      309.726       38.266        0.040        0.029       14.958        6.369        0.181      344.837       21.939      863.328
08/21/2013  00:27:00       30.494      -42.184      -15.316       17.853       26.157       15.836      318.723      684.192      250.781        0.210        0.063       52.052       11.905        0.052      344.912       22.068      863.313
08/21/2013  00:28:00       14.429        4.488       19.977       24.806       36.693       17.189      615.349     1346.380      295.459        0.144        0.113       15.111       14.399        0.908      344.912       22.068      863.316
08/21/2013  00:29:00       15.234       49.603        2.175       18.189       15.466       10.867      330.832      239.183      118.089        0.169        0.034       51.890        7.130        0.019      344.879       22.011      863.314
08/21/2013  00:30:00        5.177       54.233        0.873       16.756       21.207       13.415      280.755      449.725      179.959        0.194        0.046       54.480       10.800        0.039      345.051       22.306      863.309
08/21/2013  00:31:00       19.363       38.522       -0.281       15.669       19.705        9.480      245.532      388.290       89.872        0.129        0.036       43.115        8.751        0.041      345.026       22.261      863.318
08/21/2013  00:32:00       31.470       15.185        2.338       23.798       12.834       11.942      566.346      164.705      142.617        0.105        0.044       34.942       12.223        0.122      344.919       22.078      863.323
08/21/2013  00:33:00      -13.561       64.568      -15.478       39.613       17.093       11.693     1569.206      292.163      136.730        0.329        0.100       65.977       18.319        0.077      344.880       22.012      863.302
08/21/2013  00:34:00      -14.506       23.164       -0.575       28.205       27.944       16.139      795.525      780.873      260.477        0.129        0.092       27.331       17.528        0.411      344.861       21.981      863.289
08/21/2013  00:35:00        1.897        0.759        4.985        7.334        6.668       12.393       53.790       44.458      153.584        0.014        0.013        2.043        6.057        8.789      344.858       21.973      863.293
08/21/2013  00:36:00      -16.824        6.621        1.195       18.549       23.575       13.049      344.079      555.765      170.285        0.070        0.054       18.079        6.987        0.149      344.874       22.002      863.294
08/21/2013  00:37:00      -15.340       52.520        3.645       26.960       35.314       22.204      726.848     1247.093      493.014        0.274        0.123       54.715       12.878        0.055      345.058       22.319      863.286
08/21/2013  00:38:00      -15.438       -2.119       10.058       27.642       22.910       19.665      764.068      524.845      386.727        0.101        0.084       15.583       10.667        0.469      345.062       22.324      863.300
08/21/2013  00:39:00      -76.246       29.992        1.100       26.679       29.441       21.621      711.771      866.761      467.477        0.438        0.102       81.932       18.355        0.050      345.419       22.936      863.308
08/21/2013  00:40:00      -11.724      -29.529       -2.818       21.971       35.109       18.397      482.724     1232.652      338.456        0.154        0.103       31.772       10.593        0.111      345.314       22.755      863.337
08/21/2013  00:41:00       -5.907      -58.160       -3.016       17.268       46.120       23.446      298.172     2127.027      549.730        0.320        0.149       58.460       27.277        0.218      345.313       22.754      863.353
08/21/2013  00:42:00       26.224      -63.596       19.691       60.712       58.235       35.507     3685.921     3391.354     1260.718        0.673        0.417       68.791       34.369        0.250      345.329       22.782      863.363
08/21/2013  00:43:00       69.715       41.784       46.239       52.497       61.691       34.313     2755.945     3805.837     1177.381        0.824        0.387       81.278       29.705        0.134      345.257       22.658      863.380
08/21/2013  00:44:00      140.007       94.281       53.615       88.896       74.257       56.840     7902.490     5514.123     3230.748        2.400        0.832      168.793       42.196        0.062      345.289       22.711      863.387
08/21/2013  00:45:00      127.696      119.508      108.901      143.020       95.610      100.019    20454.675     9141.263    10003.872        4.102        1.980      174.896       92.537        0.280      345.500       23.071      863.373
08/21/2013  00:46:00       44.493       53.507       84.593       71.562       58.838       56.983     5121.120     3461.936     3247.022        1.191        0.592       69.589       44.145        0.402      345.355       22.825      863.393
08/21/2013  00:47:00      150.834       50.194       40.191      130.850       71.421       53.224    17121.765     5100.986     2832.821        2.597        1.253      158.966       36.845        0.054      345.505       23.080      863.382
08/21/2013  00:48:00       37.928       -5.971       24.095       43.731       60.367       36.381     1912.425     3644.156     1323.579        0.447        0.344       38.395       27.975        0.531      345.464       23.013      863.393
08/21/2013  00:49:00      128.479     -124.437       11.575       94.335       98.367       61.113     8899.143     9676.145     3734.768        2.721        1.116      178.861       51.622        0.083      345.595       23.236      863.376
08/21/2013  00:50:00      146.441     -147.151       -0.404      102.885      116.508       67.944    10585.305    13574.177     4616.324        3.593        1.439      207.602       75.127        0.131      345.711       23.433      863.356
08/21/2013  00:51:00      108.802      -75.539       20.037      116.417       94.159       63.477    13553.018     8866.006     4029.327        2.219        1.322      132.454       61.743        0.217      345.701       23.419      863.375
08/21/2013  00:52:00       81.556      -30.247       32.160       82.682       93.178       56.192     6836.259     8682.112     3157.497        1.364        0.934       86.985       64.657        0.553      345.659       23.346      863.385
08/21/2013  00:53:00       23.702       -1.072       25.677       34.722       53.661       25.375     1205.585     2879.458      643.881        0.297        0.236       23.726       13.622        0.330      345.504       23.081      863.393
08/21/2013  00:54:00       53.283       34.327       20.501       57.548       46.969       33.839     3311.791     2206.104     1145.073        0.555        0.333       63.383       15.071        0.057      345.463       23.011      863.412
08/21/2013  00:55:00       52.656        6.068       43.600       40.770       53.101       43.843     1662.166     2819.723     1922.206        0.556        0.320       53.005       39.105        0.544      345.434       22.962      863.434
08/21/2013  00:56:00       61.063      -15.290       12.938       47.845       79.984       38.152     2289.102     6397.431     1455.594        0.713        0.507       62.949       44.777        0.506      345.447       22.984      863.448
08/21/2013  00:57:00       47.336       27.365       39.877       58.364       38.682       37.513     3406.336     1496.285     1407.240        0.544        0.315       54.676       29.593        0.293      345.439       22.969      863.470
08/21/2013  00:58:00      118.466      -23.385       53.165      113.179       75.728       56.766    12809.428     5734.688     3222.404        1.958        1.088      120.752       57.682        0.228      345.587       23.223      863.479
08/21/2013  00:59:00      131.252       -1.120       82.553      116.321      147.367      106.478    13530.535    21717.031    11337.612        3.531        2.329      131.257      123.231        0.881      345.778       23.550      863.473
08/21/2013  01:00:00       58.938       25.539       68.199       79.321       72.593       48.326     6291.855     5269.777     2335.378        1.133        0.695       64.234       52.240        0.661      345.493       23.061      863.478
08/21/2013  01:01:00       45.704        7.587       58.581       48.009       73.649       33.480     2304.844     5424.111     1120.881        0.721        0.442       46.330       30.282        0.427      345.407       22.915      863.480
08/21/2013  01:02:00       64.205       42.333       38.222       42.760       28.615       33.171     1828.417      818.808     1100.287        0.556        0.187       76.905       21.590        0.079      345.511       23.094      863.479
08/21/2013  01:03:00       42.235       51.742       39.891       41.024       33.870       35.493     1682.979     1147.178     1259.754        0.507        0.204       66.791       25.568        0.147      345.368       22.848      863.474
08/21/2013  01:04:00       28.387       26.978       20.962       23.057       23.635       18.590      531.624      558.627      345.592        0.170        0.072       39.162       13.841        0.125      345.319       22.764      863.461
08/21/2013  01:05:00       58.310       29.180       14.679       23.239       29.678       17.646      540.052      880.808      311.364        0.310        0.087       65.204        8.566        0.017      345.356       22.826      863.440
08/21/2013  01:06:00       73.829       11.522       11.275       35.195       36.944       22.458     1238.708     1364.824      504.367        0.441        0.155       74.723       23.706        0.101      345.328       22.780      863.435
08/21/2013  01:07:00      141.771       52.150       25.112       52.083       52.236       34.299     2712.653     2728.610     1176.405        1.503        0.331      151.059       26.037        0.030      345.600       23.245      863.418
08/21/2013  01:08:00       47.761      -12.224       35.507       43.609       61.231       45.466     1901.761     3749.188     2067.153        0.570        0.386       49.300       49.208        0.996      345.556       23.171      863.430
08/21/2013  01:09:00       18.922       82.027      115.609       64.364       82.930       56.467     4142.753     6877.457     3188.503        1.733        0.710       84.181       50.630        0.362      345.582       23.214      863.429
08/21/2013  01:10:00       70.297      -12.017       43.674       97.107       73.711       50.693     9429.738     5433.279     2569.809        1.221        0.872       71.316       61.109        0.734      345.579       23.209      863.439
08/21/2013  01:11:00       91.771       36.196       44.161       50.651       35.969       36.915     2565.559     1293.756     1362.734        0.845        0.261       98.652       33.669        0.116      345.574       23.201      863.428
08/21/2013  01:12:00       88.432       27.319       15.709       43.549       28.530       26.812     1896.537      813.951      718.896        0.612        0.171       92.556       17.897        0.037      345.504       23.081      863.428
08/21/2013  01:13:00      155.011       71.541       33.232       52.164       39.748       44.313     2721.101     1579.910     1963.605        1.826        0.313      170.723       30.688        0.032      345.451       22.991      863.432
08/21/2013  01:14:00       68.816        9.159       39.980       61.885       53.339       41.077     3829.721     2845.067     1687.296        0.739        0.418       69.423       34.675        0.249      345.575       23.203      863.443
08/21/2013  01:15:00      117.075       95.517       84.666       86.493       63.125       42.686     7480.987     3984.724     1822.096        2.164        0.664      151.097       26.288        0.030      345.555       23.167      863.445
08/21/2013  01:16:00      158.574       80.350       57.855       71.194       68.531       57.201     5068.595     4696.454     3271.949        2.399        0.652      177.769       38.723        0.047      345.620       23.277      863.460
08/21/2013  01:17:00      160.585       79.754       61.874      116.055       81.379       59.447    13468.797     6622.562     3533.995        2.980        1.181      179.299       57.003        0.101      345.706       23.425      863.459
08/21/2013  01:18:00       75.150       65.191       92.633       83.166       66.933       42.096     6916.666     4480.026     1772.057        1.582        0.658       99.486       43.266        0.189      345.624       23.286      863.477
08/21/2013  01:19:00       90.895       94.041      108.132      110.334       87.494       74.657    12173.536     7655.193     5573.624        2.710        1.270      130.788       69.920        0.286      345.685       23.389      863.465
08/21/2013  01:20:00      153.070       61.692       83.905      112.562       97.492       72.406    12670.243     9504.660     5242.674        3.084        1.371      165.035       69.736        0.179      345.761       23.520      863.461
08/21/2013  01:21:00       91.524       12.811       71.681       79.506      107.020       59.270     6321.189    11453.341     3512.976        1.748        1.064       92.416       65.937        0.509      345.798       23.585      863.457
08/21/2013  01:22:00      112.579       75.732       96.669       75.685       79.677       61.804     5728.271     6348.405     3819.683        2.182        0.795      135.681       61.857        0.208      345.821       23.624      863.474
08/21/2013  01:23:00       97.694      104.905      114.027      103.277       65.894       51.368    10666.099     4342.050     2638.681        2.560        0.882      143.349       61.699        0.185      345.709       23.430      863.484
08/21/2013  01:24:00       78.005       63.770       83.092       69.564       87.727       45.927     4839.095     7696.032     2109.333        1.585        0.732      100.754       52.506        0.272      345.686       23.392      863.502
08/21/2013  01:25:00       40.499       41.499       61.328       44.514       68.630       44.165     1981.519     4710.026     1950.543        0.788        0.432       57.986       46.635        0.647      345.501       23.075      863.511
08/21/2013  01:26:00       71.534       60.931       61.740       69.326       53.857       46.730     4806.108     2900.560     2183.719        1.126        0.495       93.967       33.195        0.125      345.623       23.283      863.502
08/21/2013  01:27:00       52.541      -21.239       21.487       67.981       78.088       35.582     4621.350     6097.771     1266.054        0.783        0.599       56.671       42.643        0.566      345.507       23.087      863.507
08/21/2013  01:28:00      113.144      -61.244       11.548       59.644       59.588       26.540     3557.454     3550.760      704.391        1.225        0.391      128.657       33.813        0.069      345.778       23.552      863.492
08/21/2013  01:29:00       53.344       25.954       23.637       35.772       23.003       27.588     1279.623      529.146      761.116        0.332        0.128       59.323       19.559        0.109      345.395       22.895      863.482
08/21/2013  01:30:00       67.824       47.192       45.544       39.404       34.427       36.209     1552.677     1185.201     1311.099        0.647        0.202       82.626       28.179        0.116      345.348       22.813      863.476
08/21/2013  01:31:00       27.944       25.393       42.884       46.161       33.741       26.447     2130.821     1138.446      699.438        0.362        0.198       37.758       13.108        0.121      345.406       22.913      863.475
08/21/2013  01:32:00       50.386      -44.024        6.536       71.682       71.857       31.261     5138.305     5163.442      977.230        0.790        0.564       66.909       33.183        0.246      345.386       22.879      863.480
08/21/2013  01:33:00       56.057      -58.204       16.439       41.142       76.954       33.996     1692.689     5921.861     1155.761        0.778        0.439       80.810       34.279        0.180      345.597       23.242      863.476
08/21/2013  01:34:00       50.050      -39.071       -1.193       42.650       44.268       33.117     1819.050     1959.691     1096.745        0.445        0.244       63.494       26.073        0.169      344.936       22.109      863.476
08/21/2013  01:35:00       52.323     -103.012        4.813       39.440       47.261       27.112     1555.532     2233.581      735.043        0.895        0.226      115.539       27.859        0.058      345.601       23.250      863.471
08/21/2013  01:36:00       43.184      -53.979       15.704       42.868       39.143       32.002     1837.695     1532.158     1024.155        0.471        0.220       69.128       26.228        0.144      345.222       22.599      863.450
08/21/2013  01:37:00       48.977      -99.760       -1.258       61.259       47.336       25.592     3752.706     2240.670      654.968        0.950        0.332      111.134       28.497        0.066      345.790       23.570      863.430
08/21/2013  01:38:00      -50.225      -18.260        0.640       26.337       20.030       11.005      693.648      401.215      121.103        0.204        0.061       53.441        6.967        0.017      345.439       22.970      863.430
08/21/2013  01:39:00      -82.042      -58.332       -3.126       27.068       31.685       19.792      732.695     1003.953      391.710        0.614        0.106      100.665       10.685        0.011      345.674       23.372      863.423
08/21/2013  01:40:00      -13.380      -24.506       13.980       47.093       34.405       21.103     2217.719     1183.674      445.354        0.241        0.192       27.921       17.562        0.396      345.469       23.021      863.437
08/21/2013  01:41:00        0.731       26.524       34.227       35.421       37.530       29.284     1254.676     1408.521      857.578        0.270        0.176       26.534       23.131        0.760      344.789       21.858      863.434
08/21/2013  01:42:00       35.534      -27.760        6.882       44.812       53.922       35.189     2008.071     2907.563     1238.273        0.412        0.308       45.092       38.171        0.717      345.225       22.604      863.432
08/21/2013  01:43:00        9.325        1.783       23.031       29.666       26.894       19.663      880.079      723.269      386.618        0.130        0.099        9.494       19.014        4.011      344.775       21.831      863.431
08/21/2013  01:44:00       39.594      -42.572       22.729       36.305       46.677       28.771     1318.026     2178.715      827.780        0.411        0.216       58.138       29.016        0.249      345.216       22.588      863.423
08/21/2013  01:45:00       47.077      -45.154       11.633       48.710       57.815       26.587     2372.697     3342.594      706.846        0.541        0.321       65.232       30.052        0.212      345.220       22.595      863.410
08/21/2013  01:46:00       46.337      -37.688        9.195       32.123       37.791       30.112     1031.917     1428.138      906.738        0.351        0.168       59.728       23.345        0.153      345.139       22.456      863.402
08/21/2013  01:47:00       40.128      -16.513       14.702       32.208       24.084       27.854     1037.384      580.047      775.822        0.225        0.120       43.393       18.325        0.178      344.763       21.812      863.395
08/21/2013  01:48:00       28.410       -6.763       22.264       36.332       44.703       26.273     1320.031     1998.390      690.292        0.268        0.200       29.204       31.087        1.133      344.908       22.061      863.389
08/21/2013  01:49:00      109.481     -104.290        9.477       73.080       77.714       46.122     5340.670     6039.486     2127.215        1.823        0.675      151.204       53.180        0.124      345.675       23.376      863.375
08/21/2013  01:50:00       66.842     -159.494       -3.543       49.310       67.585       30.096     2431.494     4567.777      905.744        1.891        0.395      172.934       15.891        0.008      345.763       23.523      863.357
08/21/2013  01:51:00       73.122      -68.157        6.738       42.873       40.377       23.464     1838.067     1630.307      550.553        0.703        0.201       99.960       24.750        0.061      345.672       23.371      863.341
08/21/2013  01:52:00       22.578        0.557       25.130       34.952       30.997       22.371     1221.626      960.814      500.482        0.191        0.134       22.585       17.735        0.617      345.224       22.601      863.329
08/21/2013  01:53:00       27.341       -9.656       20.011       34.262       32.571       27.483     1173.866     1060.844      755.300        0.212        0.150       28.996       22.061        0.579      344.965       22.160      863.332
08/21/2013  01:54:00       44.220      -38.422       12.324       50.803       46.258       36.257     2580.912     2139.822     1314.603        0.481        0.302       58.580       31.169        0.283      345.281       22.700      863.342
08/21/2013  01:55:00       16.644      -26.691       16.251       27.993       49.269       37.371      783.630     2427.387     1396.578        0.293        0.230       31.455       21.775        0.479      344.910       22.065      863.339
08/21/2013  01:56:00       37.367      -23.119       16.330       34.235       32.575       28.417     1172.046     1061.100      807.549        0.262        0.152       43.941       15.621        0.126      344.798       21.872      863.314
08/21/2013  01:57:00       46.277      -50.362       -4.243       36.511       37.081       26.062     1333.038     1374.967      679.234        0.404        0.169       68.395       15.761        0.053      344.866       21.989      863.298
08/21/2013  01:58:00      105.735      -93.881       -0.815       73.191       81.347       38.322     5356.872     6617.280     1468.562        1.672        0.672      141.399       43.771        0.096      345.429       22.951      863.270
08/21/2013  01:59:00      150.611     -156.847       14.758      137.404      161.200       70.523    18879.853    25985.467     4973.542        4.866        2.492      217.451       97.486        0.201      345.619       23.278      863.241
08/21/2013  02:00:00      159.588     -148.468       -2.253      110.472      110.049       62.729    12204.019    12110.702     3934.886        3.788        1.412      217.970       66.721        0.094      345.609       23.258      863.255
08/21/2013  02:01:00      123.619      -97.758       28.078      119.689      159.760       78.241    14325.521    25523.156     6121.685        3.579        2.299      157.601       93.854        0.355      345.594       23.234      863.241
08/21/2013  02:02:00      207.611     -245.684      -17.639      103.823      119.435       70.585    10779.117    14264.624     4982.218        6.689        1.501      321.656       78.600        0.060      345.762       23.522      863.231
08/21/2013  02:03:00      173.666     -145.028       43.241      153.130      209.416      104.047    23448.853    43854.996    10825.766        6.558        3.906      226.258      135.437        0.358      345.749       23.498      863.206
08/21/2013  02:04:00      228.490     -245.984       44.385      163.345      214.884      125.758    26681.660    46175.041    15815.158       10.166        4.434      335.731      156.164        0.216      345.803       23.593      863.200
08/21/2013  02:05:00      272.812     -286.516      -43.205       90.064      121.379       60.822     8111.604    14732.927     3699.331        9.246        1.327      395.623       61.002        0.024      345.795       23.577      863.212
08/21/2013  02:06:00      169.992     -137.693       19.479      127.372      144.336       76.899    16223.753    20832.875     5913.466        4.560        2.149      218.762       81.704        0.139      345.681       23.383      863.219
08/21/2013  02:07:00      138.801        6.314      100.046      127.310      109.254       76.933    16207.760    11936.498     5918.620        3.168        1.703      138.945       74.923        0.291      345.711       23.435      863.231
08/21/2013  02:08:00       87.089      -74.089       36.318       64.594       73.410       55.168     4172.379     5388.976     3043.514        1.350        0.630      114.341       45.516        0.158      345.741       23.487      863.208
08/21/2013  02:09:00       87.939      -27.460       20.569       68.329       70.803       51.180     4668.919     5013.091     2619.368        1.060        0.615       92.127       47.352        0.264      345.753       23.508      863.192
08/21/2013  02:10:00       73.362        5.999       55.643       46.179       76.603       42.186     2132.470     5868.037     1779.619        0.915        0.489       73.607       43.555        0.350      345.791       23.576      863.159
08/21/2013  02:11:00      114.725      114.596       86.184       67.870       59.846       57.368     4606.336     3581.493     3291.126        2.260        0.574      162.155       40.153        0.061      345.781       23.556      863.114
08/21/2013  02:12:00       87.781       51.065       71.810       79.058       68.456       66.527     6250.233     4686.159     4425.890        1.541        0.768      101.554       57.640        0.322      345.781       23.557      863.095
08/21/2013  02:13:00       56.943      -28.597       32.806       60.068       83.125       62.701     3608.178     6909.810     3931.430        0.979        0.722       63.720       60.970        0.916      345.799       23.587      863.084
08/21/2013  02:14:00       34.183       99.891      130.076       71.570       77.723       58.473     5122.296     6040.790     3419.081        2.132        0.729      105.578       58.775        0.310      345.748       23.499      863.097
08/21/2013  02:15:00      129.324      -25.594       62.873      102.294      144.169       93.585    10464.072    20784.697     8758.083        3.066        2.000      131.832      111.591        0.717      345.825       23.629      863.106
08/21/2013  02:16:00       80.030      -19.456       75.396       79.743      118.065       70.659     6358.934    13939.399     4992.638        1.888        1.265       82.361       83.736        1.034      345.816       23.615      863.102
08/21/2013  02:17:00      114.329     -160.931      -22.266       58.176       78.137       42.322     3384.486     6105.405     1791.134        2.537        0.564      197.408       32.867        0.028      345.851       23.675      863.107
08/21/2013  02:18:00      124.765     -170.624       -7.375       66.998       80.618       42.581     4488.779     6499.288     1813.111        2.877        0.640      211.374       39.348        0.035      345.841       23.659      863.111
08/21/2013  02:19:00      138.701     -154.198        7.815      108.589      108.179       63.676    11791.652    11702.633     4054.669        3.531        1.377      207.400       72.034        0.121      345.836       23.647      863.103
08/21/2013  02:20:00      217.446     -179.701       14.991      122.472      150.697       81.468    14999.272    22709.563     6637.042        6.207        2.217      282.091       97.443        0.119      345.848       23.668      863.076
08/21/2013  02:21:00      228.470     -301.462      -31.855       88.085      104.353       51.344     7758.894    10889.457     2636.217        8.268        1.064      378.256       45.909        0.015      345.924       23.799      863.068
08/21/2013  02:22:00      114.095      -74.420       41.452      110.640      106.585       72.593    12241.135    11360.371     5269.734        2.457        1.444      136.220       68.273        0.251      345.837       23.651      863.063
08/21/2013  02:23:00      114.141      -63.211       53.161       91.145      122.681       75.360     8307.497    15050.733     5679.088        2.444        1.452      130.475       86.389        0.438      345.789       23.570      863.056
08/21/2013  02:24:00       88.828      -45.073       25.926       94.811      111.063       73.176     8989.137    12334.914     5354.657        1.863        1.334       99.610       88.610        0.791      345.723       23.457      863.044
08/21/2013  02:25:00       80.675      -31.843       44.450       78.421      104.620       66.494     6149.892    10945.403     4421.506        1.550        1.076       86.732       75.142        0.751      345.765       23.529      863.039
08/21/2013  02:26:00      104.117     -116.706       -0.605       56.678       83.946       47.604     3212.376     7046.879     2266.100        1.849        0.626      156.398       45.682        0.085      345.710       23.434      863.035
08/21/2013  02:27:00       31.687      -25.602       42.361       51.983       67.645       45.408     2702.220     4575.897     2061.848        0.640        0.467       40.737       36.891        0.820      345.598       23.244      863.034
08/21/2013  02:28:00        1.718        6.345       45.794       32.451       46.678       34.752     1053.097     2178.809     1207.728        0.329        0.222        6.573       27.068       16.955      345.621       23.282      863.036
08/21/2013  02:29:00       87.057      -65.665       43.800       92.966      146.028       63.541     8642.660    21324.036     4037.427        2.390        1.700      109.045       91.264        0.700      345.603       23.249      863.016
08/21/2013  02:30:00       57.288      -64.052       23.969       73.127       86.107       62.842     5347.584     7414.403     3949.059        1.233        0.836       85.934       59.509        0.480      345.599       23.243      863.005
08/21/2013  02:31:00       51.258      -44.512       53.064       70.246       76.819       50.104     4934.442     5901.189     2510.380        1.038        0.667       67.887       38.071        0.314      345.574       23.201      863.001
08/21/2013  02:32:00       85.792      -70.159       52.708      117.353      133.131       73.280    13771.824    17723.786     5369.976        2.596        1.843      110.826       86.628        0.611      345.638       23.309      862.998
08/21/2013  02:33:00       69.296       22.242       87.849       99.704      142.052       76.531     9940.808    20178.829     5857.068        2.449        1.799       72.778      101.160        1.932      345.512       23.093      862.991
08/21/2013  02:34:00       79.866      -69.700       39.716       92.461      149.300      101.056     8548.949    22290.344    10212.225        2.693        2.053      106.003      108.633        1.050      345.691       23.403      862.984
08/21/2013  02:35:00       26.071     -104.339        1.984       78.409       91.136       54.368     6147.945     8305.791     2955.861        1.449        0.870      107.547       51.980        0.234      345.682       23.385      862.978
08/21/2013  02:36:00       17.974      -58.975       16.177       68.101      107.858       55.436     4637.763    11633.279     3073.108        1.170        0.967       61.654       58.760        0.908      345.583       23.215      862.978
08/21/2013  02:37:00      124.118     -105.247       13.851       86.621      118.119       56.883     7503.202    13952.165     3235.625        2.568        1.235      162.734       60.116        0.136      345.635       23.303      862.965
08/21/2013  02:38:00       -7.582       15.788       52.443       90.534       91.646       70.983     8196.465     8398.994     5038.558        1.234        1.082       17.514       69.144       15.586      345.454       22.995      862.948
08/21/2013  02:39:00       93.877     -185.200       -3.421       74.753      153.780       64.562     5588.026    23648.362     4168.220        3.826        1.670      207.634       71.521        0.119      345.631       23.297      862.934
08/21/2013  02:40:00       94.346     -165.234       19.774       98.335      102.226       70.012     9669.685    10450.238     4901.687        3.080        1.251      190.272       68.260        0.129      345.695       23.407      862.923
08/21/2013  02:41:00       66.439     -153.269       13.609       77.021      134.044       61.871     5932.270    17967.913     3827.992        2.790        1.386      167.050       67.315        0.162      345.674       23.371      862.917
08/21/2013  02:42:00       58.699      -88.963       -2.184       81.726       98.015       40.692     6679.090     9606.894     1655.842        1.465        0.897      106.583       37.628        0.125      345.656       23.340      862.911
08/21/2013  02:43:00       59.731      -76.038       17.779       82.714       86.622       38.323     6841.549     7503.394     1468.645        1.274        0.791       96.693       41.982        0.189      345.610       23.264      862.896
08/21/2013  02:44:00       13.232      -90.737       35.310       80.812      146.584       68.142     6530.637    21486.740     4643.398        2.115        1.633       91.696       84.255        0.844      345.615       23.270      862.886
08/21/2013  02:45:00      137.768     -283.098        2.128      138.072      156.490       86.953    19063.957    24489.071     7560.797        7.511        2.556      314.841       84.938        0.073      345.691       23.399      862.859
08/21/2013  02:46:00       89.116      -82.568       57.468      117.957      138.443       84.210    13913.908    19166.571     7091.339        2.911        2.009      121.487       98.125        0.652      345.655       23.341      862.874
08/21/2013  02:47:00      160.296     -201.697       21.517      100.677      178.665       88.349    10135.931    31921.089     7805.595        5.834        2.493      257.636      102.905        0.160      345.670       23.361      862.878
08/21/2013  02:48:00       70.300     -107.564       19.136       92.062      129.853       69.124     8475.481    16861.777     4778.186        2.349        1.506      128.499       84.493        0.432      345.644       23.321      862.889
08/21/2013  02:49:00       72.176      -83.308       39.568       96.373       85.719       59.014     9287.660     7347.729     3482.703        1.691        1.006      110.226       50.344        0.209      345.613       23.268      862.888
08/21/2013  02:50:00      133.161     -189.369       -8.743       74.960       85.244       52.511     5619.057     7266.558     2757.362        3.465        0.782      231.500       44.711        0.037      345.645       23.319      862.877
08/21/2013  02:51:00      124.330     -110.189       19.086      115.985      172.678       77.669    13452.483    29817.662     6032.525        3.862        2.465      166.131       94.729        0.325      345.611       23.262      862.881
08/21/2013  02:52:00      163.335     -143.704       19.344      131.482      141.062       82.554    17287.398    19898.622     6815.116        4.584        2.200      217.553       90.886        0.175      345.626       23.289      862.847
08/21/2013  02:53:00       46.497       -6.556       93.516       82.320      119.221       74.065     6776.536    14213.655     5485.658        1.871        1.324       46.957       84.370        3.228      345.612       23.265      862.850
08/21/2013  02:54:00       28.808        0.141       92.861       65.480      123.903       70.938     4287.614    15351.839     5032.230        1.706        1.234       28.808       81.758        8.054      345.579       23.210      862.835
08/21/2013  02:55:00      159.805     -119.589       23.639      103.970      133.941       81.025    10809.853    17940.191     6565.119        3.785        1.766      199.598       97.538        0.239      345.604       23.251      862.820
08/21/2013  02:56:00       52.903       43.543      124.915       87.119      111.303       81.770     7589.658    12388.279     6686.409        2.348        1.333       68.518       81.882        1.428      345.589       23.225      862.801
08/21/2013  02:57:00       68.183       13.509       97.674       99.599      122.519       77.461     9919.893    15010.791     6000.142        2.265        1.547       69.509       86.841        1.561      345.570       23.193      862.797
08/21/2013  02:58:00       99.146      -72.708       62.048      109.747      133.482       80.043    12044.488    17817.368     6406.950        2.761        1.813      122.949       97.167        0.625      345.581       23.211      862.787
08/21/2013  02:59:00       82.505      -51.978       69.981      100.990      165.521       90.559    10199.012    27397.125     8200.873        3.009        2.290       97.513      120.889        1.537      345.570       23.193      862.771
08/21/2013  03:00:00       37.272      -12.928       58.785       62.137       88.672       52.659     3861.032     7862.689     2772.927        0.975        0.725       39.450       61.965        2.467      345.545       23.153      862.785
08/21/2013  03:01:00       56.904      -16.715       56.028       94.530      102.062       54.125     8935.844    10416.681     2929.552        1.447        1.114       59.308       72.221        1.483      345.585       23.220      862.780
08/21/2013  03:02:00      166.466     -200.950      -13.831      120.754      113.323       65.257    14581.582    12842.068     4258.477        4.998        1.584      260.944       67.756        0.067      345.629       23.293      862.763
08/21/2013  03:03:00       62.562      -71.787       43.090       81.183      115.224       61.100     6590.707    13276.574     3733.195        1.726        1.180       95.223       51.891        0.297      345.590       23.227      862.762
08/21/2013  03:04:00      135.689     -112.521        3.168       88.800       99.484       67.369     7885.515     9897.153     4538.622        2.670        1.116      176.274       63.828        0.131      345.592       23.230      862.766
08/21/2013  03:05:00      181.497     -189.918      -32.744       84.863       77.836       59.511     7201.691     6058.461     3541.544        4.344        0.840      262.697       43.626        0.028      345.606       23.253      862.780
08/21/2013  03:06:00       75.000        9.126       92.750      120.193      146.071      100.597    14446.429    21336.813    10119.849        3.010        2.295       75.553      121.739        2.596      345.590       23.228      862.758
08/21/2013  03:07:00      120.942      -64.652       62.766      105.838      111.644       67.425    11201.687    12464.360     4546.128        2.547        1.411      137.139       69.482        0.257      345.589       23.225      862.760
08/21/2013  03:08:00      141.950     -102.086       30.571      119.101      141.938       81.133    14185.054    20146.421     6582.499        3.620        2.046      174.846       95.851        0.301      345.569       23.190      862.762
08/21/2013  03:09:00      102.893      -91.786        5.929       76.067       98.664       54.556     5786.243     9734.512     2976.358        1.877        0.925      137.883       63.840        0.214      345.472       23.026      862.755
08/21/2013  03:10:00      162.505     -133.021       10.391       98.311       98.903       55.743     9665.058     9781.716     3107.338        3.338        1.128      210.006       54.708        0.068      345.470       23.020      862.757
08/21/2013  03:11:00       34.552       -6.776       43.308       62.278       63.649       40.813     3878.571     4051.184     1665.717        0.635        0.480       35.210       37.012        1.105      345.023       22.258      862.752
08/21/2013  03:12:00      141.473      -28.847       36.016      118.613       80.769       58.660    14069.138     6523.711     3441.030        2.308        1.202      144.384       58.624        0.165      345.194       22.549      862.755
08/21/2013  03:13:00      129.998      -30.546       43.992       81.652       90.604       56.454     6667.104     8209.016     3187.065        1.891        0.903      133.538       53.450        0.160      345.085       22.363      862.768
08/21/2013  03:14:00      102.489      -37.155       37.142      103.597       83.469       51.422    10732.261     6966.992     2644.196        1.680        1.017      109.016       61.918        0.323      345.044       22.292      862.773
08/21/2013  03:15:00       86.183      -29.819       15.773       66.055       66.549       49.591     4363.319     4428.763     2459.255        0.991        0.563       91.196       40.749        0.200      344.934       22.105      862.777
08/21/2013  03:16:00      108.584      -36.809       25.318       80.748       82.856       55.552     6520.298     6865.184     3085.973        1.513        0.824      114.654       62.618        0.298      344.977       22.179      862.770
08/21/2013  03:17:00       80.054      -76.883        1.112       51.605       65.865       41.157     2663.026     4338.177     1693.939        1.051        0.435      110.994       36.672        0.109      345.022       22.256      862.783
08/21/2013  03:18:00      101.381      -43.800       19.154       84.714       68.769       49.346     7176.514     4729.204     2434.991        1.345        0.717      110.438       50.555        0.210      345.151       22.475      862.787
08/21/2013  03:19:00       43.411       29.579       58.455       51.693       68.350       44.662     2672.136     4671.738     1994.678        0.776        0.467       52.530       46.487        0.783      345.126       22.434      862.790
08/21/2013  03:20:00       91.126      -40.268       28.492       90.867       45.864       44.195     8256.776     2103.484     1953.233        1.152        0.616       99.627       53.304        0.286      345.016       22.247      862.778
08/21/2013  03:21:00       53.341       42.309       53.059       62.230       74.279       52.674     3872.515     5517.320     2774.524        0.981        0.608       68.083       50.058        0.541      344.950       22.131      862.768
08/21/2013  03:22:00       91.206      106.405      106.345       92.248       68.251       69.907     8509.654     4658.243     4887.018        2.450        0.903      140.145       51.715        0.136      345.184       22.530      862.763
08/21/2013  03:23:00       71.815       58.917       84.977       87.653       65.595       50.309     7683.124     4302.652     2530.957        1.518        0.726       92.891       43.777        0.222      345.082       22.358      862.755
08/21/2013  03:24:00       54.052       18.173       61.786       57.372       64.761       40.224     3291.588     4194.029     1617.984        0.809        0.455       57.026       33.101        0.337      344.981       22.186      862.754
08/21/2013  03:25:00       39.110       19.914       56.995       47.928       46.895       35.482     2297.074     2199.147     1258.945        0.546        0.288       43.889       28.106        0.410      344.878       22.009      862.764
08/21/2013  03:26:00       37.408       14.075       26.960       41.596       59.101       36.563     1730.187     3492.891     1336.853        0.444        0.328       39.968       31.268        0.612      344.852       21.965      862.761
08/21/2013  03:27:00      106.228       51.605       51.228      102.011       51.302       40.625    10406.294     2631.924     1650.404        1.563        0.734      118.099       27.681        0.055      345.089       22.369      862.751
08/21/2013  03:28:00      134.137      107.574       90.869       77.137       69.347       56.988     5950.157     4809.026     3247.660        2.591        0.700      171.944       49.719        0.084      345.208       22.572      862.740
08/21/2013  03:29:00       35.875       37.133       60.075       62.084       61.083       39.466     3854.475     3731.161     1557.534        0.771        0.457       51.632       37.686        0.533      345.057       22.317      862.743
08/21/2013  03:30:00       95.940       65.795       71.479       76.984       87.450       67.278     5926.573     7647.496     4526.340        1.837        0.905      116.334       62.943        0.293      344.969       22.164      862.742
08/21/2013  03:31:00       71.045       83.145       86.327       87.548       63.299       55.674     7664.728     4006.740     3099.546        1.709        0.739      109.364       56.553        0.267      345.024       22.258      862.724
08/21/2013  03:32:00       28.623       55.897       72.707       42.901       54.381       42.542     1840.511     2957.263     1809.790        0.792        0.330       62.799       34.551        0.303      345.089       22.371      862.706
08/21/2013  03:33:00      104.675       89.672       74.328       78.908       64.561       56.544     6226.489     4168.155     3197.209        1.905        0.680      137.832       45.088        0.107      345.029       22.265      862.705
08/21/2013  03:34:00      150.265      105.885       82.563      101.150       76.588       66.032    10231.320     5865.732     4360.291        3.053        1.023      183.824       60.081        0.107      345.249       22.642      862.701
08/21/2013  03:35:00      118.273       99.479       70.008       66.166       43.621       38.408     4377.940     1902.811     1475.172        1.827        0.388      154.547       25.400        0.027      345.102       22.391      862.713
08/21/2013  03:36:00       92.039       74.826       72.030       56.947       47.610       37.233     3242.948     2266.724     1386.277        1.308        0.345      118.617       27.890        0.055      344.927       22.094      862.711
08/21/2013  03:37:00      113.775       77.177       50.755       73.912       36.895       33.133     5463.055     1361.273     1097.780        1.470        0.396      137.481       33.130        0.058      345.037       22.281      862.710
08/21/2013  03:38:00      147.131       90.189       56.595       62.536       43.286       47.853     3910.743     1873.700     2289.957        2.053        0.404      172.573       33.348        0.037      345.163       22.495      862.684
08/21/2013  03:39:00      143.638       62.025       31.060       75.238       62.853       41.631     5660.712     3950.515     1733.140        1.839        0.567      156.458       30.078        0.037      345.216       22.585      862.693
08/21/2013  03:40:00      165.004       76.677       40.076       73.209       51.568       46.901     5359.489     2659.296     2199.742        2.246        0.511      181.950       40.267        0.049      345.136       22.450      862.689
08/21/2013  03:41:00      134.055       79.666       53.975       74.533       59.659       50.967     5555.180     3559.138     2597.628        1.947        0.586      155.940       39.877        0.065      345.120       22.422      862.685
08/21/2013  03:42:00      157.422       75.860       43.585       60.540       47.641       34.513     3665.049     2269.659     1191.156        1.978        0.356      174.747       22.733        0.017      345.088       22.367      862.690
08/21/2013  03:43:00      108.190       26.489       52.431       62.423       66.270       40.605     3896.640     4391.647     1648.777        1.254        0.497      111.386       39.906        0.128      345.072       22.340      862.698
08/21/2013  03:44:00      137.902       26.965       56.875       83.961       62.791       59.703     7049.510     3942.761     3564.493        1.877        0.728      140.513       43.963        0.098      345.123       22.429      862.689
08/21/2013  03:45:00       59.162       25.792       36.474       85.899       42.096       39.017     7378.617     1772.092     1522.290        0.808        0.534       64.540       40.815        0.400      345.111       22.408      862.674
08/21/2013  03:46:00       73.775       -0.852       44.541       74.519       66.269       40.785     5553.068     4391.544     1663.386        0.952        0.580       73.780       48.215        0.427      345.109       22.406      862.667
08/21/2013  03:47:00      104.816      -42.644       44.474       96.507       81.213       53.551     9313.516     6595.600     2867.760        1.678        0.939      113.159       69.017        0.372      345.160       22.490      862.650
08/21/2013  03:48:00       80.782       -7.719       39.782       80.128       68.025       52.560     6420.546     4627.334     2762.553        1.099        0.691       81.149       51.223        0.398      345.199       22.556      862.648
08/21/2013  03:49:00       67.062     -114.864        5.641       68.032       73.298       39.284     4628.355     5372.540     1543.260        1.463        0.577      133.008       45.701        0.118      345.268       22.674      862.622
08/21/2013  03:50:00      123.389     -169.866       -5.877       78.226       86.598       49.684     6119.331     7499.227     2468.484        3.010        0.804      209.951       26.958        0.016      345.351       22.816      862.608
08/21/2013  03:51:00      119.164      -90.104       12.489       74.429       78.842       53.168     5539.609     6216.120     2826.868        1.853        0.729      149.395       51.732        0.120      345.289       22.710      862.613
08/21/2013  03:52:00      162.823     -135.377       -6.794       95.525       93.944       56.583     9125.078     8825.494     3201.580        3.301        1.058      211.750       62.312        0.087      345.383       22.872      862.584
08/21/2013  03:53:00      111.839      -95.719       16.470       86.432       79.093       53.996     7470.527     6255.716     2915.521        1.929        0.832      147.208       52.007        0.125      345.319       22.762      862.564
08/21/2013  03:54:00       83.157      -79.380       24.066       87.804       84.363       53.234     7709.630     7117.081     2833.843        1.572        0.883      114.962       56.679        0.243      345.218       22.590      862.571
08/21/2013  03:55:00      167.540     -139.656       -2.216      107.810      111.069       44.116    11623.103    12336.292     1946.255        3.674        1.295      218.113       50.974        0.055      345.276       22.687      862.554
08/21/2013  03:56:00       49.469       22.968       55.394       70.878       73.603       55.510     5023.677     5417.438     3081.347        0.978        0.676       54.541       47.722        0.766      345.173       22.515      862.528
08/21/2013  03:57:00       88.852      -59.051       26.948       88.931       80.758       48.050     7908.797     6521.917     2308.821        1.442        0.837      106.685       56.385        0.279      345.209       22.575      862.529
08/21/2013  03:58:00       68.829      -57.269       18.934       68.246       66.258       46.930     4657.554     4390.059     2202.420        0.981        0.563       89.539       39.449        0.194      345.075       22.347      862.528
08/21/2013  03:59:00       79.866      -85.884       12.570      107.446      101.167       60.214    11544.743    10234.724     3625.733        1.965        1.270      117.281       72.049        0.377      345.268       22.675      862.530
08/21/2013  04:00:00      181.949     -153.643        0.511      122.256      134.127       67.610    14946.442    17989.954     4571.164        4.710        1.875      238.142       91.604        0.148      345.346       22.809      862.529
08/21/2013  04:01:00       49.560      -30.210       46.554       67.559       92.265       60.702     4564.179     8512.905     3684.787        1.115        0.838       58.041       56.652        0.953      345.259       22.662      862.503
08/21/2013  04:02:00       84.549     -117.498       -2.306       69.250       89.574       45.694     4795.540     8023.441     2087.960        1.793        0.745      144.756       50.045        0.120      345.157       22.485      862.505
08/21/2013  04:03:00       71.627      -73.757       17.524       77.918       89.469       50.198     6071.190     8004.653     2519.835        1.373        0.830      102.813       60.283        0.344      345.266       22.673      862.511
08/21/2013  04:04:00       80.146      -64.999       19.389       63.159       88.171       48.445     3989.006     7774.145     2346.944        1.256        0.706      103.190       47.777        0.214      345.232       22.614      862.511
08/21/2013  04:05:00      137.065     -161.932      -18.847       83.302       94.763       50.682     6939.215     8979.946     2568.696        3.192        0.924      212.153       42.499        0.040      345.335       22.788      862.504
08/21/2013  04:06:00       18.813       18.393       57.575       50.556       92.059       53.615     2555.880     8474.832     2874.516        0.895        0.695       26.310       53.727        4.170      345.225       22.602      862.505
08/21/2013  04:07:00       56.867      -22.705       36.041       60.502       74.355       42.978     3660.498     5528.709     1847.071        0.804        0.552       61.233       42.536        0.483      345.032       22.273      862.516
08/21/2013  04:08:00       22.646       27.213       64.382       52.569       63.450       57.747     2763.518     4025.876     3334.665        0.776        0.506       35.403       58.199        2.702      344.938       22.113      862.514
08/21/2013  04:09:00       21.670      -20.609       35.312       57.097       78.663       54.960     3260.011     6187.901     3020.611        0.730        0.623       29.906       63.030        4.442      345.203       22.565      862.511
08/21/2013  04:10:00       35.600      -44.258       43.429       61.568      104.618       57.769     3790.584    10944.920     3337.262        1.159        0.904       56.800       65.855        1.344      345.198       22.557      862.511
08/21/2013  04:11:00       35.655      -12.679       44.907       50.905       85.168       38.874     2591.333     7253.550     1511.188        0.740        0.568       37.842       42.140        1.240      345.156       22.485      862.503
08/21/2013  04:12:00       33.594        7.457       63.294       48.556       56.239       54.939     2357.706     3162.821     3018.304        0.686        0.427       34.412       44.532        1.675      345.204       22.567      862.492
08/21/2013  04:13:00       47.156      -29.350       58.752       85.245      147.765       69.222     7266.679    21834.357     4791.668        2.021        1.695       55.544       99.981        3.240      345.212       22.579      862.478
08/21/2013  04:14:00       57.813      -23.842       31.981       56.226       80.622       57.920     3161.318     6499.903     3354.709        0.897        0.651       62.536       58.153        0.865      345.199       22.559      862.467
08/21/2013  04:15:00       80.057      -45.306       21.687       47.068       64.970       34.168     2215.361     4221.139     1167.422        0.827        0.380       91.988       44.224        0.231      345.159       22.490      862.466
08/21/2013  04:16:00       68.395       16.871       55.612       51.320       55.977       47.117     2633.707     3133.450     2220.042        0.802        0.399       70.445       43.438        0.380      344.986       22.193      862.467
08/21/2013  04:17:00       60.626       41.981       61.178       68.419       54.740       49.490     4681.138     2996.514     2449.286        0.965        0.506       73.743       39.811        0.291      345.262       22.667      862.457
08/21/2013  04:18:00       78.005      -41.480       18.438       71.774       88.128       41.269     5151.500     7766.632     1703.166        1.138        0.731       88.348       57.611        0.425      345.187       22.538      862.464
08/21/2013  04:19:00       68.592       48.329       56.559       46.666       52.394       32.793     2177.704     2745.173     1075.397        0.812        0.300       83.908       29.149        0.121      345.131       22.441      862.448
08/21/2013  04:20:00       69.178       -4.879       30.668       52.390       62.102       42.809     2744.712     3856.716     1832.636        0.709        0.422       69.349       44.581        0.413      345.097       22.386      862.440
08/21/2013  04:21:00       36.386       38.156       68.295       60.858       57.049       45.539     3703.672     3254.639     2073.789        0.824        0.452       52.724       52.414        0.988      345.153       22.480      862.434
08/21/2013  04:22:00       43.219       49.478       63.351       38.705       37.840       27.671     1498.080     1431.839      765.707        0.601        0.185       65.695       21.031        0.102      345.146       22.468      862.423
08/21/2013  04:23:00       56.765       42.977       18.031       34.448       25.054       26.664     1186.688      627.707      710.979        0.396        0.126       71.199       19.018        0.071      345.143       22.463      862.410
08/21/2013  04:24:00       54.631       24.458       35.974       38.750       40.096       23.122     1501.567     1607.707      534.623        0.426        0.182       59.856       23.382        0.153      345.134       22.449      862.402
08/21/2013  04:25:00       88.635      -26.582       15.384       48.470       48.999       30.802     2349.349     2400.856      948.774        0.725        0.285       92.536       35.993        0.151      345.199       22.558      862.391
08/21/2013  04:26:00       65.655       -4.005       55.267       58.232      109.049       51.699     3390.993    11891.653     2672.800        1.267        0.898       65.777       58.582        0.793      345.255       22.655      862.379
08/21/2013  04:27:00       36.162       23.878       69.039       54.528       81.471       45.250     2973.286     6637.562     2047.555        0.915        0.583       43.334       45.592        1.107      345.206       22.572      862.380
08/21/2013  04:28:00      105.429      -22.632       44.480       75.983       64.237       46.658     5773.492     4126.366     2176.939        1.284        0.604      107.831       52.029        0.233      345.242       22.630      862.371
08/21/2013  04:29:00       29.365      -12.181       45.727       45.208       38.269       30.198     2043.722     1464.507      911.939        0.376        0.221       31.791       26.332        0.686      345.191       22.545      862.356
08/21/2013  04:30:00       50.670      -20.767       22.251       44.675       55.330       28.726     1995.811     3061.462      825.177        0.469        0.294       54.761       22.789        0.173      345.200       22.559      862.352
08/21/2013  04:31:00       32.494       35.366       35.832       25.655       35.897       35.473      658.181     1288.591     1258.342        0.340        0.160       48.027       23.460        0.239      345.064       22.328      862.353
08/21/2013  04:32:00       83.349      -32.065       43.210       77.017      101.415       54.119     5931.621    10285.087     2928.872        1.449        0.957       89.304       55.655        0.388      345.190       22.542      862.346
08/21/2013  04:33:00       32.439       72.883       91.138       46.693       59.792       41.464     2180.239     3575.073     1719.280        1.107        0.374       79.776       44.921        0.317      345.119       22.421      862.351
08/21/2013  04:34:00      167.962      -74.147       11.251       78.161       85.218       52.800     6109.140     7262.161     2787.885        2.499        0.808      183.600       63.092        0.118      345.296       22.722      862.342
08/21/2013  04:35:00       68.623      -66.067       13.783       53.620       45.287       39.580     2875.067     2050.941     1566.572        0.788        0.325       95.257       33.778        0.126      345.214       22.583      862.334
08/21/2013  04:36:00       69.710        8.872       28.882       46.036       56.787       31.480     2119.274     3224.760      990.960        0.605        0.317       70.273       32.922        0.219      345.153       22.479      862.338
08/21/2013  04:37:00        1.033       -7.244       28.978       36.493       60.338       32.546     1331.728     3640.715     1059.269        0.346        0.302        7.317       31.541       18.581      345.041       22.288      862.343
08/21/2013  04:38:00       37.585       24.600       31.671       42.227       35.859       27.718     1783.084     1285.889      768.263        0.343        0.192       44.920       21.547        0.230      345.120       22.424      862.342
08/21/2013  04:39:00       23.102       -1.909       17.575       40.459       35.757       24.032     1636.959     1278.564      577.529        0.217        0.175       23.181       20.379        0.773      345.201       22.562      862.328
08/21/2013  04:40:00       31.493       24.911       17.808       30.602       20.532       20.185      936.502      421.579      407.447        0.185        0.088       40.154       12.554        0.098      345.076       22.346      862.320
08/21/2013  04:41:00       24.483       21.621        6.526       14.790       23.601       13.015      218.734      556.995      169.385        0.103        0.047       32.663       14.487        0.197      345.038       22.283      862.324
08/21/2013  04:42:00       -3.390       11.176       -4.565       11.278       24.623        9.126      127.201      606.281       83.275        0.049        0.041       11.679        6.365        0.297      344.948       22.129      862.318
08/21/2013  04:43:00       53.077       69.072       32.724       41.983       24.775       28.258     1762.614      613.778      798.534        0.592        0.159       87.110       24.057        0.076      345.112       22.411      862.305
08/21/2013  04:44:00       46.265       24.148       13.156       27.624       26.606       21.269      763.100      707.894      452.377        0.241        0.096       52.188       11.297        0.047      344.924       22.089      862.307
08/21/2013  04:45:00       53.513       12.524        8.826       27.667       46.483       28.889      765.453     2160.632      834.561        0.343        0.188       54.959        6.604        0.014      344.601       21.535      862.306
08/21/2013  04:46:00       57.232       74.947       31.483       53.227       40.767       47.581     2833.102     1661.950     2263.991        0.832        0.338       94.300       22.777        0.058      344.942       22.120      862.280
08/21/2013  04:47:00      133.304      112.392       67.397       49.293       38.559       41.482     2429.820     1486.821     1720.757        2.029        0.282      174.361       32.232        0.034      344.954       22.137      862.278
08/21/2013  04:48:00      166.203       94.257       33.592       40.767       31.994       39.801     1661.918     1023.603     1584.098        2.095        0.213      191.070       25.159        0.017      344.737       21.769      862.264
08/21/2013  04:49:00      126.295       59.051       19.972       60.840       53.354       36.434     3701.445     2846.675     1327.452        1.385        0.394      139.419       20.407        0.021      344.616       21.561      862.250
08/21/2013  04:50:00      169.218       89.160       52.937       40.441       39.359       38.059     1635.467     1549.149     1448.480        2.201        0.232      191.271       23.316        0.015      344.446       21.269      862.238
08/21/2013  04:51:00       90.759       72.269       48.634       50.689       35.178       43.983     2569.415     1237.514     1934.492        1.078        0.287      116.017       31.449        0.073      344.269       20.968      862.236
08/21/2013  04:52:00      111.459       76.645       28.736       41.934       35.284       42.036     1758.432     1244.951     1767.023        1.195        0.239      135.269       21.960        0.026      344.220       20.883      862.236
08/21/2013  04:53:00      121.515       97.198       64.010       40.309       34.765       31.372     1624.817     1208.600      984.212        1.606        0.191      155.607       13.869        0.008      344.162       20.785      862.240
08/21/2013  04:54:00      108.177       62.376       39.147       47.209       26.857       34.758     2228.694      721.317     1208.113        1.064        0.208      124.872       19.480        0.024      344.152       20.770      862.243
08/21/2013  04:55:00       72.220       67.753       53.137       44.750       39.481       36.788     2002.563     1558.716     1353.321        0.877        0.246       99.026       29.967        0.092      344.251       20.938      862.244
08/21/2013  04:56:00      130.536       79.315       33.494       34.959       26.733       30.004     1222.156      714.675      900.243        1.364        0.142      152.743       17.485        0.013      344.266       20.961      862.237
08/21/2013  04:57:00      138.305       84.476       44.016       32.524       29.429       35.376     1057.803      866.077     1251.480        1.569        0.159      162.063       16.889        0.011      344.278       20.983      862.244
08/21/2013  04:58:00      116.606       85.790       35.251       35.032       27.472       31.433     1227.257      754.708      988.003        1.258        0.148      144.765       17.579        0.015      344.196       20.844      862.246
08/21/2013  04:59:00       95.925       85.892       64.323       56.004       40.211       36.168     3136.395     1616.923     1308.099        1.339        0.303      128.760       31.290        0.059      344.207       20.862      862.256
08/21/2013  05:00:00       83.445       77.496       58.097       47.218       43.600       30.735     2229.553     1900.921      944.644        1.071        0.254      113.880       15.700        0.019      344.129       20.727      862.252
08/21/2013  05:01:00       96.447       74.441       55.845       41.158       36.638       36.477     1693.977     1342.321     1330.605        1.116        0.218      121.834       21.593        0.031      344.120       20.714      862.248
08/21/2013  05:02:00      117.156       83.340       35.769       45.783       45.870       39.527     2096.090     2104.075     1562.345        1.386        0.288      143.775       27.487        0.037      344.204       20.856      862.249
08/21/2013  05:03:00      115.041       69.417       44.884       60.669       47.629       34.572     3680.767     2268.561     1195.218        1.360        0.357      134.362       29.603        0.049      344.223       20.888      862.246
08/21/2013  05:04:00      136.493       88.263       44.862       47.429       37.535       34.136     2249.502     1408.841     1165.251        1.663        0.241      162.544       25.128        0.024      344.130       20.732      862.237
08/21/2013  05:05:00      103.603       77.151       46.045       51.864       34.028       31.248     2689.919     1157.937      976.429        1.181        0.241      129.174       30.924        0.057      344.097       20.675      862.236
08/21/2013  05:06:00       96.542       74.780       51.152       34.077       32.982       33.657     1161.273     1087.837     1132.791        1.045        0.169      122.116       22.418        0.034      344.041       20.578      862.238
08/21/2013  05:07:00      132.179       79.423       22.074       54.061       40.389       34.759     2922.636     1631.255     1208.154        1.501        0.288      154.206       19.508        0.016      344.094       20.669      862.220
08/21/2013  05:08:00      116.708       82.979       38.450       43.352       32.951       27.828     1879.422     1085.745      774.415        1.286        0.187      143.200       23.407        0.027      344.141       20.750      862.211
08/21/2013  05:09:00      101.092       65.417       22.185       35.974       31.680       30.463     1294.141     1003.638      927.975        0.911        0.161      120.411       13.649        0.013      344.136       20.741      862.202
08/21/2013  05:10:00      115.015       51.895       12.516       55.099       39.237       30.367     3035.939     1539.503      922.158        1.079        0.275      126.181       10.926        0.007      344.083       20.650      862.203
08/21/2013  05:11:00       98.958       72.338       36.938       60.983       39.457       45.072     3718.946     1556.864     2031.492        1.185        0.365      122.579       39.312        0.103      344.008       20.521      862.202
08/21/2013  05:12:00      127.487       73.581       36.398       28.968       25.727       25.805      839.117      661.866      665.873        1.258        0.108      147.197       16.108        0.012      344.067       20.623      862.193
08/21/2013  05:13:00      133.095       88.083       47.091       46.734       28.591       38.133     2184.093      817.461     1454.163        1.607        0.223      159.602       28.987        0.033      344.048       20.589      862.204
08/21/2013  05:14:00      158.032       67.973       22.943       71.068       58.419       43.781     5050.652     3412.819     1916.755        2.025        0.519      172.030       27.856        0.026      344.234       20.907      862.210
08/21/2013  05:15:00      153.594       82.276       18.668       42.766       35.002       33.261     1828.926     1225.109     1106.291        1.743        0.208      174.242       23.524        0.018      344.259       20.949      862.212
08/21/2013  05:16:00       77.078       47.477       37.900       51.022       31.288       36.142     2603.232      978.962     1306.264        0.726        0.244       90.527       35.535        0.154      344.085       20.653      862.218
08/21/2013  05:17:00       85.294       51.588       32.276       33.704       26.108       30.140     1135.970      681.649      908.412        0.685        0.136       99.681       25.085        0.063      344.127       20.727      862.204
08/21/2013  05:18:00      135.507       84.798       28.903       47.707       42.264       42.356     2275.922     1786.282     1794.066        1.612        0.293      159.853       24.137        0.023      344.075       20.635      862.211
08/21/2013  05:19:00       99.566       85.091       40.830       63.125       38.097       40.052     3984.752     1451.412     1604.172        1.293        0.352      130.973       40.056        0.094      344.090       20.662      862.198
08/21/2013  05:20:00      120.049       75.028       21.575       61.130       40.154       41.286     3736.936     1612.381     1704.540        1.378        0.353      141.567       35.434        0.063      344.100       20.679      862.179
08/21/2013  05:21:00       94.311       48.593       23.291       46.898       36.819       32.239     2199.453     1355.669     1039.365        0.820        0.230      106.093       19.154        0.033      343.999       20.506      862.188
08/21/2013  05:22:00      174.314       82.559       10.515       55.258       46.295       35.555     3053.429     2143.246     1264.144        2.189        0.323      192.877       18.978        0.010      344.102       20.681      862.168
08/21/2013  05:23:00      196.118      113.952       33.752       30.667       39.284       37.503      940.467     1543.235     1406.439        2.824        0.195      226.820       15.168        0.004      344.174       20.802      862.137
08/21/2013  05:24:00      164.679       64.174       19.360       56.179       39.910       37.777     3156.031     1592.779     1427.117        1.889        0.309      176.742       22.767        0.017      344.078       20.639      862.127
08/21/2013  05:25:00      127.166       64.037       22.406       49.136       40.739       38.595     2414.320     1659.656     1489.582        1.317        0.278      142.380       20.263        0.020      344.025       20.552      862.117
08/21/2013  05:26:00       56.474       55.019       42.753       53.974       33.902       37.615     2913.171     1149.327     1414.884        0.676        0.274       78.844       26.971        0.117      344.035       20.568      862.129
08/21/2013  05:27:00      148.616       77.580       22.055       47.751       33.929       27.669     2280.180     1151.161      765.555        1.639        0.210      167.646       21.693        0.017      344.132       20.733      862.117
08/21/2013  05:28:00       93.379       83.295       43.352       43.533       30.994       32.554     1895.112      960.632     1059.760        1.073        0.196      125.130       28.069        0.050      344.061       20.613      862.110
08/21/2013  05:29:00       71.754       35.267       41.803       49.096       40.552       27.956     2410.447     1644.480      781.556        0.649        0.242       79.953       12.538        0.025      344.076       20.640      862.100
08/21/2013  05:30:00       27.995      -27.132       16.405       36.208       47.155       30.058     1310.997     2223.592      903.493        0.311        0.222       38.985       25.743        0.436      344.167       20.793      862.118
08/21/2013  05:31:00       43.297      -84.579        5.345       49.034       80.805       29.802     2404.335     6529.435      888.145        0.944        0.491       95.017       27.619        0.084      344.310       21.038      862.123
08/21/2013  05:32:00       27.585      -69.316       -0.531       23.137       34.020       27.556      535.305     1157.389      759.351        0.401        0.123       74.603        5.550        0.006      344.358       21.120      862.136
08/21/2013  05:33:00       19.055      -31.410        3.756       12.995       17.902       15.892      168.880      320.497      252.561        0.105        0.037       36.738        5.574        0.023      344.338       21.086      862.133
08/21/2013  05:34:00        9.613        2.622        9.216       20.684       16.795       12.490      427.847      282.073      155.992        0.052        0.043        9.964        5.550        0.310      344.226       20.896      862.166
08/21/2013  05:35:00       17.077        5.620       15.749       22.081       35.550       16.352      487.583     1263.801      267.372        0.129        0.101       17.978       13.077        0.529      344.210       20.866      862.179
08/21/2013  05:36:00       48.012       32.859       21.593       31.332       26.085       25.873      981.686      680.407      669.422        0.309        0.117       58.180       10.130        0.030      344.174       20.806      862.168
08/21/2013  05:37:00       74.959       69.742       18.607       22.150       15.638       24.511      490.630      244.555      600.788        0.608        0.067      102.385       12.228        0.014      344.177       20.810      862.147
08/21/2013  05:38:00       81.765       69.076       44.563       36.428       24.384       27.317     1326.971      594.568      746.225        0.805        0.133      107.037       14.794        0.019      344.046       20.587      862.156
08/21/2013  05:39:00       89.918       78.169       41.305       29.998       17.876       27.557      899.895      319.542      759.389        0.894        0.099      119.146        5.697        0.002      344.017       20.537      862.165
08/21/2013  05:40:00       80.959       58.570       15.487       20.088       14.918       20.508      403.528      222.541      420.595        0.564        0.052       99.924       11.382        0.013      343.939       20.404      862.165
08/21/2013  05:41:00       36.663       41.476       12.534       29.641       27.523       17.795      878.565      757.537      316.661        0.259        0.098       55.358       16.771        0.092      343.893       20.327      862.155
08/21/2013  05:42:00       39.731       35.174        8.145       23.580       15.988       15.912      556.012      255.612      253.182        0.197        0.053       53.063       11.748        0.049      343.872       20.291      862.158
08/21/2013  05:43:00       28.038       25.308        9.175       21.846       20.376       16.449      477.246      415.179      270.568        0.134        0.058       37.771       12.176        0.104      343.859       20.266      862.167
08/21/2013  05:44:00       19.509       31.267        3.122       24.474       27.613       14.952      598.963      762.500      223.558        0.148        0.079       36.854       14.536        0.156      343.844       20.243      862.187
08/21/2013  05:45:00       33.189       34.015       -0.806       22.707       16.143       13.289      515.627      260.595      176.587        0.161        0.048       47.524        8.676        0.033      343.899       20.336      862.183
08/21/2013  05:46:00       29.511       24.160        6.322       11.504       12.209       11.587      132.350      149.066      134.249        0.096        0.021       38.139        6.486        0.029      343.895       20.327      862.186
08/21/2013  05:47:00       11.481       14.907        3.356       17.332       11.755       10.357      300.403      138.175      107.266        0.046        0.027       18.816       10.471        0.310      343.784       20.143      862.199
08/21/2013  05:48:00        2.021       -0.716       -5.127       10.595        7.339        4.532      112.251       53.858       20.540        0.011        0.009        2.144        4.509        4.422      343.764       20.105      862.182
08/21/2013  05:49:00       27.948       16.867        1.535       10.240       12.251        8.860      104.854      150.084       78.505        0.070        0.017       32.644        3.305        0.010      343.815       20.192      862.179
08/21/2013  05:50:00       24.794        1.447        5.702       25.243       27.216       10.965      637.216      740.693      120.226        0.107        0.075       24.836       11.637        0.220      343.828       20.215      862.186
08/21/2013  05:51:00       23.524       25.835       17.883       28.340       17.378       11.324      803.164      302.008      128.224        0.139        0.062       34.940        9.896        0.080      343.780       20.133      862.184
08/21/2013  05:52:00       60.310       38.555       18.200       12.538       11.090       12.483      157.211      122.983      155.825        0.295        0.022       71.581        7.870        0.012      343.858       20.265      862.183
08/21/2013  05:53:00       61.317       42.290       21.648       15.049       14.535       17.640      226.478      211.277      311.171        0.338        0.037       74.486        9.785        0.017      343.878       20.301      862.196
08/21/2013  05:54:00       42.180       30.858       10.053       16.210       13.190       10.501      262.751      173.964      110.264        0.169        0.027       52.263        7.791        0.022      343.805       20.176      862.189
08/21/2013  05:55:00       36.246       25.204       10.505       31.906       25.895       18.951     1018.021      670.561      359.130        0.205        0.102       44.148       15.614        0.125      343.772       20.117      862.201
08/21/2013  05:56:00       34.209       28.441       27.499       26.504       17.274       14.503      702.469      298.384      210.335        0.197        0.061       44.487       11.491        0.067      343.764       20.106      862.221
08/21/2013  05:57:00       50.714       20.745        9.636       25.860       17.294       18.458      668.764      299.075      340.699        0.220        0.065       54.793        8.465        0.024      343.806       20.177      862.224
08/21/2013  05:58:00       49.071       20.092       14.235       25.031       18.264       15.704      626.545      333.577      246.608        0.211        0.060       53.025        7.121        0.018      343.804       20.175      862.230
08/21/2013  05:59:00       30.505       27.879       52.836       28.846       29.635       15.564      832.082      878.254      242.251        0.323        0.098       41.325       15.393        0.139      343.758       20.096      862.241
08/21/2013  06:00:00       54.011       32.209       29.706       24.713       14.504       18.142      610.752      210.367      329.136        0.299        0.058       62.886        6.124        0.009      343.753       20.085      862.244
08/21/2013  06:01:00       32.976       34.422       37.485       18.568       25.835       15.709      344.788      667.435      246.761        0.247        0.063       47.669        3.767        0.006      343.760       20.099      862.254
08/21/2013  06:02:00       26.121       14.301       11.298       20.881       15.580       14.051      436.015      242.732      197.441        0.095        0.044       29.779        9.870        0.110      343.805       20.175      862.251
08/21/2013  06:03:00       63.122       51.699       14.164       18.527       14.446       21.529      343.242      208.687      463.487        0.394        0.051       81.591       13.529        0.027      343.771       20.118      862.244
08/21/2013  06:04:00       75.871       56.570       22.230       24.581       22.168       18.648      604.232      491.414      347.738        0.545        0.072       94.639       10.722        0.013      343.725       20.038      862.242
08/21/2013  06:05:00       60.402       42.102       19.667       27.547       17.018       18.539      758.858      289.608      343.691        0.360        0.070       73.627       13.077        0.032      343.715       20.020      862.238
08/21/2013  06:06:00       65.143       44.442       23.567       25.991       17.077       17.320      675.539      291.609      299.995        0.402        0.063       78.858        7.589        0.009      343.641       19.896      862.248
08/21/2013  06:07:00       66.093       43.491       23.989       23.812       22.866       18.421      567.032      522.838      339.334        0.413        0.071       79.118        7.395        0.009      343.699       19.994      862.257
08/21/2013  06:08:00       58.270       46.346       41.814       17.315       19.682       19.905      299.818      387.369      396.204        0.419        0.054       74.454        3.513        0.002      343.704       20.004      862.281
08/21/2013  06:09:00       98.263       69.408       32.641       19.141       20.573       23.563      366.377      423.254      555.231        0.844        0.067      120.304        7.693        0.004      343.789       20.149      862.298
08/21/2013  06:10:00       80.105       50.740       22.716       36.134       24.022       18.864     1305.665      577.080      355.866        0.587        0.112       94.823       14.575        0.024      343.832       20.221      862.305
08/21/2013  06:11:00       79.669       65.333       19.558       28.013       27.618       20.970      784.740      762.728      439.735        0.649        0.099      103.032       13.106        0.016      343.846       20.246      862.318
08/21/2013  06:12:00       84.897       51.836       26.098       32.195       27.639       27.692     1036.533      763.919      766.850        0.657        0.128       99.471       15.846        0.025      343.823       20.207      862.332
08/21/2013  06:13:00       37.565       22.636        4.653       28.239       22.901       25.234      797.445      524.440      636.740        0.195        0.098       43.858        7.127        0.026      343.708       20.009      862.363
08/21/2013  06:14:00      -10.791       -4.617        9.808       27.710       12.740       11.594      767.822      162.304      134.417        0.065        0.053       11.737       11.175        0.907      343.589       19.807      862.379
08/21/2013  06:15:00       12.429       15.145       10.829       24.888       18.725       11.506      619.413      350.613      132.393        0.080        0.055       19.592        5.483        0.078      343.600       19.825      862.383
08/21/2013  06:16:00      -75.599        0.191      -12.455       27.095        8.876        8.984      734.163       78.775       80.718        0.338        0.045       75.599        9.626        0.016      343.384       19.456      862.385
08/21/2013  06:17:00      -88.639      -10.161      -12.346        8.555        8.370        8.289       73.183       70.061       68.700        0.416        0.011       89.219        3.667        0.002      343.332       19.369      862.395
08/21/2013  06:18:00      -71.087      -22.438       -5.989       14.322       20.621        9.234      205.118      425.227       85.265        0.315        0.036       74.544        9.122        0.015      343.242       19.214      862.414
08/21/2013  06:19:00      -92.829        3.175      -11.139       27.554       20.646       11.157      759.243      426.250      124.477        0.503        0.065       92.883       10.725        0.013      343.214       19.168      862.401
08/21/2013  06:20:00      -71.710      -16.592       -7.195       17.440       18.820        8.020      304.154      354.200       64.328        0.310        0.036       73.605        4.725        0.004      343.337       19.376      862.420
08/21/2013  06:21:00      -67.128       -2.429       -9.236       10.531       15.964        9.022      110.895      254.859       81.391        0.252        0.022       67.172        7.582        0.013      343.352       19.403      862.445
08/21/2013  06:22:00      -67.641       21.431      -12.087       21.817        9.652        9.202      475.985       93.165       84.675        0.292        0.033       70.955        5.159        0.005      343.440       19.552      862.441
08/21/2013  06:23:00       36.054       47.868        6.053       27.689       16.292       14.217      766.699      265.415      202.131        0.243        0.062       59.927        8.570        0.020      343.764       20.105      862.435
08/21/2013  06:24:00       47.393       53.514       13.247       29.766       24.162       22.825      886.010      583.800      521.000        0.364        0.100       71.483       15.697        0.048      343.722       20.035      862.439
08/21/2013  06:25:00       59.845       40.706       21.756       21.561       27.479       24.149      464.879      755.088      583.192        0.376        0.090       72.377       12.281        0.029      343.774       20.123      862.458
08/21/2013  06:26:00       46.713       37.775       28.788       12.981       15.052       16.036      168.519      226.560      257.159        0.254        0.033       60.075        7.323        0.015      343.804       20.175      862.472
08/21/2013  06:27:00       51.096       44.225       16.524       12.922       13.497       17.917      166.984      182.175      321.002        0.275        0.034       67.577        7.097        0.011      343.804       20.174      862.456
08/21/2013  06:28:00       43.757       38.283       15.506       29.424       17.396       13.694      865.771      302.636      187.522        0.249        0.068       58.140       10.251        0.031      343.773       20.121      862.447
08/21/2013  06:29:00       72.566       42.443       26.546       24.794       19.398       20.912      614.731      376.276      437.295        0.460        0.071       84.067       13.835        0.027      343.821       20.203      862.453
08/21/2013  06:30:00       18.403        8.121       18.151       23.161       14.802       10.046      536.449      219.092      100.931        0.080        0.043       20.115        4.410        0.048      343.741       20.068      862.470
08/21/2013  06:31:00        9.512       -4.044       11.748       10.356       11.326        5.991      107.248      128.268       35.890        0.026        0.014       10.336        3.109        0.090      343.661       19.929      862.488
08/21/2013  06:32:00       -2.594        6.391       14.010        7.146       10.767        7.942       51.064      115.937       63.083        0.024        0.012        6.898        5.841        0.717      343.649       19.911      862.484
08/21/2013  06:33:00       12.194       26.305       36.056       25.425       18.134       11.211      646.419      328.843      125.684        0.162        0.055       28.994        9.891        0.116      343.681       19.963      862.473
08/21/2013  06:34:00       12.201        8.064       17.514       11.839       11.515       12.320      140.155      132.594      151.789        0.047        0.021       14.625        7.015        0.230      343.779       20.131      862.461
08/21/2013  06:35:00       28.222       25.802        8.740       30.064       15.759       13.225      903.829      248.356      174.902        0.143        0.066       38.240       15.810        0.171      343.794       20.158      862.453
08/21/2013  06:36:00       14.325       12.858        8.437       24.666       16.972       12.764      608.388      288.038      162.917        0.075        0.053       19.249        7.817        0.165      343.785       20.141      862.459
08/21/2013  06:37:00      -12.801      -23.133       -1.050       24.066       18.507       10.124      579.193      342.498      102.488        0.086        0.051       26.439        8.003        0.092      343.497       19.649      862.461
08/21/2013  06:38:00      -25.735      -15.119       -1.799       12.442       15.512       11.941      154.803      240.622      142.591        0.072        0.027       29.847        9.028        0.092      343.383       19.458      862.467
08/21/2013  06:39:00      -44.445      -14.804      -10.038        8.947       11.140        6.356       80.055      124.104       40.400        0.127        0.012       46.846        4.844        0.011      343.245       19.220      862.478
08/21/2013  06:40:00      -48.332       -6.298      -10.869        7.918       10.818        5.584       62.689      117.028       31.187        0.135        0.011       48.740        4.689        0.009      343.259       19.246      862.475
08/21/2013  06:41:00      -49.644       -9.597       -4.416       11.418       12.548        6.392      130.372      157.454       40.863        0.145        0.016       50.563        2.861        0.003      343.219       19.178      862.462
08/21/2013  06:42:00      -38.550      -16.843       -1.731       10.790       13.726        8.806      116.418      188.410       77.553        0.108        0.019       42.069        4.303        0.010      343.185       19.118      862.466
08/21/2013  06:43:00      -60.553        3.660       -2.424       17.366       16.335       15.687      301.561      266.839      246.079        0.225        0.041       60.664       11.750        0.038      343.209       19.160      862.485
08/21/2013  06:44:00      -63.462       19.653      -14.689       18.950       13.278        9.768      359.108      176.300       95.407        0.263        0.032       66.435        7.463        0.013      343.192       19.131      862.476
08/21/2013  06:45:00      -44.458       -0.396       -7.256       15.962       26.353       11.203      254.783      694.502      125.497        0.155        0.054       44.460       10.111        0.052      343.175       19.103      862.460
08/21/2013  06:46:00      -38.059       23.552      -10.812       17.228       18.638       10.543      296.818      347.359      111.154        0.144        0.038       44.757        6.842        0.023      343.220       19.178      862.453
08/21/2013  06:47:00      -27.542       16.156      -18.453       17.088       16.338       14.944      291.988      266.945      223.330        0.107        0.039       31.931       11.791        0.136      343.247       19.224      862.458
08/21/2013  06:48:00      -43.189        4.123      -18.129       11.643       16.174       11.184      135.568      261.606      125.086        0.137        0.026       43.385       10.643        0.060      343.197       19.140      862.457
08/21/2013  06:49:00      -31.101       -5.634       -7.657       15.061       13.495        9.646      226.839      182.126       93.037        0.078        0.025       31.607        4.656        0.022      343.266       19.258      862.464
08/21/2013  06:50:00      -45.539       -7.906      -14.872       15.683       16.398       11.277      245.945      268.894      127.178        0.150        0.032       46.221        3.819        0.007      343.299       19.312      862.480
08/21/2013  06:51:00      -49.836       -7.506      -17.003       11.743       16.732       11.108      137.907      279.954      123.380        0.169        0.027       50.399        6.956        0.019      343.294       19.302      862.474
08/21/2013  06:52:00      -42.708      -12.717      -11.940       10.948       10.433        8.095      119.860      108.852       65.528        0.121        0.015       44.561        4.493        0.010      343.284       19.288      862.466
08/21/2013  06:53:00      -28.296       13.196       -0.999       13.451       19.010        7.005      180.924      361.381       49.073        0.078        0.030       31.222        5.630        0.033      343.566       19.768      862.460
08/21/2013  06:54:00        2.895       61.787      -10.541       25.076       29.125       11.463      628.827      848.265      131.400        0.277        0.080       61.855       14.378        0.054      343.930       20.389      862.470
08/21/2013  06:55:00       12.062       68.339       -3.818       28.815       22.446       15.598      830.325      503.814      243.294        0.320        0.079       69.395       12.181        0.031      343.997       20.504      862.482
08/21/2013  06:56:00        6.021       37.033       -0.212       17.683       23.270       12.480      312.689      541.508      155.743        0.121        0.050       37.519        8.484        0.051      344.041       20.578      862.490
08/21/2013  06:57:00      -38.420      -19.045        0.597       19.699       13.797       14.231      388.033      190.371      202.526        0.131        0.039       42.882        8.732        0.041      343.714       20.020      862.503
08/21/2013  06:58:00      -61.584      -33.503       -5.813       18.502       11.471        8.924      342.310      131.586       79.640        0.275        0.028       70.107        8.044        0.013      343.399       19.484      862.496
08/21/2013  06:59:00      -45.235      -14.348       -5.151       13.504        9.170        8.500      182.345       84.087       72.244        0.131        0.017       47.457        6.366        0.018      343.371       19.435      862.494
08/21/2013  07:00:00      -56.743        6.490       -3.618       12.104       12.884        7.665      146.500      165.987       58.746        0.182        0.019       57.113        6.373        0.012      343.410       19.502      862.495
08/21/2013  07:01:00      -56.834       23.638       -2.268       21.944       11.567       13.621      481.522      133.794      185.520        0.230        0.040       61.554        5.068        0.007      343.427       19.529      862.482
08/21/2013  07:02:00      -35.202        2.440       14.749       23.652       29.466       14.719      559.426      868.268      216.657        0.155        0.082       35.287       12.422        0.124      343.922       20.375      862.483
08/21/2013  07:03:00      -56.335      -18.731       -5.541       10.196       15.206        6.629      103.957      231.220       43.938        0.197        0.019       59.367        5.474        0.009      343.623       19.864      862.511
08/21/2013  07:04:00      -70.264      -19.422       -4.304        9.261        6.549        4.505       85.771       42.889       20.299        0.274        0.007       72.899        1.930        0.001      343.589       19.808      862.503
08/21/2013  07:05:00      -48.758       -6.594       -2.976       14.649        9.351        7.588      214.597       87.436       57.572        0.139        0.018       49.202        7.993        0.026      343.582       19.794      862.488
08/21/2013  07:06:00      -19.994      -18.466        0.500       12.332       12.589        5.763      152.077      158.479       33.213        0.054        0.017       27.216        3.990        0.021      343.552       19.746      862.485
08/21/2013  07:07:00      -34.121      -24.976        4.111       28.937        9.262       10.427      837.340       85.794      108.729        0.142        0.052       42.286       11.752        0.077      343.665       19.937      862.510
08/21/2013  07:08:00      -78.964      -44.247       -4.164       36.078       22.028       12.619     1301.593      485.242      159.232        0.508        0.097       90.516       10.627        0.014      343.654       19.917      862.516
08/21/2013  07:09:00      -67.349      -70.203        6.503       38.755       42.570       22.001     1501.930     1812.225      484.051        0.665        0.190       97.285       21.525        0.049      343.604       19.833      862.522
08/21/2013  07:10:00      -63.751      -60.633       11.314       59.440       48.833       27.547     3533.085     2384.622      758.854        0.727        0.334       87.981       27.399        0.097      343.616       19.853      862.543
08/21/2013  07:11:00     -104.781      -58.066        2.584       54.985       46.724       31.934     3023.325     2183.174     1019.763        1.029        0.311      119.794       37.760        0.099      343.571       19.778      862.523
08/21/2013  07:12:00      -88.282      -80.720       -5.041       33.219       25.187       18.046     1103.498      634.375      325.649        0.820        0.103      119.622       15.336        0.016      343.574       19.780      862.514
08/21/2013  07:13:00      -53.308      -55.288        6.422       32.143       31.793       21.950     1033.202     1010.802      481.811        0.423        0.126       76.802       20.517        0.071      343.604       19.832      862.523
08/21/2013  07:14:00      -66.690      -62.072       -2.518       31.526       23.953       23.050      993.874      573.740      531.300        0.520        0.105       91.107       20.004        0.048      343.513       19.678      862.548
08/21/2013  07:15:00      -49.981      -63.128        6.110       36.006       32.655       23.742     1296.433     1066.319      563.691        0.472        0.146       80.518       24.976        0.096      343.474       19.613      862.558
08/21/2013  07:16:00      -51.268      -48.329        1.650       31.042       29.834       22.604      963.604      890.085      510.935        0.367        0.118       70.456       23.376        0.110      343.584       19.799      862.570
08/21/2013  07:17:00      -25.647      -40.148        0.449       24.293       15.497       16.124      590.130      240.162      259.970        0.168        0.055       47.640       14.902        0.098      343.589       19.806      862.561
08/21/2013  07:18:00      -10.452      -17.728        6.163       17.274       10.895       11.479      298.392      118.700      131.773        0.051        0.027       20.579        6.481        0.099      343.652       19.913      862.575
08/21/2013  07:19:00      -13.348      -26.539        3.856       10.969       17.075       10.848      120.328      291.559      117.671        0.071        0.026       29.707        9.752        0.108      343.620       19.860      862.589
08/21/2013  07:20:00        1.569      -16.652        9.080        7.438        8.191        5.793       55.325       67.099       33.558        0.026        0.008       16.726        2.038        0.015      343.626       19.869      862.597
08/21/2013  07:21:00        4.704        1.798        0.884        4.019       10.094        7.451       16.155      101.893       55.516        0.010        0.009        5.036        7.612        2.285      343.719       20.028      862.613
08/21/2013  07:22:00       22.519       33.024       19.610       20.133       11.797       14.761      405.351      139.163      217.889        0.137        0.038       39.971       15.148        0.144      343.787       20.145      862.616
08/21/2013  07:23:00       70.098       33.881        8.451       17.614       10.107       14.806      310.247      102.142      219.205        0.338        0.032       77.857        7.716        0.010      343.746       20.074      862.620
08/21/2013  07:24:00       71.742       38.048       11.346       14.165        7.569        9.738      200.636       57.289       94.837        0.354        0.018       81.207        5.976        0.005      343.794       20.155      862.614
08/21/2013  07:25:00       49.249       35.018       36.283       30.864       21.073       16.003      952.613      444.092      256.089        0.331        0.083       60.429       12.289        0.041      343.966       20.451      862.635
08/21/2013  07:26:00      -12.460       -3.991       15.023       13.478       13.428       18.636      181.658      180.300      347.310        0.055        0.035       13.083       14.232        1.183      344.149       20.764      862.644
08/21/2013  07:27:00      -47.362       -8.007       -1.357       30.004       25.190       19.614      900.244      634.527      384.728        0.211        0.096       48.034       11.561        0.058      343.788       20.146      862.652
08/21/2013  07:28:00       -5.992       -3.891        3.809        8.493        8.818       11.739       72.124       77.766      137.809        0.018        0.014        7.145        7.466        1.092      344.133       20.735      862.669
08/21/2013  07:29:00       -3.400      -11.638       10.987        9.193       10.891        9.038       84.505      118.619       81.682        0.028        0.014       12.125        6.497        0.287      344.125       20.722      862.667
08/21/2013  07:30:00        0.244        5.391       20.696       11.451        8.502        9.492      131.125       72.292       90.089        0.038        0.015        5.397        4.357        0.652      344.639       21.601      862.680
08/21/2013  07:31:00       21.663       25.137       32.831       20.407       17.780       16.268      416.439      316.131      264.660        0.159        0.050       33.184       11.813        0.127      344.288       21.002      862.676
08/21/2013  07:32:00       29.551       18.601       26.411       27.673       21.189       19.271      765.804      448.969      371.368        0.175        0.079       34.918       17.213        0.243      344.264       20.959      862.686
08/21/2013  07:33:00        1.889       40.172       44.449       15.958       24.022       14.533      254.645      577.041      211.197        0.232        0.052       40.216        8.832        0.048      344.354       21.112      862.695
08/21/2013  07:34:00       46.242       52.287       32.028       35.964       26.799       20.470     1293.384      718.185      419.011        0.416        0.122       69.801       18.590        0.071      344.271       20.971      862.686
08/21/2013  07:35:00       65.239       37.564       16.209       40.721       27.220       25.312     1658.235      740.936      640.688        0.448        0.152       75.281       15.089        0.040      344.299       21.019      862.696
08/21/2013  07:36:00       24.640       20.736       23.450       32.969       29.730       22.008     1086.986      883.884      484.333        0.202        0.123       32.204       15.832        0.242      344.516       21.390      862.694
08/21/2013  07:37:00       82.079       54.818       20.565       27.233       27.901       27.622      741.616      778.487      762.963        0.622        0.114       98.702       13.897        0.020      344.348       21.103      862.714
08/21/2013  07:38:00       59.158       43.311       35.117       41.747       32.496       26.507     1742.827     1055.969      702.633        0.505        0.175       73.318       22.404        0.093      344.488       21.342      862.714
08/21/2013  07:39:00       31.753       35.812       34.030       31.256       38.980       21.599      976.946     1519.405      466.496        0.321        0.148       47.862       17.338        0.131      344.507       21.376      862.722
08/21/2013  07:40:00       78.362       57.021       33.450       23.448       25.779       24.060      549.811      664.582      578.890        0.615        0.090       96.912        9.620        0.010      344.456       21.287      862.705
08/21/2013  07:41:00      120.487       71.507       23.179       31.150       22.878       25.387      970.341      523.393      644.524        1.115        0.107      140.109       14.567        0.011      344.313       21.043      862.703
08/21/2013  07:42:00      112.415       65.973        7.900       39.802       27.154       24.301     1584.166      737.316      590.526        0.998        0.146      130.344       19.428        0.022      344.385       21.167      862.711
08/21/2013  07:43:00      101.801       79.209       14.822       42.801       27.901       29.098     1831.943      778.442      846.678        1.016        0.173      128.987       26.808        0.043      344.457       21.289      862.710
08/21/2013  07:44:00      141.750       77.007       14.354       39.022       27.930       28.069     1522.738      780.109      787.842        1.466        0.155      161.317       19.012        0.014      344.486       21.341      862.726
08/21/2013  07:45:00      104.756       81.422       24.436       36.983       26.314       26.300     1367.709      692.402      691.712        1.048        0.138      132.678       22.149        0.028      344.550       21.448      862.732
08/21/2013  07:46:00       77.996       59.142       25.990       25.044       25.827       22.547      627.202      667.060      508.381        0.603        0.090       97.883       16.935        0.030      344.608       21.549      862.749
08/21/2013  07:47:00       74.920       50.658       21.186       34.862       29.960       28.746     1215.375      897.617      826.321        0.578        0.147       90.439       16.424        0.033      344.722       21.743      862.754
08/21/2013  07:48:00       90.272       53.893       24.025       37.047       23.630       31.498     1372.480      558.354      992.131        0.728        0.146      105.136        9.693        0.008      344.719       21.738      862.747
08/21/2013  07:49:00      103.295       71.639       32.968       46.711       42.369       32.909     2181.959     1795.116     1082.986        1.097        0.253      125.705       27.711        0.049      344.754       21.796      862.748
08/21/2013  07:50:00      149.834       93.331        9.238       38.970       30.999       29.848     1518.665      960.955      890.892        1.731        0.169      176.524       17.092        0.009      344.680       21.670      862.745
08/21/2013  07:51:00       99.967       58.463       18.091       33.751       39.354       27.347     1139.133     1548.725      747.855        0.859        0.172      115.807       16.876        0.021      344.716       21.733      862.758
08/21/2013  07:52:00       28.300       25.150       23.887       47.028       26.314       20.622     2211.595      692.406      425.287        0.267        0.166       37.861       21.543        0.324      345.096       22.383      862.779
08/21/2013  07:53:00       10.656       -9.261       15.584       23.352       25.905       27.838      545.336      671.061      774.973        0.122        0.100       14.118       13.178        0.871      345.166       22.502      862.780
08/21/2013  07:54:00       16.311      -40.285       25.021       33.796       67.668       32.371     1142.187     4579.007     1047.857        0.464        0.338       43.462       38.262        0.775      345.154       22.481      862.779
08/21/2013  07:55:00        9.200       13.885       33.008       32.484       42.898       24.725     1055.209     1840.274      611.331        0.244        0.175       16.656        9.810        0.347      345.204       22.567      862.784
08/21/2013  07:56:00        6.695      -25.731       35.215       26.822       45.640       32.775      719.395     2082.978     1074.212        0.291        0.194       26.588        4.756        0.032      345.262       22.666      862.787
08/21/2013  07:57:00       40.051      -53.469       10.789       38.734       61.707       38.881     1500.320     3807.720     1511.739        0.570        0.341       66.806       32.720        0.240      345.313       22.754      862.806
08/21/2013  07:58:00       32.508      -25.683       19.729       42.983       58.033       44.821     1847.537     3367.822     2008.888        0.466        0.361       41.429       46.594        1.265      345.302       22.736      862.810
08/21/2013  07:59:00       55.553      -87.007      -13.247       62.084       84.463       45.638     3854.379     7133.991     2082.828        1.195        0.654      103.230       53.673        0.270      345.088       22.370      862.802
08/21/2013  08:00:00       54.414      -67.685       -0.032       57.149       60.082       50.846     3266.054     3609.853     2585.314        0.850        0.473       86.846       45.809        0.278      345.033       22.274      862.815
08/21/2013  08:01:00      113.437     -127.208      -18.210       53.984       61.629       38.814     2914.318     3798.117     1506.537        1.880        0.411      170.440       39.624        0.054      344.850       21.958      862.821
08/21/2013  08:02:00        1.046       63.029       90.893       32.251       60.114       35.312     1040.098     3613.640     1246.941        0.907        0.295       63.037       38.655        0.376      345.259       22.662      862.811
08/21/2013  08:03:00       37.588       19.712       52.512       44.446       34.418       29.639     1975.417     1184.590      878.482        0.430        0.202       42.443       20.786        0.240      345.160       22.493      862.814
08/21/2013  08:04:00       12.540       37.409       47.453       29.418       30.241       22.645      865.410      914.532      512.802        0.305        0.115       39.455       11.542        0.086      345.152       22.478      862.803
08/21/2013  08:05:00       28.790       38.756       21.793       24.037       28.633       31.195      577.795      819.858      973.141        0.259        0.119       48.279       21.259        0.194      345.078       22.351      862.796
08/21/2013  08:06:00       13.474        1.101        6.052       26.029       21.145       21.898      677.518      447.126      479.532        0.091        0.080       13.519       11.950        0.781      345.097       22.385      862.789
08/21/2013  08:07:00       23.250       -1.523       15.629       30.447       30.504       22.759      927.046      930.506      517.966        0.158        0.119       23.300       13.457        0.334      345.408       22.917      862.783
08/21/2013  08:08:00       26.431        3.346       30.322       28.944       28.529       26.665      837.753      813.902      711.002        0.200        0.118       26.642       20.435        0.588      345.263       22.670      862.786
08/21/2013  08:09:00       22.629      -19.880       25.010       31.137       35.260       30.949      969.535     1243.286      957.865        0.235        0.159       30.121       22.998        0.583      345.288       22.711      862.789
08/21/2013  08:10:00        5.746      -11.188       40.933       23.624       36.832       21.819      558.073     1356.582      476.075        0.211        0.120       12.577       12.160        0.935      345.405       22.911      862.799
08/21/2013  08:11:00        5.279       12.510       38.147       18.689       24.557       22.671      349.261      603.060      513.991        0.155        0.073       13.578        6.618        0.238      345.564       23.184      862.807
08/21/2013  08:12:00        0.043        3.067       37.981       21.530       25.601       20.507      463.532      655.389      420.543        0.150        0.077        3.067       14.554       22.517      345.719       23.451      862.801
08/21/2013  08:13:00       -3.339        6.753       43.141       16.340       28.418       15.175      266.994      807.555      230.286        0.161        0.065        7.533       14.644        3.779      345.747       23.499      862.807
08/21/2013  08:14:00       17.359      -16.184       26.422       24.710       44.525       31.498      610.563     1982.450      992.109        0.242        0.179       23.733       32.341        1.857      345.436       22.966      862.829
08/21/2013  08:15:00        8.089        5.487       42.372       18.707       19.739       15.036      349.937      389.610      226.076        0.143        0.048        9.774       10.059        1.059      345.915       23.788      862.851
08/21/2013  08:16:00       -0.584       -5.457       31.625       12.230       10.853       11.809      149.570      117.791      139.460        0.072        0.020        5.488        6.383        1.353      346.159       24.206      862.853
08/21/2013  08:17:00       19.843      -12.977       29.511       16.907       16.525       13.627      285.839      273.070      185.693        0.109        0.037       23.709       10.588        0.199      345.732       23.473      862.848
08/21/2013  08:18:00       17.158      -19.309       18.875       21.519       28.996       22.658      463.054      840.779      513.403        0.142        0.091       25.831       21.438        0.689      345.646       23.325      862.845
08/21/2013  08:19:00      -23.546       -9.481       20.867       20.826       26.234       19.410      433.734      688.234      376.734        0.129        0.075       25.384       20.439        0.648      345.661       23.353      862.858
08/21/2013  08:20:00      -12.986        1.379       38.980       15.778       28.964       18.414      248.959      838.887      339.077        0.156        0.071       13.059       17.554        1.807      345.990       23.917      862.859
08/21/2013  08:21:00       21.758      -23.128       22.867       36.930       34.519       35.987     1363.803     1191.562     1295.055        0.269        0.193       31.754       33.800        1.133      345.827       23.635      862.858
08/21/2013  08:22:00       37.996      -24.260        5.199       38.293       56.972       35.522     1466.320     3245.832     1261.822        0.402        0.299       45.081       41.912        0.864      345.590       23.228      862.851
08/21/2013  08:23:00       12.478      -18.976       23.401       30.132       30.280       28.568      907.955      916.881      816.143        0.185        0.132       22.711       16.492        0.527      345.670       23.366      862.837
08/21/2013  08:24:00       44.520     -113.229      -10.265       45.185       55.509       35.919     2041.662     3081.244     1290.210        1.066        0.321      121.667       31.525        0.067      345.472       23.027      862.837
08/21/2013  08:25:00       78.028     -101.330      -22.101       47.858       33.896       33.396     2290.373     1148.968     1115.265        1.070        0.228      127.891       30.310        0.056      345.396       22.898      862.836
08/21/2013  08:26:00       25.073        5.092       34.161       35.660       36.243       34.700     1271.630     1313.580     1204.076        0.280        0.189       25.585       33.979        1.764      345.920       23.797      862.855
08/21/2013  08:27:00       30.869       -0.373       24.857       49.265       40.903       29.817     2427.033     1673.044      889.076        0.328        0.249       30.871       37.382        1.466      345.484       23.049      862.856
08/21/2013  08:28:00        3.874        0.103       34.910       27.957       40.531       22.489      781.616     1642.724      505.776        0.208        0.147        3.875       20.008       26.654      345.829       23.638      862.855
08/21/2013  08:29:00        8.568      -36.824       41.528       27.454       49.467       27.456      753.698     2446.953      753.807        0.355        0.198       37.807       25.119        0.441      345.750       23.504      862.857
08/21/2013  08:30:00       41.479       44.767       23.230       35.140       46.507       26.651     1234.816     2162.860      710.283        0.419        0.205       61.029       19.970        0.107      345.652       23.333      862.851
08/21/2013  08:31:00       27.573       26.095       44.938       42.988       47.780       25.142     1848.009     2282.906      632.126        0.411        0.238       37.963        9.786        0.066      345.627       23.291      862.852
08/21/2013  08:32:00        8.880       30.557       64.289       33.739       46.729       24.469     1138.316     2183.625      598.756        0.453        0.196       31.821       14.129        0.197      345.801       23.591      862.852
08/21/2013  08:33:00       57.559      -40.480       14.253       57.637       56.244       45.132     3322.079     3163.372     2036.910        0.684        0.426       70.368       41.534        0.348      345.587       23.225      862.859
08/21/2013  08:34:00       37.141       30.913       64.990       51.448       53.392       41.336     2646.879     2850.752     1708.643        0.688        0.360       48.322       30.955        0.410      345.860       23.692      862.873
08/21/2013  08:35:00       50.181      -38.710       24.065       53.954       87.835       48.858     2911.007     7715.074     2387.106        0.880        0.651       63.376       52.931        0.698      345.549       23.159      862.878
08/21/2013  08:36:00       37.263      -60.144       17.312       38.276       64.437       45.993     1465.083     4152.109     2115.324        0.652        0.387       70.751       45.524        0.414      345.702       23.420      862.879
08/21/2013  08:37:00       44.041      -44.474       15.954       37.019       57.173       47.584     1370.407     3268.722     2264.273        0.554        0.345       62.590       39.569        0.400      345.796       23.583      862.877
08/21/2013  08:38:00       56.888       54.004       59.815       60.796       44.276       31.452     3696.202     1960.407      989.210        0.819        0.332       78.439       23.810        0.092      345.685       23.391      862.866
08/21/2013  08:39:00      110.221       61.211       13.702       62.441       46.434       36.494     3898.833     2156.076     1331.818        1.173        0.369      126.077       26.759        0.045      345.534       23.133      862.872
08/21/2013  08:40:00       90.919       75.379       21.232       33.405       33.203       32.081     1115.883     1102.444     1029.159        0.882        0.162      118.103       15.724        0.018      345.462       23.010      862.866
08/21/2013  08:41:00       93.867       58.915       16.482       18.962       17.686       28.128      359.544      312.786      791.164        0.701        0.073      110.824       15.073        0.018      345.353       22.823      862.873
08/21/2013  08:42:00       94.968       64.953       19.852       28.610       23.298       21.514      818.515      542.790      462.845        0.773        0.091      115.055        5.457        0.002      345.317       22.761      862.858
08/21/2013  08:43:00      111.592       71.498        0.724       30.571       33.616       20.009      934.586     1130.003      400.361        1.001        0.123      132.532        9.171        0.005      345.323       22.769      862.860
08/21/2013  08:44:00       38.082       44.040       -0.676       32.062       23.755       30.667     1027.962      564.282      940.473        0.296        0.127       58.221       18.414        0.100      345.541       23.144      862.858
08/21/2013  08:45:00      -32.088       -1.599       -7.362       15.854       14.644       15.476      251.340      214.442      239.493        0.090        0.035       32.128       13.208        0.169      345.486       23.051      862.861
08/21/2013  08:46:00      -13.158       60.053       12.955       17.896       44.291       24.117      320.271     1961.700      581.628        0.340        0.143       61.478       26.852        0.191      346.109       24.121      862.852
08/21/2013  08:47:00      -16.971       69.318        5.450       27.193       37.954       27.527      739.432     1440.498      757.748        0.403        0.147       71.365       20.973        0.086      346.087       24.084      862.839
08/21/2013  08:48:00      -26.537      114.255        6.617       21.779       44.691       26.655      474.342     1997.261      710.474        0.849        0.159      117.296       22.061        0.035      345.921       23.797      862.830
08/21/2013  08:49:00       -9.126      100.652        2.772       20.722       46.644       26.434      429.400     2175.645      698.777        0.676        0.165      101.064       29.784        0.087      345.985       23.908      862.845
08/21/2013  08:50:00       14.213       30.442       17.304       25.484       32.872       28.287      649.426     1080.569      800.176        0.198        0.127       33.596       21.949        0.427      346.408       24.635      862.844
08/21/2013  08:51:00       -4.782       49.024       13.281       30.688       44.715       23.192      941.736     1999.435      537.846        0.304        0.174       49.257       29.088        0.349      346.102       24.110      862.828
08/21/2013  08:52:00      -14.486       28.379       10.014       23.288       34.570       27.460      542.318     1195.102      754.079        0.180        0.125       31.862       27.273        0.733      346.250       24.362      862.820
08/21/2013  08:53:00      -15.574       96.211       -5.628       33.937       53.156       30.205     1151.746     2825.575      912.323        0.721        0.244       97.463       34.197        0.123      345.875       23.719      862.816
08/21/2013  08:54:00        4.207      121.650       -7.871       35.177       39.013       29.662     1237.449     1522.046      879.811        0.926        0.182      121.723       25.667        0.044      345.985       23.908      862.834
08/21/2013  08:55:00      122.065       58.572        7.475       73.784       57.195       43.698     5444.134     3271.274     1909.537        1.450        0.531      135.391       34.918        0.067      345.975       23.890      862.838
08/21/2013  08:56:00       54.113       96.105       -5.741       34.862       49.055       35.608     1215.356     2406.362     1267.965        0.854        0.244      110.292       35.527        0.104      345.903       23.766      862.835
08/21/2013  08:57:00       30.427      120.519       -9.389       38.516       46.783       33.858     1483.502     2188.642     1146.373        1.018        0.241      124.301       22.392        0.032      346.068       24.050      862.820
08/21/2013  08:58:00       31.833      149.730      -11.307       38.123       60.580       37.260     1453.378     3669.954     1388.286        1.503        0.326      153.076       40.303        0.069      345.919       23.793      862.824
08/21/2013  08:59:00       -0.534      121.449       -1.986       52.999       68.681       48.879     2808.913     4717.086     2389.158        1.233        0.496      121.451       46.047        0.144      346.195       24.268      862.833
08/21/2013  09:00:00       88.165       74.953       -4.554       52.700       52.857       40.451     2777.246     2793.820     1636.292        1.031        0.360      115.720       37.451        0.105      346.008       23.945      862.836
08/21/2013  09:01:00       67.013       76.076        6.330       55.321       45.896       29.424     3060.381     2106.441      865.766        0.817        0.302      101.382       26.453        0.068      346.032       23.988      862.856
08/21/2013  09:02:00       75.531       50.385       10.301       28.917       18.955       21.988      836.212      359.278      483.463        0.501        0.084       90.794       11.021        0.015      345.917       23.792      862.857
08/21/2013  09:03:00       38.584       83.742        2.267       32.886       44.738       33.915     1081.521     2001.445     1150.213        0.637        0.212       92.203       29.396        0.102      346.039       24.001      862.853
08/21/2013  09:04:00       18.085       53.469       11.366       23.509       41.384       26.555      552.685     1712.619      705.148        0.314        0.149       56.445       21.087        0.140      346.321       24.484      862.848
08/21/2013  09:05:00       18.103       39.621       15.895       24.473       29.648       22.412      598.931      878.994      502.276        0.206        0.099       43.561        9.800        0.051      346.423       24.660      862.839
08/21/2013  09:06:00       45.287       26.287        4.201       29.598       30.752       25.512      876.056      945.697      650.866        0.262        0.124       52.363       19.252        0.135      346.298       24.445      862.856
08/21/2013  09:07:00       41.059       25.694       11.370       26.887       25.041       20.430      722.896      627.055      417.401        0.212        0.088       48.436       13.047        0.073      346.379       24.584      862.861
08/21/2013  09:08:00       54.268       55.321        3.761       29.306       32.844       27.579      858.840     1078.738      760.581        0.436        0.135       77.494       16.511        0.045      346.028       23.980      862.857
08/21/2013  09:09:00       31.305       36.785        3.487       20.001       18.227       23.771      400.038      332.208      565.039        0.182        0.065       48.303        8.934        0.034      345.946       23.840      862.857
08/21/2013  09:10:00       67.003       53.860       23.930       53.353       37.523       32.199     2846.533     1407.940     1036.759        0.663        0.265       85.966       16.520        0.037      346.171       24.228      862.849
08/21/2013  09:11:00       91.981       65.336       10.914       32.150       21.937       28.927     1033.631      481.242      836.760        0.760        0.118      112.825       23.011        0.042      345.819       23.623      862.854
08/21/2013  09:12:00       35.871       32.563        1.147       15.848       12.076       15.429      251.170      145.832      238.048        0.149        0.032       48.447       10.461        0.047      345.991       23.916      862.838
08/21/2013  09:13:00       30.009       45.416        9.799       32.779       29.576       27.617     1074.462      874.757      762.710        0.289        0.136       54.435       21.752        0.160      346.606       24.974      862.835
08/21/2013  09:14:00       17.538       37.472        0.167       22.409       30.523       21.490      502.177      931.674      461.807        0.180        0.095       41.373       21.972        0.282      346.619       24.997      862.827
08/21/2013  09:15:00       -3.098       32.239       18.117       17.301       54.734       23.324      299.310     2995.842      543.991        0.261        0.192       32.388       23.813        0.541      347.148       25.908      862.823
08/21/2013  09:16:00        1.943        1.766       25.810       29.383       21.581       15.551      863.383      465.724      241.835        0.112        0.079        2.625       14.041       28.600      347.164       25.935      862.817
08/21/2013  09:17:00      -44.370        8.363        4.371       25.285       16.694       17.056      639.342      278.695      290.891        0.163        0.060       45.151       10.938        0.059      346.491       24.777      862.813
08/21/2013  09:18:00      -71.890       34.322        8.529       47.278       17.856       19.233     2235.220      318.828      369.922        0.467        0.146       79.663       24.607        0.095      346.282       24.419      862.807
08/21/2013  09:19:00     -103.773       21.907       -9.019       38.880       54.949       16.562     1511.676     3019.428      274.285        0.807        0.240      106.060       10.982        0.011      346.005       23.942      862.811
08/21/2013  09:20:00      -32.975      -32.465       10.815       43.834       33.312       30.467     1921.379     1109.716      928.263        0.311        0.198       46.274       31.867        0.474      346.629       25.015      862.796
08/21/2013  09:21:00       -9.861       -5.432       20.300       38.558       42.531       33.809     1486.714     1808.922     1143.050        0.249        0.222       11.258       29.716        6.967      346.761       25.242      862.785
08/21/2013  09:22:00     -120.621      -28.345      -12.871       32.176       32.030       13.846     1035.326     1025.907      191.712        0.889        0.113      123.907        9.452        0.006      345.954       23.854      862.786
08/21/2013  09:23:00      -51.324      -36.334        0.579       17.920       21.728       15.822      321.122      472.091      250.338        0.250        0.052       62.883        6.841        0.012      346.073       24.060      862.781
08/21/2013  09:24:00      -63.263      -18.573       -6.146       19.859       15.475       11.335      394.371      239.484      128.481        0.257        0.038       65.933        5.408        0.007      346.062       24.040      862.784
08/21/2013  09:25:00      -50.195      -11.133       -8.353       29.911       22.618       14.075      894.653      511.585      198.110        0.216        0.080       51.415        9.201        0.032      346.095       24.095      862.782
08/21/2013  09:26:00      -67.561      -30.919        3.502       27.828       31.144       16.062      774.420      969.941      257.999        0.377        0.100       74.299       11.920        0.026      346.208       24.290      862.780
08/21/2013  09:27:00      -76.675       34.455       -2.878       11.742       18.538       11.101      137.869      343.664      123.235        0.384        0.030       84.061        9.569        0.013      346.066       24.043      862.793
08/21/2013  09:28:00      -72.454       24.165       -2.160       23.255       23.082       16.517      540.793      532.765      272.823        0.359        0.067       76.378       11.979        0.025      346.131       24.157      862.787
08/21/2013  09:29:00      -75.066       30.209        1.631       21.286       12.979       14.696      453.098      168.463      215.978        0.369        0.042       80.916       13.427        0.028      346.133       24.160      862.777
08/21/2013  09:30:00      -33.146       13.178        3.682       17.858       13.378       15.066      318.908      178.961      226.997        0.101        0.036       35.670       12.473        0.122      346.416       24.648      862.775
08/21/2013  09:31:00      -39.262       16.435       -3.028       15.715       13.598       16.536      246.975      184.902      273.452        0.126        0.035       42.563       10.902        0.066      346.427       24.666      862.769
08/21/2013  09:32:00       20.361        7.756       30.615       23.319       14.869       15.353      543.795      221.102      235.714        0.121        0.050       21.788        9.653        0.196      347.506       26.525      862.752
08/21/2013  09:33:00       39.744       17.689       43.948       28.924       13.808       20.526      836.607      190.655      421.319        0.264        0.072       43.502        9.084        0.044      347.087       25.803      862.746
08/21/2013  09:34:00       40.478       21.107        6.183       19.319       21.873       20.716      373.241      478.410      429.169        0.170        0.064       45.651        5.868        0.017      346.616       24.992      862.739
08/21/2013  09:35:00       26.977       10.137       10.621       33.956       37.446       20.175     1152.997     1402.191      407.015        0.195        0.148       28.818       16.530        0.329      347.177       25.958      862.732
08/21/2013  09:36:00       51.139       39.174        7.726       30.388       26.062       21.245      923.417      679.215      451.337        0.313        0.103       64.419       14.060        0.048      346.893       25.469      862.731
08/21/2013  09:37:00       27.171       39.216       11.736       32.807       27.615       25.647     1076.276      762.613      657.793        0.245        0.125       47.709       15.855        0.110      346.899       25.479      862.726
08/21/2013  09:38:00       69.351       55.798       40.582       55.601       36.736       35.741     3091.481     1349.532     1277.437        0.764        0.286       89.011       23.462        0.069      346.899       25.481      862.721
08/21/2013  09:39:00      101.111       91.691        3.534       54.099       41.628       37.595     2926.706     1732.867     1413.348        1.236        0.304      136.494       21.470        0.025      346.739       25.202      862.720
08/21/2013  09:40:00       47.747      103.385        0.920       42.761       36.927       37.075     1828.463     1363.576     1374.563        0.877        0.228      113.878       28.086        0.061      346.852       25.398      862.715
08/21/2013  09:41:00       37.108       44.062       28.781       47.469       36.439       28.865     2253.313     1327.772      833.200        0.428        0.221       57.606       23.038        0.160      347.092       25.811      862.713
08/21/2013  09:42:00       10.520       44.584        8.139       26.297       29.910       32.314      691.526      894.592     1044.195        0.240        0.132       45.808       20.670        0.204      347.063       25.762      862.710
08/21/2013  09:43:00       13.433       14.107       36.195       18.516       14.673       14.414      342.828      215.285      207.770        0.123        0.038       19.480        6.649        0.117      347.540       26.583      862.707
08/21/2013  09:44:00       59.270       56.233       18.539       48.385       36.429       27.676     2341.143     1327.085      765.954        0.573        0.222       81.701       20.757        0.065      347.066       25.768      862.694
08/21/2013  09:45:00       90.870       58.351       11.648       39.435       32.696       26.417     1555.092     1068.996      697.850        0.756        0.166      107.992       15.273        0.020      347.090       25.809      862.690
08/21/2013  09:46:00       98.910       58.118        5.921       31.917       24.847       30.918     1018.718      617.377      955.895        0.789        0.130      114.721        6.408        0.003      346.827       25.356      862.697
08/21/2013  09:47:00       59.917       88.112       88.228       51.766       38.296       40.025     2679.700     1466.552     1602.021        1.244        0.287      106.554       16.028        0.023      346.862       25.414      862.705
08/21/2013  09:48:00       -4.344       24.691       24.589       49.969       60.833       47.463     2496.875     3700.630     2252.780        0.484        0.423       25.070       43.491        3.009      346.744       25.211      862.709
08/21/2013  09:49:00       11.474      -23.784       32.740       28.254       56.336       26.694      798.277     3173.794      712.585        0.323        0.234       26.407       22.183        0.706      346.976       25.611      862.715
08/21/2013  09:50:00       19.581       60.019       16.790       24.494       33.386       38.962      599.967     1114.644     1518.058        0.375        0.162       63.132       15.163        0.058      346.916       25.508      862.710
08/21/2013  09:51:00       58.534      -13.953        4.880       54.169       51.708       36.049     2934.296     2673.696     1299.542        0.527        0.345       60.174       35.600        0.350      346.868       25.426      862.717
08/21/2013  09:52:00       61.830      -57.831       16.534       42.349       46.793       41.141     1793.421     2189.600     1692.611        0.656        0.284       84.661       31.162        0.135      346.738       25.202      862.716
08/21/2013  09:53:00       26.765      -17.649       19.482       42.406       35.920       33.207     1798.256     1290.235     1102.684        0.280        0.210       32.060       35.280        1.211      347.241       26.069      862.709
08/21/2013  09:54:00        4.422       26.151       20.611       35.199       29.262       32.272     1238.972      856.287     1041.475        0.213        0.157       26.522       19.645        0.549      347.489       26.496      862.695
08/21/2013  09:55:00       50.967       49.781       42.992       29.328       34.158       28.453      860.116     1166.741      809.550        0.488        0.142       71.245       16.286        0.052      347.276       26.127      862.687
08/21/2013  09:56:00       51.243       51.299       25.688       43.629       27.052       26.989     1903.490      731.836      728.406        0.464        0.168       72.508       20.410        0.079      347.389       26.323      862.693
08/21/2013  09:57:00       87.596       55.609       11.894       52.154       42.805       34.430     2720.068     1832.305     1185.410        0.832        0.287      103.756       21.584        0.043      347.298       26.166      862.692
08/21/2013  09:58:00       85.430       60.679        6.072       48.738       45.623       38.167     2375.401     2081.437     1456.725        0.846        0.296      104.786       16.686        0.025      347.390       26.325      862.692
08/21/2013  09:59:00      108.701       95.574       19.779       55.594       45.042       36.091     3090.709     2028.810     1302.533        1.388        0.321      144.742       23.566        0.027      347.251       26.085      862.693
08/21/2013  10:00:00      113.989       88.169        4.945       19.937       24.909       25.054      397.500      620.443      627.706        1.122        0.082      144.109       15.495        0.012      346.859       25.410      862.689
08/21/2013  10:01:00       80.343       54.797       -5.541       23.166       18.146       20.435      536.671      329.268      417.604        0.539        0.064       97.251        8.485        0.008      346.964       25.592      862.685
08/21/2013  10:02:00        5.917      -40.768       -4.110       20.630       55.362       19.846      425.611     3065.005      393.875        0.280        0.194       41.196       19.434        0.223      346.958       25.582      862.676
08/21/2013  10:03:00       -1.200       11.706       31.954       27.988       47.422       23.679      783.343     2248.875      560.704        0.238        0.180       11.768       19.894        2.858      347.858       27.133      862.672
08/21/2013  10:04:00       23.927       30.875       21.088       23.058       26.112       31.056      531.653      681.831      964.486        0.207        0.109       39.061       22.180        0.322      348.002       27.380      862.677
08/21/2013  10:05:00        7.042       47.180        1.908       29.629       25.654       24.257      877.904      658.127      588.423        0.220        0.106       47.702        8.189        0.029      347.633       26.744      862.673
08/21/2013  10:06:00       40.287       43.916        3.390       28.365       38.441       39.987      804.588     1477.720     1598.947        0.372        0.194       59.596       21.699        0.133      347.606       26.698      862.657
08/21/2013  10:07:00       80.427       56.600       26.434       52.525       37.929       40.336     2758.867     1438.621     1627.022        0.810        0.291       98.347       14.840        0.023      347.544       26.590      862.646
08/21/2013  10:08:00       27.063       17.595       32.472       37.883       81.809       45.895     1435.131     6692.749     2106.390        0.616        0.512       32.280       25.682        0.633      347.643       26.760      862.626
08/21/2013  10:09:00       33.743       24.485       38.388       49.578       75.395       42.377     2458.004     5684.406     1795.821        0.657        0.497       41.691       19.056        0.209      347.511       26.533      862.644
08/21/2013  10:10:00       34.608      -31.182       30.291       50.884       69.340       35.002     2589.183     4808.007     1225.111        0.585        0.431       46.584       35.129        0.569      347.374       26.297      862.645
08/21/2013  10:11:00       42.207       44.046       24.689       68.223       48.495       38.947     4654.365     2351.725     1516.902        0.643        0.426       61.004       19.574        0.103      347.693       26.848      862.653
08/21/2013  10:12:00       71.271       52.311       15.839       44.821       45.438       43.778     2008.919     2064.647     1916.526        0.703        0.300       88.408       30.276        0.117      347.823       27.071      862.663
08/21/2013  10:13:00       61.855       78.092       18.978       44.598       31.341       42.119     1989.025      982.269     1773.986        0.751        0.237       99.621       33.865        0.116      347.486       26.489      862.690
08/21/2013  10:14:00       21.095       -7.324       26.946       28.454       40.149       21.581      809.630     1611.961      465.754        0.206        0.144       22.331       12.386        0.308      347.483       26.486      862.687
08/21/2013  10:15:00       42.829      -44.909        5.162       49.142       44.841       27.702     2414.973     2010.678      767.391        0.453        0.260       62.058       31.274        0.254      347.499       26.513      862.686
08/21/2013  10:16:00       29.953      -23.821       29.605       39.045       37.940       33.724     1524.496     1439.477     1137.313        0.322        0.205       38.270       19.686        0.265      347.808       27.047      862.676
08/21/2013  10:17:00       39.498      -29.355       34.182       54.975       46.093       32.614     3022.268     2124.552     1063.681        0.490        0.311       49.211       30.056        0.373      347.941       27.276      862.667
08/21/2013  10:18:00        6.752      -52.249       18.596       39.234       46.575       31.219     1539.340     2169.243      974.651        0.390        0.234       52.683       31.220        0.351      347.760       26.963      862.656
08/21/2013  10:19:00        0.335        5.639       52.039       21.559       61.827       40.774      464.797     3822.638     1662.519        0.434        0.297        5.649       42.104       55.553      348.153       27.640      862.651
08/21/2013  10:20:00       -5.865       23.826       -4.400       30.910       41.325       26.989      955.433     1707.718      728.423        0.201        0.170       24.537       19.825        0.653      348.072       27.501      862.643
08/21/2013  10:21:00       -6.244       -1.787       21.563       24.459       28.149       26.224      598.227      792.361      687.700        0.129        0.104        6.495       14.910        5.270      348.055       27.473      862.643
08/21/2013  10:22:00       88.835       47.358       15.604       57.332       38.184       37.275     3287.006     1458.009     1389.422        0.826        0.307      100.670       14.027        0.019      347.737       26.923      862.631
08/21/2013  10:23:00       86.464       65.604       18.557       36.373       32.247       31.077     1323.030     1039.861      965.811        0.773        0.166      108.535       17.418        0.026      347.562       26.622      862.616
08/21/2013  10:24:00       43.162        8.799       20.006       49.252       49.458       38.091     2425.746     2446.104     1450.930        0.433        0.316       44.050       22.058        0.251      347.933       27.262      862.620
08/21/2013  10:25:00       11.401      -78.359        7.811       41.040       79.130       38.054     1684.266     6261.576     1448.111        0.786        0.470       79.184       47.126        0.354      347.792       27.020      862.610
08/21/2013  10:26:00       64.129     -129.593        3.106       55.091       58.489       34.437     3035.008     3420.916     1185.877        1.428        0.382      144.592       36.663        0.064      347.870       27.153      862.604
08/21/2013  10:27:00       44.112       28.366       36.908       58.676       46.204       36.726     3442.901     2134.821     1348.812        0.552        0.346       52.445       13.258        0.064      348.505       28.252      862.596
08/21/2013  10:28:00      126.003       71.910       35.416       92.355       65.161       58.839     8529.364     4245.942     3461.989        1.927        0.812      145.079       37.112        0.065      348.095       27.540      862.575
08/21/2013  10:29:00       59.889       21.774       12.077       73.275       58.679       42.053     5369.271     3443.191     1768.455        0.739        0.529       63.724       19.495        0.094      348.129       27.600      862.559
08/21/2013  10:30:00       61.402      -94.472       19.019       57.854       89.290       56.218     3347.065     7972.672     3160.494        1.377        0.724      112.673       54.511        0.234      348.112       27.571      862.549
08/21/2013  10:31:00       89.219      -90.588       20.441       80.933      138.434       65.928     6550.211    19164.063     4346.504        2.332        1.503      127.147       68.323        0.289      348.153       27.640      862.533
08/21/2013  10:32:00       58.511       24.172       71.403       67.335      100.999       67.875     4534.029    10200.800     4607.006        1.422        0.967       63.308       58.767        0.862      348.078       27.510      862.539
08/21/2013  10:33:00       35.100       54.231        1.568       51.502       40.886       32.253     2652.450     1671.667     1040.267        0.477        0.268       64.599       26.331        0.166      348.084       27.524      862.536
08/21/2013  10:34:00        6.815        0.584       27.085       40.409       53.387       28.304     1632.874     2850.123      801.106        0.303        0.264        6.840       20.404        8.898      348.542       28.315      862.523
08/21/2013  10:35:00       11.871      -18.708       15.786       36.284       55.965       26.142     1316.527     3132.036      683.407        0.294        0.257       22.156       26.314        1.411      347.975       27.334      862.497
08/21/2013  10:36:00       33.551      -45.855       25.935       26.229       47.002       31.622      687.979     2209.155      999.926        0.390        0.195       56.818       26.454        0.217      347.966       27.320      862.483
08/21/2013  10:37:00       -8.600      -10.686       22.411       32.391       34.907       27.494     1049.195     1218.475      755.938        0.186        0.151       13.717       23.268        2.878      348.433       28.126      862.463
08/21/2013  10:38:00      -50.998      -53.485        2.711       20.437       24.069       19.050      417.662      579.309      362.904        0.341        0.068       73.902       11.340        0.024      347.676       26.818      862.448
08/21/2013  10:39:00      -16.588      -13.092      -16.372       31.390       34.398       16.205      985.341     1183.233      262.603        0.157        0.122       21.132       13.279        0.395      347.998       27.375      862.423
08/21/2013  10:40:00       -3.011       12.921        1.452       34.822       34.957       27.466     1212.584     1221.990      754.376        0.168        0.159       13.267       16.925        1.628      348.233       27.780      862.413
08/21/2013  10:41:00        4.885       -5.103       29.396       30.586       44.843       30.381      935.476     2010.881      923.006        0.239        0.193        7.064       32.582       21.271      348.481       28.210      862.426
08/21/2013  10:42:00       73.438       19.647        1.788       72.132       60.089       44.095     5202.983     3610.661     1944.363        0.827        0.538       76.020       28.763        0.143      348.017       27.407      862.422
08/21/2013  10:43:00       47.411       57.422        6.478       41.548       49.870       39.344     1726.219     2487.050     1547.955        0.567        0.288       74.465       26.538        0.127      348.275       27.851      862.397
08/21/2013  10:44:00        1.995       34.384       58.347       25.981       48.083       36.780      675.034     2311.945     1352.762        0.446        0.217       34.442       32.535        0.892      348.632       28.470      862.406
08/21/2013  10:45:00       17.445        3.307       31.428       33.659       47.567       33.472     1132.901     2262.598     1120.350        0.291        0.226       17.755       21.292        1.438      348.445       28.145      862.405
08/21/2013  10:46:00      -37.645       -4.197        6.690       35.362       37.803       32.338     1250.458     1429.056     1045.752        0.260        0.186       37.878       29.080        0.589      348.634       28.473      862.412
08/21/2013  10:47:00       15.586      -84.176        8.677       42.251       77.493       40.262     1785.141     6005.165     1620.993        0.841        0.471       85.606       40.203        0.221      348.606       28.425      862.422
08/21/2013  10:48:00      -11.856      -14.524       16.680       27.141       31.751       29.966      736.659     1008.130      897.948        0.164        0.132       18.749        7.350        0.154      348.561       28.346      862.416
08/21/2013  10:49:00       18.058      -59.188       13.937       37.296       76.706       38.343     1391.028     5883.863     1470.174        0.638        0.437       61.881       36.922        0.356      348.662       28.523      862.412
08/21/2013  10:50:00       -4.483     -107.459       -2.468       58.913       55.955       35.411     3470.774     3130.935     1253.934        0.971        0.393      107.552       19.588        0.033      347.993       27.365      862.402
08/21/2013  10:51:00      -65.860      -56.177        4.755       33.022       42.361       23.237     1090.480     1794.454      539.961        0.547        0.171       86.565       16.445        0.036      347.899       27.202      862.394
08/21/2013  10:52:00     -122.370      -18.402       -6.628       35.453       37.435       24.084     1256.946     1401.351      580.040        0.930        0.162      123.746       16.895        0.019      347.907       27.216      862.379
08/21/2013  10:53:00      -22.635      -10.831        9.764       32.482       23.212       24.193     1055.060      538.814      585.283        0.145        0.109       25.093       18.676        0.554      348.610       28.432      862.374
08/21/2013  10:54:00       -2.464        2.169       17.072       19.285       29.946       17.273      371.901      896.753      298.345        0.093        0.078        3.283       14.255       18.854      348.772       28.712      862.374
08/21/2013  10:55:00       70.178       70.633       10.476       94.189       53.892       39.499     8871.500     2904.387     1560.168        1.168        0.667       99.569       23.407        0.055      348.505       28.250      862.367
08/21/2013  10:56:00      165.240      119.939        7.908       58.316       59.203       44.169     3400.772     3505.029     1950.933        2.530        0.443      204.180       22.141        0.012      348.110       27.564      862.381
08/21/2013  10:57:00      117.201      109.473       19.249       31.810       36.017       33.995     1011.886     1297.199     1155.650        1.478        0.173      160.376       12.880        0.006      347.913       27.227      862.396
08/21/2013  10:58:00       30.793       61.757        7.135       43.260       41.482       31.810     1871.429     1720.789     1011.847        0.471        0.230       69.008       27.318        0.157      348.211       27.742      862.399
08/21/2013  10:59:00       61.718       66.666       10.332       59.328       39.938       30.460     3519.777     1595.040      927.810        0.720        0.302       90.848       18.087        0.040      348.470       28.190      862.397
08/21/2013  11:00:00       58.433       48.668       30.979       44.087       48.783       36.010     1943.652     2379.767     1296.701        0.618        0.281       76.046       22.646        0.089      348.681       28.555      862.401
08/21/2013  11:01:00       67.084       53.390       56.390       71.850       59.421       58.335     5162.413     3530.886     3403.016        1.131        0.605       85.737       41.489        0.234      348.424       28.110      862.400
08/21/2013  11:02:00      144.990       99.623       26.863       63.685       43.054       50.173     4055.778     1853.644     2517.372        2.005        0.421      175.917       25.344        0.021      348.172       27.672      862.378
08/21/2013  11:03:00      217.902      143.600        5.747       95.779       58.728       55.422     9173.681     3448.944     3071.555        4.191        0.785      260.964       38.374        0.022      348.338       27.958      862.372
08/21/2013  11:04:00      250.264      146.417       52.912      108.780       93.223       86.082    11833.048     8690.545     7410.114        5.740        1.397      289.948       60.791        0.044      348.186       27.695      862.344
08/21/2013  11:05:00      231.673      -83.613       34.621      140.536      166.539       92.043    19750.466    27735.325     8471.881        5.890        2.798      246.300      105.947        0.185      347.982       27.342      862.344
08/21/2013  11:06:00      125.080      -37.986       71.274      111.586      107.516       78.753    12451.382    11559.715     6201.973        2.619        1.511      130.721       83.854        0.411      348.512       28.262      862.346
08/21/2013  11:07:00       65.387       50.964      102.449       82.650       78.636       62.201     6831.034     6183.624     3868.965        1.712        0.844       82.902       55.287        0.445      348.538       28.308      862.370
08/21/2013  11:08:00      181.025     -190.552        3.545      125.860      145.638       80.961    15840.695    21210.416     6554.636        5.634        2.180      262.832       95.865        0.133      348.265       27.832      862.343
08/21/2013  11:09:00      123.333       11.731       74.904       89.663      141.535       99.832     8039.376    20032.079     9966.478        2.949        1.902      123.889      115.797        0.874      348.177       27.681      862.359
08/21/2013  11:10:00       38.674      -29.436       24.291       52.430       53.447       35.828     2748.920     2856.585     1283.632        0.492        0.344       48.602       38.393        0.624      348.580       28.378      862.354
08/21/2013  11:11:00        8.460      -82.099        6.588       49.345       64.073       58.684     2434.933     4105.369     3443.857        0.842        0.499       82.534       36.515        0.196      348.750       28.674      862.340
08/21/2013  11:12:00       -9.679      -29.746       30.898       26.983       65.870       29.856      728.057     4338.885      891.385        0.394        0.298       31.281       19.450        0.387      349.093       29.268      862.340
08/21/2013  11:13:00       16.986        9.672       39.395       27.756       69.239       48.958      770.372     4793.981     2396.878        0.495        0.398       19.546       52.457        7.202      348.523       28.281      862.340
08/21/2013  11:14:00       55.073       51.918       32.946       46.473       69.680       55.860     2159.703     4855.329     3120.385        0.847        0.507       75.686       30.285        0.160      348.416       28.096      862.324
08/21/2013  11:15:00      112.748      118.777       28.412       79.436       72.023       61.027     6310.088     5187.283     3724.307        2.142        0.761      163.768       42.834        0.068      348.654       28.506      862.331
08/21/2013  11:16:00      109.976      109.419       21.992       92.058       70.422       57.511     8474.638     4959.290     3307.460        2.064        0.837      155.136       36.457        0.055      348.650       28.500      862.324
08/21/2013  11:17:00       33.176      281.068      -27.793       66.814      135.812       72.100     4464.108    18444.976     5198.396        5.449        1.405      283.019       78.930        0.078      348.391       28.050      862.307
08/21/2013  11:18:00       80.620       76.394       38.571       66.123       68.970       56.757     4372.190     4756.857     3221.323        1.308        0.618      111.065       19.411        0.031      348.994       29.096      862.313
08/21/2013  11:19:00       56.030       53.791       22.882       48.804       57.215       45.499     2381.795     3273.529     2070.140        0.714        0.386       77.671       33.199        0.183      348.753       28.680      862.313
08/21/2013  11:20:00      159.992       97.113       49.921      104.146       89.039       67.566    10846.359     7927.914     4565.098        3.043        1.167      187.159       44.803        0.057      348.797       28.754      862.304
08/21/2013  11:21:00      188.165      133.562       27.944       78.068       55.394       53.527     6094.617     3068.503     2865.185        3.303        0.601      230.749       31.308        0.018      348.280       27.857      862.323
08/21/2013  11:22:00      190.168      142.366       21.547      102.594       62.323       61.747    10525.453     3884.182     3812.695        3.756        0.911      237.554       38.685        0.027      348.559       28.340      862.330
08/21/2013  11:23:00      183.903      121.381       21.705       63.883       55.438       58.437     4080.984     3073.384     3414.937        2.980        0.528      220.348       46.294        0.044      348.241       27.790      862.326
08/21/2013  11:24:00      142.760       95.209       36.082       59.882       45.197       49.366     3585.897     2042.765     2437.048        1.940        0.403      171.595       33.323        0.038      348.298       27.891      862.312
08/21/2013  11:25:00       29.977      102.763       10.149       68.463       84.967       45.694     4687.202     7219.408     2087.915        1.278        0.700      107.045       51.557        0.232      348.504       28.247      862.310
08/21/2013  11:26:00       19.292      137.259       -1.980       42.557       85.187       48.948     1811.067     7256.843     2395.924        1.534        0.573      138.608       56.723        0.167      348.803       28.765      862.293
08/21/2013  11:27:00       49.967       84.274        2.811       58.588       62.720       46.166     3432.544     3933.858     2131.310        0.955        0.475       97.974       34.700        0.125      348.730       28.640      862.269
08/21/2013  11:28:00       67.440       42.349       43.387       59.599       49.951       34.672     3552.018     2495.148     1202.122        0.774        0.362       79.634       30.477        0.146      348.999       29.105      862.244
08/21/2013  11:29:00       98.730       82.738       35.302       67.936       43.874       38.342     4615.338     1924.919     1470.103        1.292        0.401      128.815       27.788        0.047      348.790       28.742      862.231
08/21/2013  11:30:00       62.345       36.034       22.951       52.718       40.798       31.989     2779.156     1664.505     1023.326        0.559        0.273       72.009       18.177        0.064      349.051       29.197      862.223
08/21/2013  11:31:00      124.749       39.633       54.625       76.024      112.056       51.238     5779.710    12556.615     2625.358        2.054        1.048      130.893       46.228        0.125      348.992       29.091      862.196
08/21/2013  11:32:00      154.753       84.751       80.182      107.287       73.272       72.254    11510.394     5368.729     5220.630        2.983        1.105      176.441       50.950        0.083      348.764       28.697      862.173
08/21/2013  11:33:00      264.423      154.681      128.664      131.917      125.715      112.043    17402.030    15804.385    12553.616        7.807        2.288      306.343       62.497        0.042      348.553       28.330      862.149
08/21/2013  11:34:00      151.197      100.995       14.967      137.029      105.535       55.882    18777.021    11137.591     3122.820        3.316        1.652      181.825       64.714        0.127      348.703       28.590      862.166
08/21/2013  11:35:00       93.706       47.250       18.052       68.086       46.002       38.788     4635.720     2116.210     1504.545        0.980        0.413      104.945       24.324        0.054      349.045       29.186      862.167
08/21/2013  11:36:00      171.821      112.741       85.420       91.378       75.785       62.231     8349.980     5743.433     3872.745        3.374        0.898      205.506       34.059        0.027      348.697       28.580      862.159
08/21/2013  11:37:00      158.006      121.486       77.655      120.372       83.297       74.490    14489.424     6938.452     5548.785        3.636        1.349      199.311       12.804        0.004      348.792       28.746      862.153
08/21/2013  11:38:00      196.923      142.274       59.527      101.334       76.400       76.738    10268.551     5836.917     5888.683        4.228        1.100      242.942       46.520        0.037      348.914       28.955      862.172
08/21/2013  11:39:00      216.392      100.761       49.717      106.783       79.203       64.472    11402.527     6273.176     4156.671        4.064        1.092      238.702       48.909        0.042      348.480       28.204      862.181
08/21/2013  11:40:00       91.301       95.016       67.641       66.638       67.213       69.677     4440.561     4517.540     4854.823        1.787        0.691      131.772       45.834        0.121      348.775       28.715      862.194
08/21/2013  11:41:00       23.208      -75.559       34.016       56.639       75.155       58.492     3207.943     5648.329     3421.303        0.984        0.614       79.043       40.631        0.264      348.973       29.059      862.204
08/21/2013  11:42:00       54.828        0.382       25.498       56.402      102.470       58.066     3181.209    10500.086     3371.660        1.035        0.853       54.830       38.665        0.497      348.845       28.839      862.203
08/21/2013  11:43:00       54.275       56.366        3.800       37.804       28.313       31.600     1429.117      801.634      998.583        0.468        0.161       78.249       18.485        0.056      348.480       28.207      862.194
08/21/2013  11:44:00       25.856       96.728        1.129       74.578       60.741       37.191     5561.898     3689.452     1383.144        1.033        0.532      100.124       41.353        0.171      348.453       28.160      862.175
08/21/2013  11:45:00      -88.421       50.089       -0.609       75.899       42.727       42.679     5760.619     1825.606     1821.495        0.987        0.470      101.622       49.199        0.234      348.572       28.366      862.160
08/21/2013  11:46:00       59.674       22.782       25.247       61.224       32.549       27.789     3748.412     1059.405      772.223        0.515        0.279       63.875       19.500        0.093      348.984       29.078      862.158
08/21/2013  11:47:00       85.471       81.234       18.763       62.341       46.578       46.638     3886.397     2169.507     2175.057        1.124        0.412      117.916       33.523        0.081      348.834       28.819      862.140
08/21/2013  11:48:00       83.326       85.342       48.795       81.300       42.151       47.580     6609.629     1776.734     2263.903        1.363        0.533      119.275       52.844        0.196      348.517       28.271      862.122
08/21/2013  11:49:00       42.689        5.485       32.679       28.554       64.907       42.823      815.358     4212.960     1833.820        0.489        0.343       43.040       44.653        1.076      348.438       28.135      862.113
08/21/2013  11:50:00       11.482      -23.475       22.667       36.068       38.523       30.842     1300.890     1483.998      951.257        0.247        0.187       26.132       28.228        1.167      348.678       28.550      862.103
08/21/2013  11:51:00      120.963       81.865       51.410       66.493       37.311       40.752     4421.282     1392.095     1660.735        1.572        0.374      146.061       35.852        0.060      348.673       28.541      862.090
08/21/2013  11:52:00      212.238      130.836       18.723       72.751       55.889       50.527     5292.753     3123.539     2552.941        3.674        0.548      249.325       35.003        0.020      348.539       28.305      862.074
08/21/2013  11:53:00      143.034       88.863       30.194       76.755       60.097       49.814     5891.263     3611.680     2481.443        2.062        0.599      168.390       19.773        0.014      348.399       28.064      862.082
08/21/2013  11:54:00       46.910       38.638       20.488       37.607       33.210       29.304     1414.269     1102.908      858.747        0.374        0.169       60.773       17.576        0.084      349.082       29.249      862.064
08/21/2013  11:55:00        5.620       15.159      -11.641       40.091       22.120       25.425     1607.268      489.299      646.437        0.157        0.137       16.168       21.778        1.814      348.796       28.754      862.039
08/21/2013  11:56:00       42.993       36.029        5.786       64.330       35.762       24.970     4138.383     1278.917      623.513        0.461        0.302       56.093       21.945        0.153      348.997       29.103      862.030
08/21/2013  11:57:00      120.383      -20.224       33.655       71.038       71.425       48.533     5046.428     5101.538     2355.424        1.427        0.625      122.070       44.612        0.134      348.742       28.660      862.015
08/21/2013  11:58:00       57.403       57.893       93.514       99.326       68.571       57.203     9865.584     4701.975     3272.238        1.661        0.892       81.527       45.933        0.317      349.034       29.166      861.979
08/21/2013  11:59:00       48.110       27.430       56.305       63.113       91.625       51.534     3983.247     8395.225     2655.795        1.063        0.752       55.380       51.171        0.854      349.273       29.580      861.959
08/21/2013  12:00:00      133.889      148.025      103.817       76.972       65.736       77.296     5924.682     4321.249     5974.724        3.342        0.811      199.594       56.814        0.081      348.751       28.673      861.963
08/21/2013  12:01:00       61.789       36.706       68.856       70.565       64.995       49.267     4979.397     4224.409     2427.260        1.077        0.582       71.869       43.069        0.359      348.843       28.834      861.954
08/21/2013  12:02:00       45.974      -45.547       17.580       39.232       52.839       47.956     1539.111     2791.994     2299.798        0.556        0.332       64.716       42.099        0.423      348.882       28.904      861.932
08/21/2013  12:03:00      114.374      106.693       98.666      115.793       70.569       57.421    13408.020     4979.993     3297.198        2.794        1.084      156.413       38.666        0.061      349.078       29.239      861.923
08/21/2013  12:04:00       97.422      144.550      128.538      101.192       85.280       70.261    10239.901     7272.645     4936.589        3.467        1.122      174.315       68.229        0.153      348.868       28.875      861.907
08/21/2013  12:05:00       57.107       72.236       74.487       76.477       49.095       40.996     5848.688     2410.364     1680.645        1.198        0.497       92.083       32.297        0.123      349.034       29.165      861.913
08/21/2013  12:06:00       71.295      -92.186       19.477       75.902       94.635       55.050     5761.153     8955.704     3030.474        1.585        0.887      116.538       52.288        0.201      349.137       29.343      861.901
08/21/2013  12:07:00      110.730      -80.043       26.145       82.368       85.404       54.313     6784.505     7293.862     2949.926        1.819        0.851      136.631       54.563        0.159      349.326       29.670      861.870
08/21/2013  12:08:00      123.918     -176.627      -26.605       84.324      114.296       62.474     7110.620    13063.530     3902.958        3.566        1.204      215.761       69.668        0.104      348.873       28.884      861.849
08/21/2013  12:09:00       63.863      -92.431       15.208       56.330       71.462       47.866     3173.082     5106.829     2291.168        1.171        0.529      112.347       46.417        0.171      349.083       29.250      861.815
08/21/2013  12:10:00      103.402     -114.670       -7.322       52.899       73.497       46.491     2798.276     5401.771     2161.435        1.713        0.518      154.406       52.002        0.113      349.068       29.224      861.815
08/21/2013  12:11:00       33.501     -125.309        0.446       44.787       59.292       36.099     2005.881     3515.532     1303.171        1.182        0.341      129.710       36.058        0.077      349.021       29.144      861.793
08/21/2013  12:12:00       88.774     -211.171      -22.171       65.121       69.013       47.729     4240.703     4762.830     2278.052        3.212        0.564      229.072       47.481        0.043      349.095       29.268      861.745
08/21/2013  12:13:00       52.700     -141.315       -4.038       47.290       57.382       43.569     2236.370     3292.699     1898.242        1.509        0.371      150.821       36.609        0.059      348.837       28.824      861.729
08/21/2013  12:14:00       12.910      -65.276       -1.602       43.635       44.867       32.577     1904.032     2013.088     1061.293        0.470        0.249       66.541       32.347        0.236      349.202       29.456      861.703
08/21/2013  12:15:00      -10.625      -70.412       10.530       34.174       48.659       35.078     1167.870     2367.656     1230.469        0.497        0.238       71.209       29.821        0.175      349.333       29.685      861.680
08/21/2013  12:16:00      -37.831      -22.900        5.092       16.525       17.246       14.811      273.067      297.428      219.374        0.139        0.039       44.222        9.187        0.043      349.002       29.112      861.661
08/21/2013  12:17:00      -18.984      -26.787        5.321       19.582       17.003        9.540      383.442      289.091       91.021        0.093        0.038       32.832        6.099        0.035      348.958       29.035      861.635
08/21/2013  12:18:00      -39.707       10.113        4.420       39.299       25.696       24.142     1544.443      660.299      582.859        0.224        0.139       40.975       18.227        0.198      349.074       29.236      861.608
08/21/2013  12:19:00       12.924      138.955       -8.199       41.682       89.247       35.052     1737.407     7965.115     1228.608        1.524        0.547      139.555       45.510        0.106      349.346       29.706      861.584
08/21/2013  12:20:00      -30.077      232.390      -21.253       36.391       48.932       23.637     1324.328     2394.383      558.705        2.982        0.214      234.328       19.510        0.007      348.843       28.830      861.559
08/21/2013  12:21:00       13.232      153.080        5.245       61.088      102.705       45.943     3731.763    10548.419     2110.788        2.001        0.820      153.651       53.296        0.120      349.429       29.850      861.553
08/21/2013  12:22:00       51.894      181.936      -15.213       88.948      108.709       66.540     7911.742    11817.666     4427.587        3.009        1.208      189.193       62.580        0.109      349.313       29.648      861.545
08/21/2013  12:23:00      138.782      117.148        5.724      102.775       78.291       80.637    10562.767     6129.448     6502.351        2.810        1.160      181.615       62.339        0.118      349.218       29.482      861.538
08/21/2013  12:24:00       30.596      240.839      -26.594       53.890       68.139       44.996     2904.124     4642.867     2024.657        3.461        0.479      242.775       38.309        0.025      349.024       29.145      861.530
08/21/2013  12:25:00      -21.982      223.998      -20.473       44.533       62.856       31.604     1983.188     3950.907      998.806        2.900        0.347      225.074       27.125        0.015      349.134       29.335      861.528
08/21/2013  12:26:00      -13.301      116.670       -3.171       37.463       74.606       32.709     1403.462     5566.052     1069.867        1.092        0.402      117.426       35.789        0.093      349.347       29.708      861.516
08/21/2013  12:27:00       52.690      111.496        1.709       62.712       80.516       44.657     3932.783     6482.767     1994.264        1.381        0.620      123.319       47.719        0.150      349.267       29.568      861.518
08/21/2013  12:28:00      -13.298      216.463      -19.016       47.285       71.120       36.156     2235.900     5058.073     1307.270        2.800        0.430      216.871       37.268        0.030      349.101       29.279      861.507
08/21/2013  12:29:00       -9.840       66.226       19.149       45.460       56.015       36.058     2066.599     3137.682     1300.201        0.568        0.325       66.953       31.218        0.217      349.964       30.779      861.497
08/21/2013  12:30:00       74.848       94.262        4.053       77.202       49.222       44.257     5960.126     2422.841     1958.682        1.242        0.517      120.364       26.848        0.050      349.559       30.074      861.500
08/21/2013  12:31:00       53.630       92.979        2.432       45.191       54.403       43.203     2042.255     2959.705     1866.531        0.920        0.343      107.337       29.858        0.077      349.583       30.118      861.483
08/21/2013  12:32:00      189.204      134.967       65.486       94.603       66.404       71.732     8949.747     4409.530     5145.525        3.840        0.925      232.410       64.561        0.077      349.290       29.606      861.473
08/21/2013  12:33:00       44.590      103.770       24.634       75.717       73.205       55.249     5733.046     5358.992     3052.415        1.375        0.707      112.945       37.629        0.111      349.514       29.996      861.469
08/21/2013  12:34:00       15.606      125.471       -1.901       63.599       92.346       48.033     4044.779     8527.737     2307.198        1.543        0.744      126.438       47.326        0.140      349.645       30.223      861.444
08/21/2013  12:35:00       28.361       83.711        5.237       67.752       54.684       47.129     4590.308     2990.294     2221.139        0.882        0.490       88.385       32.221        0.133      349.549       30.059      861.420
08/21/2013  12:36:00       25.073      261.290      -30.743       70.798      104.884       49.496     5012.372    11000.660     2449.845        4.415        0.923      262.490       51.875        0.039      349.172       29.402      861.386
08/21/2013  12:37:00      -75.360      235.384      -14.196       62.246       94.005       50.997     3874.615     8836.881     2600.688        3.830        0.766      247.153       54.788        0.049      349.444       29.874      861.362
08/21/2013  12:38:00      -33.006      242.412       -9.071       62.574       91.373       44.144     3915.515     8349.090     1948.678        3.707        0.711      244.649       47.642        0.038      349.338       29.690      861.341
08/21/2013  12:39:00       15.344       91.635       37.689       86.452       86.892       59.952     7473.929     7550.302     3594.234        1.433        0.931       92.911       59.143        0.405      349.436       29.863      861.351
08/21/2013  12:40:00       44.016      136.908       -2.152       66.664       85.711       47.541     4444.037     7346.293     2260.171        1.737        0.703      143.809       52.263        0.132      349.400       29.799      861.344
08/21/2013  12:41:00      155.658       80.143       23.457       72.420       39.020       38.679     5244.595     1522.538     1496.043        1.973        0.413      175.078       24.594        0.020      349.239       29.518      861.328
08/21/2013  12:42:00       27.032       -8.801       10.547       29.592       42.797       33.146      875.694     1831.580     1098.664        0.236        0.190       28.429       29.715        1.093      349.296       29.622      861.318
08/21/2013  12:43:00       48.057        8.840       -1.157       42.777       40.119       23.746     1829.889     1609.563      563.854        0.320        0.200       48.863       21.913        0.201      349.303       29.633      861.305
08/21/2013  12:44:00       85.006       56.328       34.431       52.039       64.829       42.633     2708.075     4202.835     1817.593        1.015        0.436      101.975       28.958        0.081      349.599       30.144      861.322
08/21/2013  12:45:00      186.046      132.202       52.574       86.857       62.077       70.375     7544.171     3853.500     4952.698        3.560        0.818      228.234       32.535        0.020      349.583       30.114      861.334
08/21/2013  12:46:00      164.138      135.479       62.425      131.489       92.886      111.368    17289.264     8627.730    12402.794        4.375        1.916      212.829       92.120        0.187      349.313       29.645      861.368
08/21/2013  12:47:00      100.662      107.072       83.963       63.090       61.428       44.582     3980.365     3773.347     1987.535        1.919        0.487      146.960       34.863        0.056      349.038       29.171      861.387
08/21/2013  12:48:00        3.252       -3.894       46.740       28.294       59.470       31.111      800.525     3536.731      967.887        0.376        0.265        5.074       25.280       24.826      349.356       29.725      861.395
08/21/2013  12:49:00       66.210       17.922       49.085       79.906       68.022       51.375     6385.009     4627.048     2639.390        1.038        0.683       68.593       41.225        0.361      349.525       30.016      861.392
08/21/2013  12:50:00      113.406     -147.241       -5.049       90.079      117.888       77.103     8114.249    13897.573     5944.872        3.126        1.398      185.852       73.208        0.155      349.481       29.937      861.378
08/21/2013  12:51:00       36.436       25.120       68.131       69.203      107.672       64.805     4789.096    11593.339     4199.743        1.359        1.029       44.256       75.198        2.887      349.495       29.963      861.366
08/21/2013  12:52:00      150.495     -144.475        2.169       76.601       75.024       52.616     5867.691     5628.575     2768.391        2.889        0.713      208.619       44.404        0.045      349.222       29.488      861.329
08/21/2013  12:53:00       94.708      -60.797       42.280       77.682      121.450       46.955     6034.562    14750.003     2204.774        1.872        1.149      112.543       49.342        0.192      349.227       29.500      861.292
08/21/2013  12:54:00       73.156      -82.794       34.367       96.390      114.115       48.379     9291.123    13022.340     2340.502        1.902        1.233      110.483       71.183        0.415      349.550       30.059      861.278
08/21/2013  12:55:00      109.657       71.105       87.474      103.324       80.020       56.594    10675.792     6403.146     3202.836        2.250        1.014      130.693       45.717        0.122      349.568       30.090      861.282
08/21/2013  12:56:00      143.669      111.455       57.034       80.582       60.586       48.715     6493.444     3670.697     2373.189        2.442        0.627      181.832       33.341        0.034      349.397       29.793      861.283
08/21/2013  12:57:00       92.157       57.212       11.642       57.962       69.299       40.388     3359.633     4802.329     1631.169        1.085        0.490      108.472       27.974        0.067      349.563       30.083      861.261
08/21/2013  12:58:00       33.821      -11.001       -0.038       42.339       36.918       34.336     1792.608     1362.918     1178.995        0.280        0.217       35.565       26.163        0.541      349.436       29.863      861.236
08/21/2013  12:59:00       19.631       12.862       15.455       48.539       42.334       21.399     2356.053     1792.202      457.936        0.270        0.230       23.470        7.547        0.103      349.747       30.402      861.222
08/21/2013  13:00:00       54.689       56.262       21.775       69.756       54.841       47.006     4865.926     3007.538     2209.541        0.836        0.504       78.462       25.111        0.102      349.835       30.554      861.218
08/21/2013  13:01:00       46.335       35.812       39.544       51.882       46.658       42.462     2691.764     2176.991     1803.048        0.583        0.334       58.561       33.834        0.334      350.031       30.897      861.211
08/21/2013  13:02:00       54.953      -98.033       -5.012       72.422       70.070       38.757     5244.912     4909.821     1502.115        1.215        0.583      112.384       37.748        0.113      349.455       29.894      861.220
08/21/2013  13:03:00       58.861      -37.317       22.235       51.985       50.588       46.643     2702.450     2559.175     2175.607        0.639        0.372       69.693       42.162        0.366      349.631       30.201      861.242
08/21/2013  13:04:00       65.314      -20.143       43.707       63.419       86.982       44.272     4021.940     7565.907     1960.016        1.006        0.677       68.350       44.801        0.430      349.894       30.657      861.257
08/21/2013  13:05:00       86.939      -45.274       63.567       86.509      100.202       52.459     7483.878    10040.431     2751.971        1.696        1.014       98.021       61.039        0.388      349.851       30.582      861.273
08/21/2013  13:06:00      128.411       85.463       46.885       84.387       50.053       42.656     7121.221     2505.304     1819.557        1.872        0.572      154.251       22.184        0.021      349.670       30.267      861.309
08/21/2013  13:07:00       70.452       87.856       41.051      102.920       81.475       57.964    10592.424     6638.210     3359.855        1.748        1.030      112.615       30.599        0.074      349.904       30.672      861.328
08/21/2013  13:08:00      142.451      107.280       61.269       99.367       71.820       57.299     9873.790     5158.069     3283.148        2.693        0.916      178.329       52.412        0.086      349.432       29.852      861.327
08/21/2013  13:09:00      144.614       87.312       21.221       44.598       44.876       41.034     1989.024     2013.879     1683.759        1.734        0.284      168.928       21.915        0.017      349.288       29.607      861.313
08/21/2013  13:10:00      103.775      106.567       42.462       69.788       51.567       55.358     4870.349     2659.182     3064.490        1.726        0.530      148.747       42.213        0.081      349.324       29.666      861.263
08/21/2013  13:11:00      103.411      125.890      -16.753       55.486       66.274       51.022     3078.699     4392.238     2603.231        1.845        0.504      162.917       48.715        0.089      349.403       29.804      861.240
08/21/2013  13:12:00      167.436      118.832       26.383       66.661       43.289       48.493     4443.655     1873.934     2351.619        2.576        0.433      205.319       15.435        0.006      349.277       29.584      861.211
08/21/2013  13:13:00      229.629      158.577       45.878       74.264       65.055       57.351     5515.116     4232.208     3289.097        4.651        0.652      279.063       20.273        0.005      349.410       29.814      861.200
08/21/2013  13:14:00       92.360       90.789       87.314       63.772       53.782       40.101     4066.828     2892.509     1608.098        1.648        0.428      129.511       22.360        0.030      349.436       29.862      861.210
08/21/2013  13:15:00      106.092       50.775       59.750       73.451       70.704       41.392     5395.083     4999.016     1713.275        1.475        0.605      117.617       35.029        0.089      349.552       30.061      861.220
08/21/2013  13:16:00      118.445       50.302       21.235      100.388       78.985       45.340    10077.734     6238.666     2055.729        1.769        0.919      128.683       55.103        0.183      349.544       30.048      861.224
08/21/2013  13:17:00      151.068      104.424       44.511       79.042       69.898       50.515     6247.561     4885.763     2551.790        2.469        0.684      183.646       19.104        0.011      349.515       29.996      861.235
08/21/2013  13:18:00      201.903      106.005       77.377      109.265       84.709       77.502    11938.919     7175.599     6006.555        4.155        1.256      228.039       59.664        0.068      349.374       29.752      861.247
08/21/2013  13:19:00       85.264       22.851       40.840      105.331       66.963       56.168    11094.723     4484.017     3154.885        1.409        0.937       88.273       50.474        0.327      349.397       29.795      861.246
08/21/2013  13:20:00      178.053      108.541       59.034      110.474       75.866       73.082    12204.537     5755.701     5340.968        3.513        1.165      208.528       46.465        0.050      349.445       29.874      861.257
08/21/2013  13:21:00      132.374      146.365      121.302       99.691       73.029       70.738     9938.252     5333.173     5003.814        3.696        1.014      197.346       47.641        0.058      349.383       29.767      861.268
08/21/2013  13:22:00      178.270      134.420       97.169      116.693       87.298       76.541    13617.287     7620.955     5858.565        4.319        1.355      223.269       63.140        0.080      349.443       29.871      861.294
08/21/2013  13:23:00      216.179      123.829       37.233      124.544       79.161       63.068    15511.281     6266.445     3977.525        4.460        1.288      249.133       22.726        0.008      349.494       29.959      861.322
08/21/2013  13:24:00      250.969      100.406       70.703      173.686      108.121       81.628    30166.699    11690.243     6663.082        6.328        2.426      270.308       71.582        0.070      349.321       29.660      861.338
08/21/2013  13:25:00      182.320       67.278       70.383      154.733      110.077       89.771    23942.293    12116.992     8058.812        4.341        2.206      194.337      105.414        0.294      349.153       29.369      861.383
08/21/2013  13:26:00      244.099      190.236      126.939      145.047       96.581       90.780    21038.689     9327.867     8240.951        7.524        1.930      309.474       70.353        0.052      349.360       29.726      861.398
08/21/2013  13:27:00      213.973       99.927       99.343      157.768      112.995       80.817    24890.666    12767.816     6531.356        5.491        2.209      236.157       50.749        0.046      349.265       29.563      861.411
08/21/2013  13:28:00      112.711        6.852      124.598      156.808      160.910      105.062    24588.729    25891.951    11037.998        4.489        3.076      112.919       99.002        0.769      349.342       29.698      861.402
08/21/2013  13:29:00      208.897      136.438       94.808      139.625      126.973       87.022    19495.161    16122.237     7572.885        5.721        2.160      249.506       69.574        0.078      349.277       29.583      861.429
08/21/2013  13:30:00      346.777      182.812       69.950      133.699      106.489       99.589    17875.337    11339.807     9917.934        9.884        1.957      392.013       56.224        0.021      349.313       29.646      861.450
08/21/2013  13:31:00      234.709      121.543      138.018      174.874      156.418      121.318    30580.951    24466.469    14718.081        7.933        3.488      264.312       92.059        0.121      349.169       29.398      861.442
08/21/2013  13:32:00      343.703      144.786       73.484      234.030      161.549      122.582    54769.811    26098.133    15026.416       12.018        4.795      372.954      104.678        0.079      349.101       29.278      861.423
08/21/2013  13:33:00      230.195      125.384      115.650      158.386      129.514      111.893    25086.091    16773.998    12519.969        6.822        2.719      262.127       81.126        0.096      349.007       29.115      861.403
08/21/2013  13:34:00      279.609      162.673       94.319      150.470      126.374      110.418    22641.359    15970.379    12192.146        8.216        2.540      323.487       86.594        0.072      349.098       29.273      861.367
08/21/2013  13:35:00      300.365      128.875      100.457      194.160      134.142      104.329    37697.976    17993.975    10884.442        9.174        3.329      326.846       98.968        0.092      349.066       29.218      861.337
08/21/2013  13:36:00      308.023      276.285      230.840      275.384      209.499      181.085    75836.396    43889.918    32791.681       18.848        7.626      413.777      165.606        0.160      348.881       28.897      861.278
08/21/2013  13:37:00      362.635      230.887      113.753      224.671      170.947      146.647    50477.215    29222.937    21505.274       14.946        5.060      429.899      108.199        0.063      348.759       28.687      861.272
08/21/2013  13:38:00      222.433      128.926      141.070      170.073      139.410      103.352    28924.705    19435.270    10681.534        7.251        2.952      257.096       78.928        0.094      348.745       28.663      861.274
08/21/2013  13:39:00      138.297      -11.985      128.813      154.349      160.513      101.322    23823.576    25764.297    10266.168        4.785        2.993      138.816       96.246        0.481      348.678       28.547      861.261
08/21/2013  13:40:00      156.996       -9.758       81.923      142.452      128.541       80.874    20292.573    16522.770     6540.671        3.740        2.168      157.299       90.305        0.330      348.625       28.456      861.268
08/21/2013  13:41:00      151.099      147.976      135.118      127.914      100.026       91.339    16361.875    10005.296     8342.788        4.884        1.735      211.490       66.568        0.099      348.667       28.528      861.280
08/21/2013  13:42:00      203.406      180.278      129.837      144.799      115.481      121.900    20966.840    13335.929    14859.575        6.994        2.458      271.798      105.254        0.150      348.793       28.744      861.258
08/21/2013  13:43:00      150.549      185.651      126.044      151.984       95.131       92.371    23098.992     9049.901     8532.484        5.684        2.034      239.022       91.615        0.147      348.667       28.527      861.277
08/21/2013  13:44:00       40.887       88.152      120.384       64.618       88.491       55.011     4175.476     7830.714     3026.263        1.948        0.752       97.172       50.508        0.270      348.779       28.721      861.290
08/21/2013  13:45:00       69.833        2.552       82.169       87.914      132.131       81.875     7728.882    17458.710     6703.583        2.176        1.595       69.880       84.683        1.469      348.679       28.551      861.333
08/21/2013  13:46:00      153.936       -7.045       94.594      136.698      130.288       96.393    18686.397    16974.906     9291.611        3.882        2.248      154.097       83.185        0.291      348.593       28.398      861.407
08/21/2013  13:47:00      198.031       93.121      109.507      178.154      184.232      124.837    31738.982    33941.303    15584.181        7.056        4.063      218.833      110.877        0.257      348.505       28.247      861.447
08/21/2013  13:48:00      138.138     -149.363       34.999      139.306      195.479       93.557    19406.024    38212.132     8752.884        5.448        3.319      203.449      111.453        0.300      348.541       28.311      861.471
08/21/2013  13:49:00       96.399     -101.833       52.810      100.050      240.859      131.037    10010.075    58013.042    17170.590        5.381        4.260      140.224      158.196        1.273      348.436       28.127      861.479
08/21/2013  13:50:00      172.700       15.830      125.555      156.363      144.407      114.751    24449.524    20853.372    13167.890        5.215        2.924      173.424      100.253        0.334      348.312       27.913      861.494
08/21/2013  13:51:00      162.464      -41.556       65.286      147.841      155.669      101.730    21857.060    24232.773    10348.910        4.440        2.822      167.695       99.817        0.354      348.280       27.857      861.522
08/21/2013  13:52:00       79.448      -60.853       62.572       99.748      149.127       78.869     9949.649    22238.934     6220.390        2.616        1.920      100.075       86.435        0.746      348.338       27.959      861.571
08/21/2013  13:53:00      116.893      -74.252       28.185      104.549      112.926       68.195    10930.413    12752.313     4650.609        2.415        1.417      138.482       58.004        0.175      348.366       28.006      861.637
08/21/2013  13:54:00      215.236     -136.728       38.297      135.931      110.076       94.194    18477.170    12116.752     8872.445        5.297        1.973      254.993       68.020        0.071      348.414       28.090      861.681
08/21/2013  13:55:00      240.752      -17.765       77.867      175.518      127.574       92.663    30806.503    16275.079     8586.445        5.999        2.783      241.406       98.943        0.168      348.426       28.110      861.714
08/21/2013  13:56:00      164.718     -144.914       17.354      103.464      263.454       99.844    10704.867    69408.165     9968.827        6.924        4.504      219.390      129.425        0.348      348.363       28.002      861.719
08/21/2013  13:57:00      131.704      -63.398       65.035      104.742      143.217       95.560    10970.883    20511.090     9131.719        3.310        2.031      146.169       94.072        0.414      348.388       28.044      861.746
08/21/2013  13:58:00      195.656      -99.776       63.647      174.720      256.436      137.640    30527.147    65759.246    18944.692        8.374        5.762      219.628      168.909        0.591      348.354       27.986      861.753
08/21/2013  13:59:00      110.596        3.224      133.832      121.515      176.935      110.490    14765.996    31305.914    12208.144        4.421        2.914      110.643      118.716        1.151      348.342       27.965      861.763
08/21/2013  14:00:00      112.068      -30.725      146.194      125.235      204.009      120.778    15683.784    41619.708    14587.228        5.337        3.595      116.204      125.477        1.166      348.304       27.900      861.804
08/21/2013  14:01:00      118.488      -20.520       93.180      117.241      188.554      111.128    13745.357    35552.506    12349.335        4.238        3.082      120.251      121.624        1.023      348.301       27.895      861.845
08/21/2013  14:02:00      191.620     -306.620      -29.076      121.966      147.614       86.710    14875.719    21789.885     7518.650        8.787        2.209      361.572       70.042        0.038      348.382       28.033      861.968
08/21/2013  14:03:00       -5.500      -31.620      133.594      176.394      230.864      148.036    31114.983    53298.161    21914.757        6.258        5.316       32.094      170.887       28.351      348.293       27.880      861.956
08/21/2013  14:04:00       58.854     -132.825       32.054      159.364      190.431      100.684    25396.888    36264.053    10137.170        4.695        3.590      145.280      116.834        0.647      348.219       27.753      861.924
08/21/2013  14:05:00      137.413     -133.367       71.197      154.933      253.995      131.328    24004.304    64513.628    17247.003        7.373        5.288      191.492      170.081        0.789      348.224       27.760      861.920
08/21/2013  14:06:00      286.070     -178.856      104.742      257.651      321.112      205.733    66384.023   103112.897    42326.210       16.827       10.591      337.380      234.743        0.484      348.072       27.499      861.782
08/21/2013  14:07:00      171.216       -9.359      125.895      218.821      247.596      147.451    47882.751    61304.020    21741.889        8.807        6.546      171.472      190.172        1.230      348.027       27.421      861.809
08/21/2013  14:08:00      283.633     -222.081       20.868      182.203      269.824      169.089    33197.934    72804.924    28591.022       13.238        6.730      360.233      211.160        0.344      347.908       27.214      861.799
08/21/2013  14:09:00      125.580      -55.419       53.709      151.495      102.945       68.193    22950.816    10597.686     4650.238        2.996        1.910      137.265       79.904        0.339      347.878       27.164      861.796
08/21/2013  14:10:00      122.554        0.642       97.034      132.531      114.650       80.933    17564.488    13144.529     6550.224        3.084        1.863      122.556       93.772        0.585      347.865       27.141      861.771
08/21/2013  14:11:00       77.999       69.825       77.135       83.230       76.157       78.417     6927.210     5799.942     6149.157        1.789        0.944      104.687       57.935        0.306      347.831       27.083      861.735
08/21/2013  14:12:00      128.613       64.716       86.769      106.604       98.566       77.574    11364.414     9715.344     6017.747        2.767        1.355      143.977       62.075        0.186      347.811       27.050      861.681
08/21/2013  14:13:00       44.378       53.068       77.641       75.885       86.069       61.184     5758.584     7407.840     3743.430        1.386        0.845       69.179       50.982        0.543      347.731       26.912      861.677
08/21/2013  14:14:00        9.143      -10.797       35.372       53.592       45.109       30.851     2872.136     2034.801      951.778        0.365        0.293       14.148       29.987        4.492      347.781       27.000      861.668
08/21/2013  14:15:00       81.439     -106.838       13.851       95.807       80.775       65.177     9178.982     6524.624     4247.982        1.909        0.998      134.338       63.873        0.226      347.965       27.315      861.628
08/21/2013  14:16:00       54.381      -14.332       39.475       75.289       68.779       43.975     5668.443     4730.600     1933.766        0.852        0.617       56.238       46.348        0.679      347.758       26.958      861.630
08/21/2013  14:17:00       82.393       58.903       73.133       66.179       73.279       51.701     4379.604     5369.879     2672.985        1.401        0.621      101.282       32.615        0.104      347.876       27.162      861.597
08/21/2013  14:18:00      151.712      -23.196       68.814      123.382      169.221       91.918    15223.134    28635.691     8448.836        4.029        2.615      153.475       99.264        0.418      347.995       27.365      861.563
08/21/2013  14:19:00      114.396      -87.188       51.147      121.643      188.844      121.903    14797.085    35661.991    14860.253        4.430        3.266      143.834      136.869        0.905      348.068       27.492      861.550
08/21/2013  14:20:00       99.489      -52.489       37.138       90.154      140.932       73.973     8127.668    19861.865     5471.962        2.374        1.673      112.487       95.443        0.720      348.012       27.396      861.566
08/21/2013  14:21:00      191.725     -178.018        8.852      167.562      238.344      142.231    28077.161    56807.746    20229.756        8.680        5.256      261.627      167.352        0.409      347.986       27.350      861.544
08/21/2013  14:22:00       82.693     -152.714       -1.439      134.193      141.893      111.216    18007.662    20133.529    12369.018        4.033        2.526      173.665       95.352        0.301      348.002       27.377      861.531
08/21/2013  14:23:00       34.828       42.136       87.844       78.721       97.015       70.094     6196.938     9411.875     4913.145        1.561        1.026       54.667       69.032        1.595      347.864       27.141      861.546
08/21/2013  14:24:00      100.001     -170.259        0.294       64.173       86.340       47.103     4118.216     7454.567     2218.737        2.639        0.690      197.455       42.277        0.046      347.942       27.274      861.549
08/21/2013  14:25:00       62.959     -104.175       32.079       70.146       81.264       64.899     4920.464     6603.854     4211.858        1.579        0.787      121.722       57.307        0.222      347.989       27.358      861.582
08/21/2013  14:26:00       37.523       -1.784       48.751       55.882       65.743       39.144     3122.803     4322.084     1532.259        0.638        0.449       37.566       33.498        0.795      347.922       27.241      861.615
08/21/2013  14:27:00       41.895      -65.397        7.740       49.358       60.128       38.427     2436.204     3615.365     1476.665        0.681        0.376       77.666       33.032        0.181      347.700       26.858      861.633
08/21/2013  14:28:00      106.236     -128.764      -14.168       81.362       83.630       61.580     6619.821     6993.944     3792.080        2.273        0.870      166.932       61.313        0.135      347.652       26.775      861.671
08/21/2013  14:29:00      -49.441      -97.877        8.919       70.345       63.834       41.101     4948.388     4074.828     1689.255        1.141        0.536      109.656       27.137        0.061      347.666       26.800      861.708
08/21/2013  14:30:00       -2.461      -23.842       23.396       35.493       38.323       29.098     1259.784     1468.615      846.718        0.235        0.179       23.968       24.823        1.073      347.797       27.026      861.721
08/21/2013  14:31:00        9.262      -43.738       -4.218       23.856       23.369       16.389      569.125      546.125      268.611        0.170        0.069       44.707       10.537        0.056      347.644       26.763      861.721
08/21/2013  14:32:00       -4.687      -28.796      -20.641       42.129       33.215       26.177     1774.846     1103.236      685.260        0.242        0.178       29.175       25.972        0.792      347.569       26.633      861.714
08/21/2013  14:33:00      -30.105     -101.473      -10.099       42.591       36.606       33.535     1813.995     1340.010     1124.612        0.779        0.214      105.844       17.264        0.027      347.559       26.615      861.702
08/21/2013  14:34:00       20.522      -23.174       16.081       39.666       39.611       23.884     1573.362     1569.006      570.432        0.246        0.186       30.955       19.797        0.409      347.676       26.818      861.693
08/21/2013  14:35:00      -30.831       -6.422       -6.011       25.982       18.041       11.391      675.080      325.479      129.758        0.108        0.057       31.492        9.825        0.097      347.561       26.621      861.665
08/21/2013  14:36:00        9.246       22.198       15.303       31.359       23.259       19.469      983.382      540.987      379.041        0.136        0.095       24.047       11.660        0.235      347.491       26.497      861.635
08/21/2013  14:37:00       -0.594       12.736        4.018       71.692       37.463       25.082     5139.672     1403.466      629.103        0.367        0.359       12.750       26.654        4.370      347.493       26.502      861.584
08/21/2013  14:38:00      104.194       50.461       31.606       52.988       46.922       43.912     2807.683     2201.705     1928.236        1.067        0.347      115.770       25.324        0.048      347.346       26.248      861.533
08/21/2013  14:39:00       51.580      146.779       -8.224       63.666       58.582       36.114     4053.324     3431.859     1304.247        1.653        0.439      155.578       38.549        0.061      347.407       26.353      861.462
08/21/2013  14:40:00      -19.670      109.509       -5.702       34.816       73.579       30.572     1212.157     5413.879      934.632        0.998        0.378      111.261       40.091        0.130      347.468       26.459      861.409
08/21/2013  14:41:00      -22.606       56.505        3.514       33.100       46.718       23.629     1095.619     2182.555      558.319        0.378        0.192       60.859       25.511        0.176      347.552       26.603      861.360
08/21/2013  14:42:00       -0.836       84.392       -9.494       27.264       40.265       22.177      743.348     1621.299      491.836        0.503        0.143       84.396       23.818        0.080      347.482       26.485      861.331
08/21/2013  14:43:00       13.857      119.772      -12.640       27.353       46.613       24.914      748.173     2172.748      620.721        0.912        0.177      120.571       27.098        0.051      347.511       26.532      861.306
08/21/2013  14:44:00       31.792      118.466      -15.189       37.281       51.946       22.618     1389.868     2698.419      511.565        0.994        0.230      122.658       17.269        0.020      347.555       26.610      861.283
08/21/2013  14:45:00       35.510       72.954       -8.081       31.063       41.583       25.183      964.920     1729.140      634.199        0.499        0.166       81.137       25.650        0.100      347.622       26.725      861.270
08/21/2013  14:46:00       13.360      135.257      -18.332       26.766       47.350       26.350      716.412     2242.051      694.306        1.123        0.183      135.915       28.407        0.044      347.666       26.799      861.254
08/21/2013  14:47:00       -9.321       82.856       -8.588       19.230       19.368       15.859      369.774      375.127      251.515        0.401        0.050       83.379       12.679        0.023      347.679       26.823      861.242
08/21/2013  14:48:00      -24.781       66.578        0.712       16.842       32.884       17.886      283.652     1081.351      319.909        0.337        0.084       71.041       21.727        0.094      347.759       26.963      861.208
08/21/2013  14:49:00      -63.823       88.217       -8.095       31.212       25.817       21.887      974.211      666.525      479.030        0.702        0.106      108.884       18.087        0.028      347.737       26.924      861.159
08/21/2013  14:50:00     -100.003      120.678      -23.072       40.444       33.471       26.043     1635.735     1120.307      678.221        1.426        0.172      156.728       21.312        0.018      347.782       27.000      861.113
08/21/2013  14:51:00     -125.574       98.104      -26.826       63.024       74.580       34.229     3972.013     5562.103     1171.599        1.841        0.535      159.353       22.791        0.020      347.925       27.245      861.062
08/21/2013  14:52:00      -21.803       51.695       -2.681       36.368       55.961       25.883     1322.658     3131.665      669.937        0.414        0.256       56.104       26.147        0.217      348.144       27.624      861.028
08/21/2013  14:53:00       17.045       27.960       18.867       17.138       25.460       21.741      293.726      648.203      472.688        0.142        0.071       32.746       17.387        0.282      348.124       27.591      861.011
08/21/2013  14:54:00       43.442       49.657       14.417       31.429       23.194       21.227      987.768      537.976      450.606        0.327        0.099       65.978       14.274        0.047      348.039       27.443      861.015
08/21/2013  14:55:00      127.852       86.853       10.050       53.370       51.750       33.130     2848.398     2678.109     1097.574        1.531        0.331      154.562       24.684        0.026      347.880       27.169      861.015
08/21/2013  14:56:00       39.501      152.710       -8.977       69.928       61.545       37.190     4889.944     3787.794     1383.074        1.751        0.503      157.736       37.026        0.055      347.977       27.335      860.998
08/21/2013  14:57:00       35.795       24.486        4.184       39.322       33.098       25.251     1546.208     1095.491      637.629        0.259        0.164       43.369       14.460        0.111      348.055       27.472      860.991
08/21/2013  14:58:00       82.107       61.224       55.975       86.196       52.008       35.956     7429.741     2704.883     1292.814        1.252        0.571      102.420       35.445        0.120      347.945       27.281      860.978
08/21/2013  14:59:00      119.430       73.794       41.590       89.496       65.900       60.038     8009.599     4342.782     3604.530        1.870        0.798      140.390       53.108        0.143      347.880       27.167      860.955
08/21/2013  15:00:00      145.842       83.562       29.836       54.257       41.033       40.671     2943.851     1683.719     1654.120        1.771        0.314      168.085       28.135        0.028      347.862       27.137      860.927
08/21/2013  15:01:00       76.545       53.848        2.209       41.099       36.685       28.731     1689.104     1345.783      825.492        0.631        0.193       93.588       16.192        0.030      347.775       26.989      860.898
08/21/2013  15:02:00       32.785       87.906       -2.710       39.183       45.028       29.494     1535.270     2027.492      869.882        0.662        0.222       93.821       29.876        0.101      348.067       27.494      860.854
08/21/2013  15:03:00       -3.834       85.014       -1.165       26.064       54.117       22.944      679.309     2928.660      526.408        0.569        0.207       85.100       26.005        0.093      348.128       27.598      860.822
08/21/2013  15:04:00      -25.782      173.981      -22.968       35.369       43.876       13.906     1250.995     1925.101      193.364        1.742        0.168      175.881       14.547        0.007      347.983       27.346      860.797
08/21/2013  15:05:00       -5.220      128.335      -12.642       34.426       23.950       18.192     1185.182      573.607      330.933        0.937        0.104      128.441       13.248        0.011      348.058       27.476      860.791
08/21/2013  15:06:00       37.276       89.153        3.523       47.531       50.890       31.218     2259.189     2589.754      974.558        0.759        0.291       96.632       30.334        0.099      348.202       27.728      860.800
08/21/2013  15:07:00       38.380       66.537       -5.202       29.469       37.637       29.139      868.441     1416.532      849.059        0.453        0.157       76.813       25.921        0.114      348.162       27.658      860.835
08/21/2013  15:08:00       78.051       69.566        7.891       35.972       29.096       29.499     1293.961      846.575      870.168        0.700        0.151      104.553       23.007        0.048      348.115       27.577      860.880
08/21/2013  15:09:00      103.716       69.561        3.882       25.244       24.370       20.154      637.273      593.893      406.183        0.862        0.082      124.883        9.707        0.006      348.095       27.542      860.928
08/21/2013  15:10:00       74.690       57.401       15.536       18.016       17.070       17.347      324.561      291.372      300.908        0.502        0.046       94.199        8.816        0.009      348.052       27.466      860.972
08/21/2013  15:11:00       58.028       46.586       35.918       36.380       30.701       22.373     1323.471      942.524      500.530        0.480        0.138       74.415       18.537        0.062      348.254       27.817      861.007
08/21/2013  15:12:00       56.978       47.093       22.473       30.920       43.395       32.274      956.062     1883.102     1041.587        0.492        0.194       73.920        8.445        0.013      348.180       27.689      861.031
08/21/2013  15:13:00       39.179        1.413       14.923       27.170       60.685       32.717      738.208     3682.659     1070.390        0.362        0.275       39.205       31.020        0.626      347.927       27.251      861.061
08/21/2013  15:14:00      -11.021       -1.705       20.070       18.886       30.624       22.916      356.684      937.835      525.153        0.117        0.091       11.152       15.875        2.026      347.999       27.376      861.099
08/21/2013  15:15:00       26.986      -34.542       20.536       37.045       47.450       36.692     1372.350     2251.546     1346.332        0.366        0.249       43.834       30.850        0.495      347.830       27.084      861.139
08/21/2013  15:16:00        8.419      -28.877       12.604       29.765       35.718       30.440      885.954     1275.744      926.613        0.208        0.154       30.079       22.112        0.540      347.881       27.172      861.167
08/21/2013  15:17:00       73.628      -78.552       -8.532       52.833       65.277       38.942     2791.344     4261.064     1516.479        1.012        0.428      107.664       38.479        0.128      348.150       27.636      861.202
08/21/2013  15:18:00       76.670      -61.104       11.735       46.118       45.048       37.686     2126.888     2029.322     1420.220        0.766        0.279       98.041       36.344        0.137      347.988       27.356      861.217
08/21/2013  15:19:00      109.318      -69.205       16.820       80.528       76.629       49.936     6484.800     5871.976     2493.625        1.593        0.743      129.382       53.960        0.174      348.075       27.506      861.206
08/21/2013  15:20:00      113.909      -31.419       32.310       64.128       63.688       52.118     4112.414     4056.189     2716.303        1.294        0.544      118.163       49.962        0.179      348.210       27.739      861.198
08/21/2013  15:21:00       55.298      -10.577       28.384       74.941       51.200       44.035     5616.146     2621.463     1939.093        0.707        0.509       56.300       40.175        0.509      348.111       27.569      861.202
08/21/2013  15:22:00       85.232       59.045       58.004       64.914       50.738       51.475     4213.872     2574.314     2649.637        1.177        0.472      103.686       18.787        0.033      348.165       27.662      861.195
08/21/2013  15:23:00      155.848       76.729       14.887       52.605       44.643       38.583     2767.281     1992.957     1488.631        1.832        0.312      173.712       27.628        0.025      348.085       27.523      861.186
08/21/2013  15:24:00       53.235      -26.245       10.590       60.504       96.170       39.968     3660.712     9248.731     1597.407        0.907        0.725       59.353       45.964        0.600      348.278       27.856      861.212
08/21/2013  15:25:00       94.346      -83.789       11.568       71.911      104.134       61.811     5171.253    10843.817     3820.608        1.794        0.992      126.181       66.114        0.275      348.388       28.047      861.217
08/21/2013  15:26:00       76.992        2.163       48.755       83.099       99.412       63.480     6905.462     9882.669     4029.699        1.456        1.041       77.023       69.396        0.812      347.941       27.274      861.219
08/21/2013  15:27:00       39.671      -43.301       18.780       36.261       58.765       38.370     1314.855     3453.356     1472.285        0.502        0.312       58.726       32.604        0.308      347.917       27.234      861.213
08/21/2013  15:28:00       -8.126      -34.707       14.895       22.763       32.042       20.990      518.161     1026.673      440.585        0.174        0.099       35.646       11.512        0.104      347.884       27.176      861.209
08/21/2013  15:29:00      -15.750      -28.503       11.893       35.055       43.190       30.740     1228.834     1865.397      944.941        0.262        0.202       32.565       19.693        0.366      348.108       27.562      861.213
08/21/2013  15:30:00       14.146      -21.778        6.733       49.366       43.746       37.114     2437.013     1913.724     1377.439        0.322        0.286       25.969       21.754        0.702      347.937       27.266      861.193
08/21/2013  15:31:00       50.242      -60.984       22.948       64.942      115.565       68.469     4217.510    13355.254     4687.958        1.451        1.113       79.015       69.693        0.778      348.224       27.764      861.182
08/21/2013  15:32:00      213.462     -200.143      -38.171       70.554       79.090       40.693     4977.905     6255.268     1655.893        4.998        0.644      292.615       26.004        0.008      348.230       27.771      861.168
08/21/2013  15:33:00       72.967      -16.892       32.211       51.648       48.464       44.141     2667.555     2348.723     1948.448        0.680        0.348       74.897       28.892        0.149      348.231       27.775      861.144
08/21/2013  15:34:00      107.797      -83.496        4.603       67.572       89.328       40.365     4565.984     7979.444     1629.308        1.639        0.709      136.352       53.472        0.154      348.250       27.806      861.118
08/21/2013  15:35:00        2.313      -10.222        3.867       45.240       52.082       23.802     2046.620     2712.532      566.530        0.272        0.266       10.480       15.694        2.242      348.165       27.662      861.109
08/21/2013  15:36:00      104.612      -86.306       -5.891       76.394       70.047       43.780     5836.096     4906.571     1916.666        1.554        0.633      135.619       45.024        0.110      348.303       27.898      861.066
08/21/2013  15:37:00       73.571      -89.013      -19.385       57.032       64.903       37.699     3252.649     4212.360     1421.240        1.130        0.444      115.481       36.422        0.099      348.330       27.946      861.036
08/21/2013  15:38:00       13.782      -24.328       23.566       27.831       44.918       29.254      774.553     2017.631      855.777        0.249        0.182       27.960       24.893        0.793      348.470       28.191      861.006
08/21/2013  15:39:00       39.576      -54.600        4.666       28.107       22.236       24.399      789.986      494.445      595.305        0.322        0.094       67.434       19.872        0.087      348.344       27.973      860.972
08/21/2013  15:40:00       25.080      -29.276       21.143       33.932       48.589       28.931     1151.408     2360.937      837.015        0.314        0.217       38.550       27.092        0.494      348.340       27.964      860.928
08/21/2013  15:41:00       36.953      -44.376        3.747       47.013       52.192       35.549     2210.217     2723.997     1263.757        0.477        0.310       57.747       35.926        0.387      347.856       27.129      860.897
08/21/2013  15:42:00      115.483      -87.651       -7.237       41.646       30.084       28.981     1734.368      905.074      839.914        1.227        0.174      144.979       20.158        0.019      347.888       27.184      860.861
08/21/2013  15:43:00       41.995      -51.881        4.964       47.675       29.040       24.071     2272.873      843.317      579.400        0.409        0.185       66.747       18.715        0.079      347.993       27.365      860.828
08/21/2013  15:44:00       -6.845      -38.038        2.283       20.368       31.193       13.782      414.873      973.006      189.954        0.154        0.079       38.649        5.352        0.019      348.010       27.393      860.808
08/21/2013  15:45:00        0.109      -12.660       10.925       14.063       19.744       13.539      197.782      389.831      183.317        0.053        0.039       12.661        9.159        0.523      348.370       28.016      860.804
08/21/2013  15:46:00       40.481      -60.119       -0.019       34.282       41.629       29.089     1175.290     1732.992      846.153        0.450        0.188       72.478       23.278        0.103      348.105       27.558      860.804
08/21/2013  15:47:00       19.589       -5.175       26.976       30.968       38.698       32.675      959.040     1497.572     1067.627        0.233        0.176       20.261       17.754        0.768      348.379       28.033      860.794
08/21/2013  15:48:00       55.263      -26.690       20.804       36.324       32.960       29.786     1319.406     1086.377      887.178        0.375        0.165       61.371       22.339        0.132      348.239       27.791      860.778
08/21/2013  15:49:00       47.853        4.427       27.254       31.983       16.643       20.200     1022.927      277.001      408.046        0.238        0.085       48.057       11.665        0.059      347.940       27.273      860.741
08/21/2013  15:50:00        5.018      -13.201        8.093       17.528       19.651       11.695      307.220      386.161      136.784        0.055        0.042       14.122        6.065        0.184      348.051       27.465      860.721
08/21/2013  15:51:00       31.300       -3.655       18.832       20.918       22.169       21.331      437.553      491.456      455.018        0.137        0.069       31.513       14.534        0.213      347.929       27.254      860.699
08/21/2013  15:52:00       81.016       51.751       -5.049       27.060       26.679       22.138      732.239      711.784      490.086        0.560        0.097       96.134        8.243        0.007      348.069       27.497      860.655
08/21/2013  15:53:00       49.839       57.644       -0.169       28.497       27.256       18.157      812.086      742.893      329.692        0.385        0.094       76.202        8.755        0.013      348.277       27.856      860.638
08/21/2013  15:54:00       22.637       -0.017        4.500       22.425       20.837       13.785      502.892      434.199      190.023        0.083        0.056       22.637       11.246        0.247      348.502       28.245      860.624
08/21/2013  15:55:00      -37.733       37.123       -7.760       22.920       33.680       17.432      525.342     1134.354      303.882        0.241        0.098       52.933       18.445        0.121      348.453       28.160      860.633
08/21/2013  15:56:00      -36.322       72.234       -8.281       21.593       22.512       16.415      466.265      506.779      269.461        0.392        0.062       80.851       12.280        0.023      348.443       28.144      860.636
08/21/2013  15:57:00      -15.038       64.428        2.561       16.112       22.970       23.554      259.610      527.632      554.804        0.286        0.067       66.160       17.504        0.070      348.551       28.328      860.636
08/21/2013  15:58:00       -1.128       55.222        7.514       26.673       43.266       23.230      711.453     1871.963      539.626        0.311        0.156       55.234       17.932        0.105      348.558       28.342      860.637
08/21/2013  15:59:00        4.660       33.547       18.662       22.785       22.540       15.178      519.143      508.062      230.359        0.138        0.063       33.869       13.425        0.157      348.684       28.560      860.636
08/21/2013  16:00:00       21.165       15.624        8.344       23.318       20.579       17.788      543.741      423.477      316.406        0.102        0.064       26.307        9.576        0.133      348.497       28.236      860.644
08/21/2013  16:01:00      -59.414       32.451       -5.375       45.588       20.503       15.939     2078.240      420.369      254.043        0.368        0.138       67.698        4.605        0.005      348.564       28.354      860.660
08/21/2013  16:02:00      -33.429       47.911       -3.544       50.739       65.058       27.942     2574.475     4232.566      780.783        0.551        0.379       58.421       28.287        0.234      348.740       28.656      860.651
08/21/2013  16:03:00      -13.323        8.557        0.954       14.746       16.530       17.692      217.436      273.257      312.998        0.053        0.040       15.835        9.804        0.383      348.839       28.828      860.660
08/21/2013  16:04:00       31.813      -40.635       -7.686       25.377       30.468       24.537      644.009      928.285      602.087        0.245        0.109       51.607       21.176        0.168      348.719       28.620      860.675
08/21/2013  16:05:00       13.759       -7.602       13.755       33.919       34.500       27.074     1150.501     1190.260      732.981        0.175        0.154       15.720       13.854        0.777      348.498       28.240      860.680
08/21/2013  16:06:00       49.487      -15.425        1.666       35.400       36.157       25.544     1253.191     1307.341      652.487        0.295        0.161       51.835       20.429        0.155      348.324       27.938      860.696
08/21/2013  16:07:00       64.776       81.386       49.276       47.304       46.588       39.493     2237.703     2170.469     1559.734        0.961        0.298      104.018       27.696        0.071      348.609       28.431      860.702
08/21/2013  16:08:00       31.677      -17.852        0.422       34.046       45.980       22.581     1159.104     2114.205      509.900        0.255        0.189       36.361       18.255        0.252      348.399       28.067      860.738
08/21/2013  16:09:00       27.141      -35.108       18.062       34.774       50.303       28.923     1209.198     2530.421      836.554        0.344        0.229       44.376       31.057        0.490      348.457       28.167      860.771
08/21/2013  16:10:00      -28.056      -71.846        2.827       61.265       52.243       33.629     3753.407     2729.308     1130.878        0.678        0.381       77.130       36.199        0.220      348.769       28.706      860.804
08/21/2013  16:11:00      -20.911      -66.676       -6.505       36.792       48.437       28.390     1353.633     2346.129      805.994        0.471        0.225       69.878       27.519        0.155      348.789       28.742      860.843
08/21/2013  16:12:00      -44.893      -54.342        7.931       38.680       39.399       26.839     1496.110     1552.311      720.312        0.440        0.188       70.487       14.982        0.045      348.772       28.711      860.870
08/21/2013  16:13:00      -61.171      -82.522        9.457       45.936       55.973       26.244     2110.135     3132.986      688.758        0.829        0.297      102.722       20.333        0.039      348.681       28.555      860.903
08/21/2013  16:14:00     -102.327      -82.493       -3.020       61.506       48.626       28.165     3782.930     2364.509      793.268        1.211        0.347      131.438       27.411        0.043      348.709       28.604      860.918
08/21/2013  16:15:00     -120.992     -152.208       -3.578       50.339       58.577       36.680     2534.042     3431.232     1345.441        2.256        0.366      194.439       33.197        0.029      348.751       28.674      860.927
08/21/2013  16:16:00     -157.922      -96.370       -5.382       90.597       65.383       37.497     8207.890     4274.925     1406.046        2.407        0.694      185.004       32.327        0.031      348.765       28.697      860.930
08/21/2013  16:17:00     -129.388     -115.804       -1.669       55.916       72.358       30.043     3126.584     5235.663      902.609        1.971        0.463      173.643       31.416        0.033      348.698       28.583      860.928
08/21/2013  16:18:00      -33.172      -42.042       12.414       65.846       45.131       32.914     4335.658     2036.815     1083.344        0.524        0.373       53.553       27.039        0.255      348.768       28.704      860.920
08/21/2013  16:19:00     -115.389      -12.892        5.928       26.799       38.502       25.036      718.202     1482.397      626.824        0.817        0.141      116.107       24.602        0.045      348.666       28.528      860.906
08/21/2013  16:20:00     -100.016       -9.048        5.600       65.464       35.047       28.526     4285.595     1228.279      813.732        0.822        0.316      100.425       35.560        0.125      348.732       28.643      860.894
08/21/2013  16:21:00      -81.686       43.820        4.204       60.821       42.468       34.781     3699.233     1803.570     1209.748        0.766        0.336       92.698       28.064        0.092      348.737       28.652      860.886
08/21/2013  16:22:00      -78.123       16.423       -3.511       30.520       44.108       21.712      931.490     1945.549      471.392        0.487        0.167       79.831       21.056        0.070      348.722       28.625      860.850
08/21/2013  16:23:00     -128.759      -40.642       -3.722       41.368       50.674       24.659     1711.342     2567.847      608.063        1.157        0.244      135.021       24.152        0.032      348.734       28.644      860.833
08/21/2013  16:24:00     -116.673      -21.795        0.521       59.409       47.575       33.549     3529.457     2263.403     1125.560        1.050        0.346      118.691       29.303        0.061      348.716       28.613      860.831
08/21/2013  16:25:00     -143.354      -32.096       -7.152       71.219       50.414       33.809     5072.194     2541.611     1143.037        1.519        0.438      146.903       40.640        0.077      348.695       28.578      860.817
08/21/2013  16:26:00     -266.243      -58.856      -19.595      113.341       75.030       52.916    12846.103     5629.511     2800.058        4.800        1.064      272.671       48.429        0.032      348.670       28.532      860.817
08/21/2013  16:27:00     -255.333      -82.844       -4.754      138.258      119.366       55.441    19115.202    14248.264     3073.706        5.425        1.822      268.436       64.797        0.058      348.648       28.495      860.774
08/21/2013  16:28:00     -254.882      -84.383        0.157      107.445       92.680       53.062    11544.354     8589.525     2815.544        4.751        1.147      268.487       54.549        0.041      348.638       28.476      860.770
08/21/2013  16:29:00     -306.884      -81.116      -21.710      110.735       94.728       48.172    12262.280     8973.308     2320.511        6.239        1.178      317.423       57.218        0.032      348.626       28.455      860.751
08/21/2013  16:30:00     -245.768       29.880      -33.054      103.138       60.895       36.060    10637.399     3708.193     1300.326        3.901        0.782      247.578       41.523        0.028      348.655       28.508      860.737
08/21/2013  16:31:00     -253.497      -36.504      -34.945       83.379       74.396       38.690     6952.118     5534.716     1496.952        4.040        0.699      256.112       35.637        0.019      348.644       28.487      860.733
08/21/2013  16:32:00     -151.588       28.306      -12.584       62.181       53.327       33.129     3866.533     2843.726     1097.528        1.587        0.390      154.208       31.696        0.042      348.673       28.539      860.742
08/21/2013  16:33:00      -98.283       49.157       -0.594       52.054       60.194       51.902     2709.619     3623.375     2693.864        1.055        0.451      109.890       29.860        0.074      348.734       28.646      860.744
08/21/2013  16:34:00     -150.823       -7.623      -14.780       65.645       43.831       37.410     4309.273     1921.145     1399.520        1.533        0.381      151.016       37.473        0.062      348.718       28.616      860.756
08/21/2013  16:35:00     -143.560      -40.001        1.685       56.313       44.910       37.683     3171.141     2016.867     1420.011        1.441        0.330      149.029       29.195        0.038      348.766       28.701      860.780
08/21/2013  16:36:00      -88.318      -17.048       -4.858       50.349       46.603       31.443     2535.072     2171.798      988.652        0.690        0.285       89.948       31.986        0.126      348.849       28.845      860.799
08/21/2013  16:37:00     -259.304      -53.356      -17.225      121.839       49.413       49.060    14844.791     2441.599     2406.899        4.503        0.985      264.736       61.362        0.054      348.844       28.835      860.821
08/21/2013  16:38:00     -237.363     -120.025      -11.822      131.865       97.173       61.900    17388.258     9442.688     3831.588        5.077        1.533      265.983       60.818        0.052      348.932       28.985      860.837
08/21/2013  16:39:00     -171.177      -26.750      -12.569      129.197      144.741       71.722    16691.761    20950.040     5144.025        3.647        2.139      173.254       53.791        0.096      348.713       28.607      860.875
08/21/2013  16:40:00     -146.081        6.677       -8.029       96.381       65.169       48.344     9289.319     4247.019     2337.096        1.866        0.794      146.234       50.566        0.120      348.549       28.323      860.902
08/21/2013  16:41:00      -92.843      -17.673       15.371       82.172       54.647       42.340     6752.272     2986.276     1792.654        1.035        0.577       94.510       36.629        0.150      348.732       28.642      860.858
08/21/2013  16:42:00     -195.505      -86.901      -24.639      119.851      106.819       72.372    14364.343    11410.223     5237.659        3.869        1.551      213.948       58.642        0.075      348.608       28.425      860.834
08/21/2013  16:43:00     -224.555       45.604        5.221      139.411      135.771       92.500    19435.362    18433.681     8556.273        4.947        2.321      229.139       94.230        0.169      348.705       28.594      860.786
08/21/2013  16:44:00     -191.289      289.888      -39.952      128.150      145.264       84.719    16422.517    21101.522     7177.330        8.345        2.235      347.313       75.703        0.048      348.553       28.329      860.802
08/21/2013  16:45:00     -203.006      271.428      -39.931      109.603      166.243       73.759    12012.740    27636.777     5440.380        8.078        2.254      338.946       69.349        0.042      348.588       28.389      860.797
08/21/2013  16:46:00     -223.026       93.694      -34.710      112.749      146.925       64.564    12712.246    21587.046     4168.450        4.909        1.923      241.907       24.246        0.010      348.548       28.321      860.815
08/21/2013  16:47:00     -115.195       14.408        6.346      134.704       92.130       51.663    18145.085     8487.848     2669.103        2.141        1.465      116.093       53.881        0.215      348.468       28.185      860.827
08/21/2013  16:48:00     -101.144       81.926      -10.150       97.006      180.789       58.423     9410.222    32684.543     3413.238        3.127        2.275      130.161       25.430        0.038      348.421       28.101      860.828
08/21/2013  16:49:00      -98.533      171.694      -11.609      106.449      132.314       59.259    11331.289    17507.012     3511.652        3.583        1.617      197.959       51.420        0.067      348.413       28.089      860.807
08/21/2013  16:50:00     -213.344      145.515      -29.759      172.548      170.782       72.791    29772.721    29166.540     5298.506        6.590        3.212      258.245       74.645        0.084      348.428       28.112      860.808
08/21/2013  16:51:00     -172.064      219.743      -29.897      114.959      198.070       71.967    13215.581    39231.666     5179.227        6.820        2.881      279.093       84.289        0.091      348.349       27.978      860.816
08/21/2013  16:52:00     -233.628      204.818      -34.667      147.342      199.246       73.367    21709.645    39698.781     5382.700        8.225        3.340      310.697       65.766        0.045      348.275       27.850      860.807
08/21/2013  16:53:00     -271.149      348.963      -62.815      136.236      182.139       95.812    18560.166    33174.521     9179.877       13.007        3.046      441.925       84.304        0.036      348.070       27.493      860.820
08/21/2013  16:54:00     -315.961      266.287      -62.654      135.110      164.815       82.528    18254.595    27164.130     6810.866       11.344        2.611      413.207       69.385        0.028      348.057       27.472      860.796
08/21/2013  16:55:00     -267.592      202.926      -41.774      138.729      175.111       86.948    19245.625    30663.829     7560.032        8.599        2.873      335.834       64.381        0.037      348.143       27.619      860.792
08/21/2013  16:56:00     -191.936      147.839      -28.070      124.226      136.264       72.669    15432.206    18567.948     5280.761        4.938        1.964      242.273       80.478        0.110      348.205       27.728      860.803
08/21/2013  16:57:00     -142.852      204.312      -24.149      136.027      153.431       77.453    18503.300    23541.126     5999.033        5.538        2.402      249.299       70.024        0.079      348.199       27.718      860.794
08/21/2013  16:58:00     -190.805      286.337      -21.134      144.669      164.852       96.660    20928.981    27176.126     9343.123        8.814        2.872      344.086       95.039        0.076      348.042       27.446      860.823
08/21/2013  16:59:00     -201.466      338.148      -39.249      117.359      145.415       78.129    13773.063    21145.666     6104.195        9.874        2.051      393.615       56.381        0.021      348.013       27.395      860.813
08/21/2013  17:00:00     -328.264      323.994      -60.985      203.118      223.233      111.489    41256.870    49833.052    12429.729       15.997        5.176      461.226      112.215        0.059      347.989       27.354      860.826
08/21/2013  17:01:00     -340.124      238.014      -59.491      187.476      139.592       90.764    35147.314    19485.860     8238.102       11.936        3.144      415.133       97.356        0.055      348.004       27.380      860.855
08/21/2013  17:02:00     -331.640      242.128      -47.361      174.601      156.246       87.117    30485.509    24412.961     7589.366       11.666        3.124      410.622       74.589        0.033      348.072       27.497      860.831
08/21/2013  17:03:00     -124.891      147.451      -28.780      101.631      115.520       70.608    10328.951    13344.821     4985.516        3.341        1.433      193.234       72.510        0.141      348.193       27.709      860.837
08/21/2013  17:04:00     -239.821      344.980      -37.999      164.665      205.434       92.781    27114.492    42203.183     8608.324       12.793        3.896      420.150      101.462        0.058      348.104       27.553      860.841
08/21/2013  17:05:00     -225.603      326.739      -21.452      182.408      241.084      109.284    33272.516    58121.450    11943.054       13.071        5.167      397.058      117.083        0.087      348.090       27.527      860.851
08/21/2013  17:06:00     -387.142      313.931      -73.711      183.105      201.409       89.836    33527.573    40565.410     8070.423       16.800        4.108      498.429       90.764        0.033      347.962       27.307      860.860
08/21/2013  17:07:00     -283.840      326.467      -53.278      145.747      191.729       93.730    21242.289    36760.192     8785.264       12.837        3.339      432.604       87.850        0.041      348.046       27.452      860.873
08/21/2013  17:08:00     -319.111      191.169      -49.858      165.108      122.854       85.743    27260.490    15093.178     7351.823        9.528        2.485      371.991       59.397        0.025      348.108       27.559      860.880
08/21/2013  17:09:00     -166.685      166.130      -30.807      107.563       86.686       53.217    11569.730     7514.433     2832.069        3.912        1.096      235.336       34.998        0.022      348.274       27.848      860.874
08/21/2013  17:10:00     -133.677      166.794      -35.070       92.968      130.411       58.854     8642.959    17007.145     3463.778        3.801        1.456      213.751       64.012        0.090      348.281       27.860      860.883
08/21/2013  17:11:00     -216.780      242.049      -38.314      131.331      114.046       74.121    17247.766    13006.457     5493.971        7.139        1.787      324.933       75.975        0.055      348.309       27.908      860.875
08/21/2013  17:12:00     -218.537      431.144      -60.584      141.775      183.663       81.704    20100.247    33731.949     6675.520       14.890        3.025      483.367       85.289        0.031      348.172       27.671      860.883
08/21/2013  17:13:00     -298.927      383.609      -74.277      191.323      207.756       90.470    36604.304    43162.754     8184.903       16.498        4.398      486.326       99.512        0.042      348.181       27.687      860.889
08/21/2013  17:14:00     -322.564      361.583      -68.737      167.682      169.888       91.558    28117.291    28861.849     8382.841       15.243        3.268      484.551       96.468        0.040      348.231       27.773      860.899
08/21/2013  17:15:00     -179.423      225.385      -28.669      136.362      172.055       77.911    18594.604    29602.913     6070.104        6.903        2.713      288.081       70.816        0.060      348.329       27.942      860.900
08/21/2013  17:16:00     -298.529      488.451      -69.375      181.610      195.021       96.153    32982.176    38033.065     9245.457       20.638        4.013      572.454      114.926        0.040      348.139       27.612      860.914
08/21/2013  17:17:00     -270.793      343.050      -58.137      164.929      181.515       93.571    27201.463    32947.804     8755.482       13.164        3.445      437.049      101.852        0.054      348.159       27.648      860.907
08/21/2013  17:18:00     -226.512      358.305      -35.891      169.478      182.407       89.142    28722.950    33272.165     7946.262       12.545        3.497      423.899       91.941        0.047      348.254       27.812      860.893
08/21/2013  17:19:00     -272.474      390.044      -58.233      138.557      221.315       88.303    19198.068    48980.243     7797.477       15.286        3.799      475.790       87.132        0.034      348.275       27.849      860.893
08/21/2013  17:20:00     -379.697      353.318      -67.799      196.309      176.343      104.996    38537.206    31096.886    11024.169       17.712        4.033      518.656      115.758        0.050      348.186       27.694      860.905
08/21/2013  17:21:00     -318.603      352.332      -50.749      149.994      194.100       97.396    22498.270    37674.807     9486.038       14.893        3.483      475.022       94.131        0.039      348.277       27.851      860.893
08/21/2013  17:22:00     -274.392      288.549      -64.387      130.468      135.140       68.304    17022.004    18262.857     4665.502       10.132        1.998      398.186       67.954        0.029      348.414       28.088      860.886
08/21/2013  17:23:00     -233.642      381.522      -44.897      121.543      197.570       85.632    14772.654    39034.058     7332.804       13.164        3.057      447.379       77.950        0.030      348.346       27.972      860.894
08/21/2013  17:24:00     -319.420      386.808      -75.844      137.108      174.060       85.436    18798.591    30297.040     7299.277       15.689        2.820      501.647       93.278        0.035      348.327       27.939      860.897
08/21/2013  17:25:00     -332.915      316.088      -67.781      179.510      189.737       89.565    32223.976    36000.254     8021.877       14.578        3.812      459.069      109.321        0.057      348.261       27.824      860.902
08/21/2013  17:26:00     -277.588      427.323      -70.832      167.125      162.305       93.026    27930.902    26342.893     8653.823       16.379        3.146      509.568       94.093        0.034      348.208       27.732      860.907
08/21/2013  17:27:00     -153.774      463.051      -41.748      105.292      225.486       78.729    11086.428    50843.835     6198.180       15.396        3.406      487.916       86.979        0.032      348.295       27.882      860.912
08/21/2013  17:28:00     -218.063      332.000      -39.101      142.815      177.069       75.630    20396.092    31353.560     5719.916       10.838        2.873      397.209       63.840        0.026      348.318       27.922      860.933
08/21/2013  17:29:00     -266.415      412.909      -57.659      163.328      166.144      100.102    26676.026    27603.829    10020.340       15.454        3.215      491.396      104.500        0.045      348.115       27.572      860.983
08/21/2013  17:30:00     -235.813      326.062      -36.062      139.680      202.091       93.470    19510.377    40840.725     8736.677       11.614        3.454      402.398       91.157        0.051      348.044       27.449      860.998
08/21/2013  17:31:00     -266.714      299.932      -52.855      142.965      140.606       88.923    20439.095    19769.960     7907.217       10.599        2.406      401.367       92.443        0.053      348.059       27.475      861.024
08/21/2013  17:32:00     -308.147      440.458      -63.733      182.474      191.153       93.409    33296.783    36539.475     8725.259       18.578        3.928      537.548       90.422        0.028      347.926       27.247      861.059
08/21/2013  17:33:00     -285.674      162.315      -54.323      219.594      151.422      101.871    48221.662    22928.713    10377.689        9.620        4.076      328.566      115.832        0.124      347.916       27.228      861.088
08/21/2013  17:34:00     -314.918      359.913      -55.556      174.841      171.666      110.661    30569.232    29469.131    12245.887       15.203        3.614      478.237       98.561        0.042      347.805       27.037      861.109
08/21/2013  17:35:00     -287.091      314.790      -22.226      228.051      174.775      135.194    52007.296    30546.365    18277.391       14.140        5.042      426.045      131.873        0.096      347.767       26.970      861.133
08/21/2013  17:36:00     -176.983      114.130      -11.077      139.003      159.565       85.919    19321.971    25460.891     7382.160        4.831        2.608      210.591       66.848        0.101      347.827       27.074      861.155
08/21/2013  17:37:00     -321.848      315.987      -53.349      189.336      199.543       99.085    35848.032    39817.250     9817.747       14.587        4.274      451.036      117.655        0.068      347.660       26.787      861.246
08/21/2013  17:38:00     -327.567      287.298      -80.108      192.369      232.787       89.045    37005.653    54189.908     7929.078       14.767        4.956      435.707      104.154        0.057      347.661       26.789      861.296
08/21/2013  17:39:00     -291.562      316.616      -57.061      156.982      161.364       87.393    24643.465    26038.373     7637.521       12.340        2.916      430.411       82.053        0.036      347.590       26.667      861.347
08/21/2013  17:40:00     -296.271      347.877      -49.241      188.540      175.350       90.897    35547.415    30747.541     8262.309       14.288        3.728      456.941      110.868        0.059      347.577       26.644      861.383
08/21/2013  17:41:00     -295.639      338.805      -55.784      174.938      216.659      100.319    30603.382    46941.077    10063.810       14.644        4.380      449.656      117.594        0.068      347.512       26.531      861.388
08/21/2013  17:42:00     -214.818      255.985      -37.844      146.447      160.458       78.730    21446.781    25746.879     6198.334        8.324        2.670      334.178       74.827        0.050      347.586       26.658      861.386
08/21/2013  17:43:00     -190.943      472.346      -53.368      110.809      145.499       79.181    12278.719    21170.078     6269.562       15.106        1.986      509.480       62.863        0.015      347.506       26.521      861.374
08/21/2013  17:44:00     -146.277      306.940      -20.842      119.097      137.067       76.330    14184.198    18787.407     5826.241        7.741        1.940      340.013       76.372        0.050      347.590       26.667      861.335
08/21/2013  17:45:00     -185.195      265.938      -32.085      149.036      121.283       74.097    22211.855    14709.448     5490.417        7.422        2.121      324.068       80.197        0.061      347.621       26.720      861.293
08/21/2013  17:46:00     -226.224      375.324      -49.545      131.748      183.889       91.885    17357.629    33815.105     8442.836       12.705        2.981      438.230       91.246        0.043      347.599       26.681      861.267
08/21/2013  17:47:00     -151.530      274.415      -10.889      103.621      130.038       69.182    10737.343    16909.844     4786.197        6.540        1.622      313.472       65.226        0.043      347.564       26.621      861.261
08/21/2013  17:48:00     -186.829      355.587      -29.491      124.850      239.334       85.553    15587.403    57280.763     7319.249       12.119        4.009      401.680      103.990        0.067      347.464       26.449      861.246
08/21/2013  17:49:00     -314.935      356.045      -89.323      155.014      161.593       88.498    24029.363    26112.256     7831.973       14.594        2.899      475.344      101.545        0.046      347.417       26.367      861.251
08/21/2013  17:50:00     -275.984      362.392      -48.210      156.160      163.185      103.376    24385.885    26629.250    10686.671       13.575        3.085      455.516      104.276        0.052      347.378       26.300      861.268
08/21/2013  17:51:00     -202.574      328.972      -30.364      153.180      151.638       94.258    23464.036    22994.136     8884.510       10.275        2.767      386.340       93.140        0.058      347.359       26.268      861.310
08/21/2013  17:52:00     -240.548      290.489      -28.830      178.485      192.366       97.837    31856.794    37004.759     9572.111       11.074        3.922      377.157      108.150        0.082      347.346       26.243      861.287
08/21/2013  17:53:00     -360.480      309.238      -75.145      176.544      159.744       86.890    31167.852    25518.016     7549.882       14.772        3.212      474.947       93.468        0.039      347.265       26.105      861.318
08/21/2013  17:54:00     -248.936      163.397      -34.771      110.573      164.203       76.863    12226.404    26962.503     5907.864        6.748        2.255      297.771       46.960        0.025      347.285       26.139      861.319
08/21/2013  17:55:00     -181.096      105.304      -13.227      146.300      125.736       81.710    21403.833    15809.596     6676.513        4.397        2.194      209.487       90.154        0.185      347.341       26.236      861.356
08/21/2013  17:56:00     -168.784      253.470      -29.520      108.361      129.676       71.702    11742.078    16815.758     5141.228        6.365        1.685      304.524       78.057        0.066      347.332       26.221      861.388
08/21/2013  17:57:00     -167.435      195.080      -25.610      103.571      194.126       73.935    10727.033    37684.729     5466.424        6.030        2.694      257.081       68.847        0.072      347.317       26.196      861.410
08/21/2013  17:58:00     -196.431      321.402      -51.378      128.209      143.758       71.549    16437.488    20666.366     5119.212        9.337        2.111      376.676       80.194        0.045      347.312       26.186      861.448
08/21/2013  17:59:00     -188.234      185.044      -44.305      141.332      101.077       80.664    19974.657    10216.546     6506.631        5.416        1.835      263.957       64.572        0.060      347.318       26.198      861.480
08/21/2013  18:00:00     -155.582      116.957      -20.080       98.335      122.730       50.706     9669.772    15062.621     2571.113        3.279        1.365      194.641       46.816        0.058      347.352       26.257      861.488
08/21/2013  18:01:00     -210.295      312.369      -44.259      144.911      126.079       81.145    20999.333    15895.997     6584.574        9.361        2.174      376.561       78.310        0.043      347.285       26.140      861.502
08/21/2013  18:02:00     -152.026      426.161      -47.963      136.628      122.776       73.478    18667.188    15073.963     5398.977       12.308        1.957      452.466       71.280        0.025      347.298       26.161      861.551
08/21/2013  18:03:00     -155.979      355.245      -48.805      118.909      169.115       75.784    14139.390    28599.804     5743.167       10.069        2.424      387.980       68.834        0.031      347.273       26.119      861.557
08/21/2013  18:04:00     -126.624      297.957      -38.316       94.907      133.306       74.717     9007.409    17770.529     5582.597        6.931        1.618      323.747       53.275        0.027      347.261       26.097      861.573
08/21/2013  18:05:00     -171.482      427.534      -50.477      153.155      148.453       82.449    23456.462    22038.182     6797.837       13.351        2.615      460.643       87.442        0.036      347.157       25.920      861.577
08/21/2013  18:06:00     -278.194      464.039      -73.162      189.650      175.015       91.194    35966.995    30630.348     8316.413       18.648        3.746      541.040      103.495        0.037      347.088       25.799      861.580
08/21/2013  18:07:00     -134.924      369.700      -42.170       91.601      166.612       82.691     8390.692    27759.412     6837.769        9.982        2.149      393.551       78.364        0.040      347.027       25.694      861.609
08/21/2013  18:08:00     -191.385      565.040      -64.591      149.805      191.250       93.959    22441.670    36576.576     8828.262       21.395        3.392      596.573       80.887        0.018      346.905       25.485      861.641
08/21/2013  18:09:00     -192.752      401.746      -42.817      117.405      189.746       86.838    13784.016    36003.473     7540.878       12.885        2.866      445.593       79.314        0.032      346.858       25.404      861.692
08/21/2013  18:10:00     -176.855      467.645      -42.590      144.610      210.171       99.639    20912.161    44171.739     9927.946       16.339        3.751      499.970       90.162        0.033      346.803       25.311      861.700
08/21/2013  18:11:00     -200.961      275.616      -44.944      121.068      144.474       63.319    14657.539    20872.695     4009.333        7.895        1.977      341.100       68.564        0.040      346.830       25.356      861.705
08/21/2013  18:12:00     -199.953      319.188      -50.728      166.922      169.730       85.640    27863.114    28808.316     7334.213       10.421        3.200      376.647       98.336        0.068      346.802       25.307      861.707
08/21/2013  18:13:00     -131.835      192.654      -26.629       93.113      145.618       60.495     8669.987    21204.709     3659.653        4.436        1.677      233.444       60.561        0.067      346.807       25.318      861.703
08/21/2013  18:14:00     -133.994      400.937      -42.379      120.135      128.835       77.587    14432.450    16598.419     6019.771       10.877        1.853      422.735       67.048        0.025      346.724       25.172      861.678
08/21/2013  18:15:00     -223.421      279.166      -48.891      150.963      198.480       82.428    22789.883    39394.240     6794.325        9.960        3.449      357.562       87.566        0.060      346.707       25.144      861.649
08/21/2013  18:16:00     -221.466      412.872      -48.428      189.893      191.522      102.404    36059.506    36680.797    10486.540       15.253        4.161      468.520      120.449        0.066      346.666       25.073      861.657
08/21/2013  18:17:00     -129.057      404.453      -26.401      126.392      247.721       90.298    15974.923    61365.890     8153.697       13.320        4.275      424.544      101.829        0.058      346.629       25.010      861.620
08/21/2013  18:18:00     -224.593      339.265      -50.975      158.819      190.891       96.784    25223.538    36439.374     9367.228       11.957        3.552      406.870       95.133        0.055      346.587       24.938      861.606
08/21/2013  18:19:00     -222.365      374.845      -60.385      139.746      153.082       87.973    19529.003    23434.192     7739.255       12.214        2.535      435.838       91.180        0.044      346.549       24.875      861.627
08/21/2013  18:20:00     -180.053      433.536      -36.881      139.114      186.120      106.155    19352.612    34640.714    11268.972       14.349        3.263      469.439       97.454        0.043      346.515       24.816      861.604
08/21/2013  18:21:00     -236.005      405.064      -61.460      134.074      163.710       89.099    17975.908    26801.095     7938.630       13.813        2.636      468.802       81.640        0.030      346.495       24.781      861.575
08/21/2013  18:22:00     -238.612      345.035      -63.121      168.326      123.624       87.998    28333.509    15282.978     7743.680       11.566        2.568      419.505       84.743        0.041      346.461       24.721      861.542
08/21/2013  18:23:00     -230.170      322.888      -54.211      127.062      148.703       76.963    16144.830    22112.523     5923.288       10.217        2.209      396.529       72.754        0.034      346.469       24.735      861.489
08/21/2013  18:24:00     -255.830      361.001      -54.853      116.042      108.673       85.150    13465.696    11809.792     7250.475       11.565        1.626      442.459       81.661        0.034      346.478       24.749      861.451
08/21/2013  18:25:00     -404.847      509.591     -103.297      137.587      207.698       94.330    18930.120    43138.497     8898.233       25.260        3.548      650.833       93.185        0.021      346.443       24.691      861.450
08/21/2013  18:26:00     -220.945      255.524      -40.105      140.822      131.800       76.435    19830.897    17371.218     5842.327        7.937        2.152      337.801       72.791        0.046      346.439       24.683      861.465
08/21/2013  18:27:00     -258.001      370.560      -58.727      120.762      148.291       81.474    14583.519    21990.269     6637.972       12.526        2.161      451.530       67.104        0.022      346.414       24.640      861.458
08/21/2013  18:28:00     -192.829      308.552      -39.719      126.402      210.033       76.762    15977.390    44113.755     5892.440        9.996        3.299      363.850       80.270        0.049      346.401       24.618      861.448
08/21/2013  18:29:00     -229.031      287.514      -50.205      119.172      142.760       90.617    14201.936    20380.423     8211.474        9.021        2.140      367.586       84.324        0.053      346.388       24.595      861.451
08/21/2013  18:30:00     -211.313      324.723      -58.591      107.303      132.812       67.570    11514.040    17639.052     4565.660        9.362        1.686      387.425       59.575        0.024      346.401       24.617      861.482
08/21/2013  18:31:00     -224.761      304.714      -32.279      170.930      221.597       93.010    29217.110    49105.215     8650.855       11.568        4.349      378.640       96.138        0.064      346.366       24.558      861.476
08/21/2013  18:32:00     -266.335      252.070      -54.349      158.470      165.447       80.491    25112.753    27372.598     6478.770        9.819        2.948      366.706       88.428        0.058      346.336       24.508      861.474
08/21/2013  18:33:00     -374.602      481.080      -80.645      152.056      227.896      101.078    23120.967    51936.674    10216.863       23.176        4.264      609.725       99.243        0.026      346.259       24.373      861.507
08/21/2013  18:34:00     -259.005      370.836      -44.660      160.759      197.718       92.127    25843.323    39092.563     8487.365       14.000        3.671      452.330       85.748        0.036      346.239       24.339      861.523
08/21/2013  18:35:00     -253.406      240.258      -50.121      125.747      153.250       79.531    15812.259    23485.514     6325.207        8.503        2.281      349.197       83.627        0.057      346.242       24.344      861.514
08/21/2013  18:36:00     -282.480      383.195      -75.087      122.784      130.110       82.511    15075.960    16928.517     6808.062       13.554        1.941      476.060       74.447        0.024      346.203       24.277      861.494
08/21/2013  18:37:00     -219.913      310.197      -57.248      167.058      154.261       76.519    27908.213    23796.363     5855.198       10.270        2.878      380.242       74.916        0.039      346.194       24.261      861.492
08/21/2013  18:38:00     -224.518      262.265      -34.223      128.703      137.329       69.337    16564.364    18859.120     4807.662        8.029        2.012      345.241       62.424        0.033      346.188       24.251      861.524
08/21/2013  18:39:00     -237.455      220.487      -44.420      135.701      112.326       61.664    18414.885    12617.182     3802.474        7.090        1.742      324.036       74.362        0.053      346.190       24.255      861.534
08/21/2013  18:40:00     -289.630      307.253      -49.392      148.820      206.186       82.178    22147.311    42512.639     6753.280       12.606        3.571      422.244       71.228        0.028      346.168       24.216      861.566
08/21/2013  18:41:00     -350.419      369.715      -84.914      194.961      226.359       89.990    38009.808    51238.471     8098.223       18.200        4.867      509.394      115.327        0.051      346.138       24.165      861.585
08/21/2013  18:42:00     -339.127      464.297      -80.671      139.066      181.403       88.886    19339.427    32907.211     7900.777       19.861        3.007      574.960       91.764        0.025      346.117       24.128      861.590
08/21/2013  18:43:00     -236.412      367.906      -54.486      110.606      124.095       82.886    12233.772    15399.505     6870.156       11.435        1.725      437.316       69.664        0.025      346.136       24.162      861.614
08/21/2013  18:44:00     -139.034      275.052      -22.397      109.599      157.093       76.574    12011.874    24678.243     5863.614        6.901        2.128      308.195       83.015        0.073      346.146       24.181      861.622
08/21/2013  18:45:00     -170.429      415.931      -57.276      106.050      196.473       72.944    11246.559    38601.769     5320.793       13.024        2.758      449.493       71.340        0.025      346.147       24.181      861.610
08/21/2013  18:46:00     -202.124      205.494      -42.232      105.232      156.395       72.290    11073.705    24459.384     5225.907        6.281        2.038      288.239       76.421        0.070      346.160       24.206      861.625
08/21/2013  18:47:00     -272.435      280.315      -61.475      131.650      124.153       66.303    17331.675    15413.844     4396.080        9.685        1.857      390.892       68.253        0.030      346.151       24.189      861.616
08/21/2013  18:48:00     -219.449      281.655      -47.883      111.111       97.539       68.050    12345.549     9513.903     4630.846        7.813        1.325      357.054       57.885        0.026      346.160       24.204      861.615
08/21/2013  18:49:00     -244.893      285.896      -42.899      118.900      154.140       83.823    14137.276    23759.107     7026.234        9.423        2.246      376.443       88.752        0.056      346.181       24.241      861.589
08/21/2013  18:50:00     -237.022      172.105      -29.454      161.507      146.034       80.031    26084.561    21325.862     6404.957        7.023        2.691      292.916       88.179        0.091      346.189       24.254      861.570
08/21/2013  18:51:00     -142.490      187.566      -24.793       95.380      150.451       66.935     9097.431    22635.493     4480.253        4.615        1.811      235.552       60.946        0.067      346.213       24.295      861.583
08/21/2013  18:52:00     -169.847      287.213      -32.236      127.101      152.668       75.599    16154.553    23307.456     5715.243        7.877        2.259      333.675       79.976        0.057      346.219       24.305      861.603
08/21/2013  18:53:00     -161.025      285.089      -27.445      113.045      158.385       75.318    12779.171    25085.660     5672.839        7.574        2.177      327.422       63.731        0.038      346.192       24.261      861.611
08/21/2013  18:54:00     -130.761      253.363      -27.385       72.942      126.193       61.727     5320.509    15924.561     3810.163        5.354        1.253      285.116       50.867        0.032      346.206       24.282      861.635
08/21/2013  18:55:00     -190.121      202.781      -38.800      149.682      110.341       80.181    22404.640    12175.047     6429.036        5.988        2.050      277.968       69.281        0.062      346.202       24.274      861.648
08/21/2013  18:56:00     -274.029      300.139      -59.507      108.160      180.802       70.374    11698.563    32689.256     4952.534       10.902        2.467      406.418       72.561        0.032      346.191       24.257      861.662
08/21/2013  18:57:00     -226.892      207.403      -26.180       98.721      119.552       70.251     9745.901    14292.764     4935.160        6.207        1.449      307.402       70.450        0.053      346.208       24.285      861.673
08/21/2013  18:58:00     -268.386      259.432      -67.152      130.128      138.084       73.330    16933.245    19067.237     5377.311        9.260        2.069      373.277       84.077        0.051      346.225       24.315      861.692
08/21/2013  18:59:00     -224.454      181.056      -57.837      139.536      123.176       52.092    19470.197    15172.234     2713.545        6.192        1.868      288.377       58.638        0.041      346.230       24.324      861.719
08/21/2013  19:00:00     -247.646      102.306      -31.792      144.862       79.127       52.180    20984.984     6261.011     2722.754        5.138        1.498      267.946       58.355        0.047      346.241       24.342      861.728
08/21/2013  19:01:00     -213.099       18.310      -31.053      117.871       79.990       56.946    13893.509     6398.404     3242.850        3.512        1.177      213.884       40.499        0.036      346.237       24.335      861.716
08/21/2013  19:02:00     -188.143      221.599      -33.740      147.363       98.553       74.439    21715.921     9712.738     5541.179        6.130        1.848      290.695       89.473        0.095      346.180       24.239      861.711
08/21/2013  19:03:00     -139.837       76.769      -16.228      103.512      117.720       60.041    10714.778    13857.942     3604.889        2.694        1.409      159.524       53.819        0.114      346.213       24.295      861.668
08/21/2013  19:04:00     -188.847      191.732      -22.741       86.761      107.825       67.117     7527.487    11626.315     4504.677        4.830        1.183      269.118       48.918        0.033      346.210       24.288      861.660
08/21/2013  19:05:00     -160.089       79.279      -19.516      106.010      101.843       62.708    11238.054    10371.943     3932.245        2.891        1.277      178.644       48.513        0.074      346.244       24.350      861.648
08/21/2013  19:06:00     -200.774      244.416      -14.781      123.016      191.617       79.502    15133.055    36717.235     6320.634        7.921        2.909      316.306       56.328        0.032      346.203       24.276      861.678
08/21/2013  19:07:00     -156.875      -20.351        2.601      108.804      131.497       78.920    11838.362    17291.501     6228.379        3.019        1.768      158.189       49.076        0.096      346.230       24.325      861.673
08/21/2013  19:08:00     -223.277       51.194      -36.517      106.282      143.283       81.561    11295.813    20529.895     6652.212        4.614        1.924      229.071       40.454        0.031      346.226       24.315      861.668
08/21/2013  19:09:00     -122.615       74.611      -30.473       83.967       80.858       61.134     7050.521     6538.014     3737.330        1.942        0.866      143.532       30.653        0.046      346.234       24.334      861.663
08/21/2013  19:10:00     -301.086       45.161      -57.693      157.603      162.330       71.960    24838.791    26350.915     5178.312        7.618        2.818      304.454       42.416        0.019      346.212       24.292      861.653
08/21/2013  19:11:00     -241.173       89.893      -16.357      151.177       93.796       79.334    22854.542     8797.653     6293.842        5.222        1.897      257.381       82.384        0.102      346.177       24.234      861.657
08/21/2013  19:12:00     -187.415      -14.698      -24.351      150.627      107.043       91.065    22688.390    11458.203     8292.835        3.918        2.122      187.990       80.868        0.185      346.187       24.252      861.615
08/21/2013  19:13:00     -173.060       49.019      -11.328       99.336      126.217       80.346     9867.652    15930.695     6455.420        3.236        1.613      179.869       71.187        0.157      346.156       24.200      861.592
08/21/2013  19:14:00      -60.988      151.055       -9.313       47.428       83.146       48.347     2249.400     6913.229     2337.417        1.906        0.575      162.902       29.395        0.033      346.148       24.186      861.599
08/21/2013  19:15:00     -214.230       62.609      -46.361      111.896      109.687       53.018    12520.825    12031.347     2810.926        3.966        1.368      223.192       53.614        0.058      346.124       24.144      861.591
08/21/2013  19:16:00     -221.340       -6.883      -19.323      160.583      147.547       84.400    25786.985    21770.023     7123.335        5.204        2.734      221.447       63.810        0.083      346.109       24.116      861.586
08/21/2013  19:17:00     -148.509       50.471      -20.293       76.725       64.311       44.183     5886.775     4135.884     1952.165        1.849        0.599      156.851       33.559        0.046      346.115       24.129      861.590
08/21/2013  19:18:00     -185.310      -56.402      -32.150      162.916      104.080       74.807    26541.539    10832.741     5596.104        4.076        2.149      193.703       82.853        0.183      346.112       24.122      861.578
08/21/2013  19:19:00      -48.929       42.520       -6.971      104.155      102.517       47.794    10848.265    10509.799     2284.313        1.394        1.182       64.823       49.468        0.582      346.132       24.157      861.578
08/21/2013  19:20:00     -159.412      -15.911       -4.034      101.080       79.121       42.705    10217.105     6260.082     1823.728        2.199        0.915      160.204       46.707        0.085      346.134       24.161      861.572
08/21/2013  19:21:00     -112.821        5.103        6.358      149.795       99.754       72.677    22438.511     9950.931     5281.886        2.523        1.884      112.936       85.865        0.578      346.087       24.080      861.565
08/21/2013  19:22:00     -219.655       29.341      -23.660      124.324      108.323       68.319    15456.351    11733.876     4667.478        4.076        1.593      221.606       54.908        0.061      346.033       23.986      861.618
08/21/2013  19:23:00     -211.046       69.835      -34.304       99.694      137.216       57.105     9938.806    18828.154     3260.946        4.131        1.601      222.300       65.319        0.086      346.016       23.956      861.631
08/21/2013  19:24:00     -195.998       20.109      -26.436      149.817      117.203       75.727    22445.189    13736.460     5734.632        4.071        2.096      197.027       80.781        0.168      345.988       23.912      861.648
08/21/2013  19:25:00     -268.175      -42.764      -14.941      155.396      118.427       69.068    24147.843    14025.054     4770.374        5.845        2.147      271.563       57.086        0.044      345.936       23.821      861.666
08/21/2013  19:26:00     -232.889       19.536      -18.768       92.856      114.948       64.501     8622.169    13213.026     4160.402        4.048        1.300      233.707       52.997        0.051      345.940       23.826      861.696
08/21/2013  19:27:00     -185.084      -23.527       -9.377      118.376       77.895       57.224    14012.952     6067.584     3274.561        2.912        1.168      186.573       53.725        0.083      345.928       23.808      861.725
08/21/2013  19:28:00     -106.776       23.603       -4.964       93.416       87.499       45.967     8726.578     7656.116     2112.953        1.524        0.925      109.353       50.691        0.215      345.935       23.820      861.775
08/21/2013  19:29:00     -190.061       34.419      -23.004       79.727      114.693       53.460     6356.386    13154.384     2857.936        3.010        1.118      193.152       51.369        0.071      345.902       23.762      861.803
08/21/2013  19:30:00     -120.990       81.996      -34.262       69.547      100.214       44.133     4836.846    10042.847     1947.709        1.968        0.841      146.157       29.905        0.042      345.909       23.777      861.840
08/21/2013  19:31:00     -196.887      -25.878      -10.090      116.953      106.020       56.531    13678.054    11240.159     3195.735        3.382        1.406      198.580       55.763        0.079      345.888       23.740      861.871
08/21/2013  19:32:00     -247.389       -8.417      -19.893      103.713      122.252       56.977    10756.297    14945.481     3246.324        4.530        1.447      247.532       48.690        0.039      345.865       23.697      861.882
08/21/2013  19:33:00     -140.430      -39.913       -0.138      102.501      109.223       63.019    10506.466    11929.715     3971.336        2.386        1.320      145.992       48.686        0.111      345.892       23.746      861.885
08/21/2013  19:34:00     -160.788       76.224       -2.745      132.375       64.954       47.792    17523.122     4219.034     2284.035        2.784        1.201      177.940       56.208        0.100      345.876       23.717      861.912
08/21/2013  19:35:00     -220.116       71.140      -39.388      121.180       97.178       56.415    14684.491     9443.536     3182.670        4.118        1.366      231.326       58.833        0.065      345.859       23.689      861.913
08/21/2013  19:36:00     -257.581       66.418      -25.887      138.293      111.143       63.032    19125.042    12352.719     3973.067        5.343        1.773      266.006       61.629        0.054      345.840       23.654      861.889
08/21/2013  19:37:00     -108.304        9.713       -8.538       88.271       96.050       46.815     7791.682     9225.550     2191.677        1.555        0.960      108.739       26.862        0.061      345.863       23.695      861.886
08/21/2013  19:38:00     -108.576       42.112       -9.312       94.191      117.517       55.526     8871.859    13810.160     3083.189        1.970        1.288      116.457       43.041        0.137      345.836       23.649      861.902
08/21/2013  19:39:00     -191.481      -55.355       -9.245       83.017      105.562       45.106     6891.859    11143.317     2034.579        2.994        1.003      199.322       36.767        0.034      345.827       23.632      861.934
08/21/2013  19:40:00     -117.023       -1.249        9.947       91.754      119.458       61.031     8418.727    14270.278     3724.808        2.010        1.321      117.029       51.185        0.191      345.823       23.627      861.944
08/21/2013  19:41:00     -169.796      -58.112       -5.535      121.495       95.654       55.200    14761.052     9149.719     3047.040        2.959        1.348      179.465       51.136        0.081      345.839       23.653      861.956
08/21/2013  19:42:00     -291.564      -73.576      -31.509      105.345       94.126       49.401    11097.515     8859.733     2440.424        5.690        1.120      300.704       36.045        0.014      345.824       23.628      861.972
08/21/2013  19:43:00     -108.460       32.474       -6.096      105.852      117.354       52.555    11204.546    13772.033     2762.058        2.029        1.387      113.217       54.843        0.235      345.822       23.627      861.986
08/21/2013  19:44:00      -78.220       -4.192        5.042       78.100       78.317       48.463     6099.626     6133.559     2348.641        1.037        0.729       78.332       36.456        0.217      345.826       23.635      861.990
08/21/2013  19:45:00     -114.100      107.397       -6.753       94.404       78.057       53.511     8912.118     6092.950     2863.454        2.123        0.893      156.694       53.909        0.118      345.821       23.624      862.012
08/21/2013  19:46:00     -125.898      -21.017      -12.094       68.410       70.092       41.450     4679.866     4912.946     1718.132        1.387        0.566      127.640       30.935        0.059      345.825       23.632      862.027
08/21/2013  19:47:00     -149.528      -85.183       -9.011      102.266       69.747       41.488    10458.278     4864.680     1721.236        2.337        0.852      172.089       31.753        0.034      345.840       23.656      862.019
08/21/2013  19:48:00     -177.134      -82.088        4.668      119.859       88.779       57.353    14366.242     7881.734     3289.380        3.183        1.277      195.230       71.107        0.133      345.828       23.634      862.053
08/21/2013  19:49:00     -117.575      -31.081       -4.757       67.814       65.444       44.701     4598.797     4282.854     1998.172        1.284        0.544      121.614       37.491        0.095      345.825       23.632      862.070
08/21/2013  19:50:00      -49.590        1.358       16.122       69.886       62.069       33.792     4884.083     3852.527     1141.866        0.630        0.494       49.608       35.131        0.501      345.779       23.554      862.106
08/21/2013  19:51:00       -5.482      -15.025       30.741       69.766       43.637       35.058     4867.343     1904.227     1229.084        0.460        0.400       15.994       27.652        2.989      345.735       23.479      862.150
08/21/2013  19:52:00       14.805       28.963        1.324       50.031       54.960       32.589     2503.100     3020.627     1062.012        0.382        0.329       32.528       27.520        0.716      345.763       23.525      862.202
08/21/2013  19:53:00      -18.828       24.656       13.108       41.584       53.899       28.769     1729.260     2905.105      827.644        0.330        0.273       31.023       21.908        0.499      345.814       23.614      862.222
08/21/2013  19:54:00      -17.222       -9.168       13.073       75.214       48.140       26.834     5657.132     2317.471      720.069        0.462        0.435       19.510       30.656        2.469      345.786       23.566      862.245
08/21/2013  19:55:00       -0.215       33.247        8.859       17.514       26.236       15.359      306.751      688.304      235.902        0.121        0.062       33.247       10.293        0.096      345.743       23.493      862.294
08/21/2013  19:56:00      -46.172      -20.830        1.239       35.018       31.755       20.245     1226.264     1008.398      409.856        0.261        0.132       50.653       19.687        0.151      345.792       23.576      862.328
08/21/2013  19:57:00      -86.858       -7.660      -14.570       48.839       61.358       21.499     2385.230     3764.846      462.223        0.721        0.331       87.195       13.580        0.024      345.797       23.585      862.355
08/21/2013  19:58:00      -45.232      104.665      -12.216       30.466       35.434       29.906      928.204     1255.587      894.383        0.811        0.154      114.020       16.191        0.020      345.739       23.484      862.386
08/21/2013  19:59:00      -49.928       34.552      -18.163       20.013       26.327       23.669      400.531      693.093      560.242        0.283        0.083       60.718       14.488        0.057      345.772       23.538      862.388
08/21/2013  20:00:00      -76.763       91.084      -19.138       38.557       42.436       33.461     1486.677     1800.836     1119.661        0.948        0.220      119.117       26.072        0.048      345.742       23.491      862.391
08/21/2013  20:01:00      -86.177       27.068       -2.624       32.856       27.284       24.710     1079.513      744.421      610.609        0.530        0.122       90.328       19.016        0.044      345.762       23.524      862.393
08/21/2013  20:02:00     -121.153       90.411      -17.911       81.982       69.925       43.786     6721.123     4889.482     1917.204        1.835        0.676      151.170       47.302        0.098      345.736       23.480      862.421
08/21/2013  20:03:00     -134.544       82.864      -22.152       56.749       40.409       27.345     3220.467     1632.851      747.722        1.553        0.280      158.014       28.605        0.033      345.738       23.485      862.433
08/21/2013  20:04:00      -67.191       22.079       -7.097       40.696       45.757       24.823     1656.144     2093.734      616.163        0.471        0.218       70.726       22.601        0.102      345.726       23.464      862.453
08/21/2013  20:05:00      -25.226       74.694       -8.997       40.741       51.647       30.577     1659.853     2667.417      934.950        0.578        0.263       78.839       31.898        0.164      345.735       23.480      862.473
08/21/2013  20:06:00        5.067       69.284        2.223       38.640       58.807       32.545     1493.064     3458.231     1059.159        0.542        0.301       69.469       37.717        0.295      345.724       23.460      862.517
08/21/2013  20:07:00      -66.954      139.524      -15.903       47.176       54.130       31.032     2225.543     2930.074      962.957        1.516        0.306      154.757       25.967        0.028      345.681       23.384      862.545
08/21/2013  20:08:00      -45.675       83.295       -4.205       42.308       41.352       24.516     1789.964     1710.025      601.039        0.657        0.205       94.996       24.153        0.065      345.716       23.444      862.577
08/21/2013  20:09:00      -12.811       72.564        5.600       33.349       27.577       24.603     1112.176      760.475      605.304        0.397        0.124       73.686       19.986        0.074      345.674       23.371      862.604
08/21/2013  20:10:00      -26.092       62.714        0.163       36.410       27.900       20.235     1325.658      778.385      409.437        0.356        0.126       67.925       17.493        0.066      345.667       23.362      862.650
08/21/2013  20:11:00        5.381      122.816      -17.995       32.924       40.735       23.373     1083.972     1659.312      546.286        0.936        0.164      122.934       23.853        0.038      345.651       23.331      862.676
08/21/2013  20:12:00      -65.070       51.691       -7.184       36.412       38.779       24.739     1325.825     1503.831      612.038        0.520        0.172       83.102       18.075        0.047      345.680       23.383      862.700
08/21/2013  20:13:00       -4.215      100.810       -0.023       25.557       54.096       27.185      653.154     2926.397      739.006        0.725        0.216      100.898       31.758        0.099      345.644       23.323      862.717
08/21/2013  20:14:00      -30.237       92.037       -7.220       44.636       51.544       27.361     1992.358     2656.747      748.639        0.742        0.270       96.877       27.987        0.083      345.639       23.312      862.722
08/21/2013  20:15:00      -20.497      109.301       -9.356       33.344       60.908       26.845     1111.826     3709.819      720.664        0.900        0.277      111.206       32.098        0.083      345.617       23.276      862.714
08/21/2013  20:16:00      -47.995      191.737      -13.163       39.952       82.287       38.298     1596.131     6771.161     1466.749        2.454        0.492      197.653       41.061        0.043      345.622       23.284      862.705
08/21/2013  20:17:00      -53.683      216.851       -7.187       55.670       95.288       45.246     3099.143     9079.883     2047.219        3.209        0.711      223.397       50.139        0.050      345.620       23.277      862.713
08/21/2013  20:18:00      -44.741      353.324      -45.656       49.250       95.921       30.767     2425.531     9200.911      946.628        7.075        0.629      356.146       36.355        0.010      345.597       23.237      862.728
08/21/2013  20:19:00      -62.707      203.521      -31.130       73.569       94.131       36.491     5412.467     8860.583     1331.558        3.096        0.780      212.962       31.333        0.022      345.611       23.262      862.740
08/21/2013  20:20:00      -44.449      159.464      -25.586       54.452       64.849       30.839     2965.046     4205.390      951.056        1.809        0.406      165.543       27.241        0.027      345.609       23.259      862.766
08/21/2013  20:21:00      -90.431      153.048      -20.193       52.030       71.406       35.948     2707.106     5098.780     1292.286        2.055        0.455      177.768       31.456        0.031      345.606       23.256      862.802
08/21/2013  20:22:00      -58.202      137.141      -12.018       39.860       48.161       31.244     1588.795     2319.466      976.174        1.361        0.244      148.981       24.687        0.027      345.588       23.224      862.821
08/21/2013  20:23:00     -113.903       33.081      -16.655       45.478       37.761       22.552     2068.287     1425.884      508.614        0.917        0.200      118.610       17.734        0.022      345.681       23.386      862.855
08/21/2013  20:24:00     -138.026      157.209      -32.011       50.753       42.710       31.119     2575.872     1824.159      968.362        2.508        0.268      209.203       24.440        0.014      345.622       23.280      862.891
08/21/2013  20:25:00     -138.436       97.948       -8.116       75.021       56.494       40.826     5628.198     3191.564     1666.764        1.965        0.524      169.583       34.648        0.042      345.621       23.279      862.929
08/21/2013  20:26:00      -92.441       99.310       -5.631       78.142       63.891       44.351     6106.245     4082.050     1967.046        1.530        0.608      135.676       40.637        0.090      345.626       23.290      862.929
08/21/2013  20:27:00     -103.802      127.442      -25.029       60.509       68.644       40.476     3661.335     4711.981     1638.336        1.883        0.501      164.367       42.895        0.068      345.614       23.268      862.902
08/21/2013  20:28:00     -134.284      151.114      -24.083       67.850       77.277       40.376     4603.650     5971.748     1630.224        2.682        0.610      202.157       43.020        0.045      345.615       23.268      862.863
08/21/2013  20:29:00     -188.629      205.569      -38.425       68.901       90.703       46.409     4747.329     8227.028     2153.830        4.722        0.756      278.998       47.707        0.029      345.606       23.252      862.824
08/21/2013  20:30:00     -201.037      243.937      -55.662       68.742      112.421       53.225     4725.404    12638.402     2832.935        6.160        1.010      316.103       58.368        0.034      345.622       23.282      862.762
08/21/2013  20:31:00     -125.621      320.180      -36.331       83.335      113.213       57.498     6944.751    12817.256     3305.987        7.134        1.153      343.941       53.563        0.024      345.601       23.243      862.722
08/21/2013  20:32:00      -67.876      457.861      -53.844       65.141       92.186       46.309     4243.293     8498.244     2144.569       11.601        0.744      462.865       35.269        0.006      345.600       23.243      862.633
08/21/2013  20:33:00      -49.897      404.175      -40.299       68.263      103.476       41.743     4659.890    10707.208     1742.438        9.229        0.855      407.243       41.887        0.011      345.523       23.111      862.491
08/21/2013  20:34:00      -76.923      386.756      -46.941       72.090       94.200       54.045     5196.922     8873.684     2920.867        8.734        0.850      394.331       44.743        0.013      345.473       23.022      862.348
08/21/2013  20:35:00     -137.826      341.208      -36.168      102.087      132.412       63.140    10421.788    17533.007     3986.719        8.433        1.597      367.993       68.529        0.035      345.446       22.978      862.258
08/21/2013  20:36:00      -82.358      255.787      -33.693       83.418      114.352       54.730     6958.605    13076.288     2995.334        4.818        1.152      268.719       53.188        0.039      345.417       22.929      862.242
08/21/2013  20:37:00      -62.648      255.472      -23.560       56.251      100.950       50.741     3164.162    10190.940     2574.661        4.284        0.796      263.041       43.773        0.028      345.425       22.941      862.304
08/21/2013  20:38:00      -86.657       90.786       -7.612       56.572      115.296       36.893     3200.434    13293.185     1361.088        1.683        0.893      125.506       37.865        0.091      345.440       22.969      862.417
08/21/2013  20:39:00      -64.894        0.196      -14.048       74.659       73.063       46.289     5573.998     5338.264     2142.660        0.873        0.653       64.894       22.160        0.117      345.453       22.992      862.495
08/21/2013  20:40:00     -126.167       11.647      -24.686       63.755       95.725       50.824     4064.740     9163.245     2583.118        1.623        0.791      126.703       36.480        0.083      345.488       23.052      862.545
08/21/2013  20:41:00     -203.927       49.091      -27.335       78.625       61.574       45.093     6181.928     3791.407     2033.414        2.837        0.600      209.753       32.150        0.023      345.508       23.085      862.527
08/21/2013  20:42:00     -228.210        1.104      -26.627       95.232       65.128       37.213     9069.224     4241.641     1384.832        3.374        0.735      228.212       39.997        0.031      345.518       23.101      862.500
08/21/2013  20:43:00     -197.746      157.798      -52.591      102.640      132.213       49.768    10534.893    17480.364     2476.838        4.863        1.525      252.990       57.939        0.052      345.572       23.195      862.468
08/21/2013  20:44:00     -116.493      193.984      -40.209      106.296       83.288       42.573    11298.824     6936.889     1812.436        3.643        1.002      226.275       49.988        0.049      345.512       23.091      862.416
08/21/2013  20:45:00      -63.232      343.133      -25.267       71.835      134.036       56.304     5160.221    17965.765     3170.149        7.433        1.315      348.911       68.896        0.039      345.423       22.939      862.361
08/21/2013  20:46:00      -73.867      269.185      -33.692       43.523      116.146       33.301     1894.235    13489.865     1108.989        4.777        0.825      279.136       34.506        0.015      345.376       22.859      862.321
08/21/2013  20:47:00     -115.461      -27.197       -9.018       74.982       54.294       29.711     5622.375     2947.810      882.726        1.180        0.473      118.620       27.333        0.053      345.416       22.929      862.318
08/21/2013  20:48:00     -140.188      -88.395        6.017      119.256       47.828       45.538    14221.938     2287.515     2073.679        2.304        0.929      165.730       46.594        0.079      345.400       22.900      862.346
08/21/2013  20:49:00      -70.804     -154.735       -7.393       52.439       61.461       38.850     2749.839     3777.448     1509.349        1.852        0.402      170.165       35.082        0.043      345.404       22.910      862.367
08/21/2013  20:50:00     -100.033     -135.816       -2.308       66.801       56.865       31.995     4462.322     3233.613     1023.710        1.859        0.436      168.678       19.730        0.014      345.365       22.840      862.408
08/21/2013  20:51:00     -197.302     -130.028       -7.998      167.902       83.085       47.247    28191.022     6903.125     2232.309        4.661        1.866      236.295       60.612        0.066      345.447       22.980      862.455
08/21/2013  20:52:00      -75.383       -7.552        1.891       60.905       54.012       31.601     3709.469     2917.283      998.644        0.668        0.381       75.761       29.066        0.147      345.486       23.051      862.483
08/21/2013  20:53:00     -173.715      -25.921       -9.888       73.268       73.809       45.729     5368.265     5447.703     2091.101        2.192        0.645      175.638       40.499        0.053      345.619       23.275      862.452
08/21/2013  20:54:00      -98.005      -18.781        4.230       66.417       56.607       34.502     4411.206     3204.406     1190.375        0.939        0.440       99.789       33.857        0.115      345.592       23.230      862.424
08/21/2013  20:55:00     -207.911       29.347       -9.992      101.206       63.003       40.859    10242.748     3969.421     1669.420        3.003        0.794      209.972       39.286        0.035      345.608       23.257      862.393
08/21/2013  20:56:00     -173.642       -0.424       -2.993       90.179       65.475       40.390     8132.322     4286.974     1631.324        2.210        0.703      173.642       46.439        0.072      345.612       23.264      862.366
08/21/2013  20:57:00     -244.461      173.361      -55.139      108.451      104.260       61.530    11761.684    10870.129     3785.987        5.963        1.321      299.692       54.658        0.033      345.690       23.398      862.370
08/21/2013  20:58:00     -136.261      141.175      -23.679       79.807       70.525       46.734     6369.171     4973.746     2184.024        2.629        0.676      196.208       39.787        0.041      345.687       23.393      862.365
08/21/2013  20:59:00     -159.467      140.039      -27.723       85.903       97.375       52.258     7379.286     9481.938     2730.865        3.270        0.980      212.228       30.460        0.021      345.750       23.501      862.378
08/21/2013  21:00:00        7.476        1.859        9.285       89.047      110.296       39.657     7929.390    12165.256     1572.641        1.090        1.083        7.704       35.931       21.755      345.745       23.497      862.386
08/21/2013  21:01:00     -149.196      213.964      -30.373       82.188      107.727       49.696     6754.923    11605.062     2469.714        4.489        1.041      260.845       47.148        0.033      345.817       23.617      862.421
08/21/2013  21:02:00     -126.788      151.489      -29.223       76.331       84.477       39.442     5826.472     7136.305     1555.678        2.720        0.726      197.546       30.761        0.024      345.822       23.624      862.445
08/21/2013  21:03:00     -145.784      176.941      -14.646       93.241       87.431       65.257     8693.902     7644.116     4258.535        3.668        1.030      229.262       60.242        0.069      345.736       23.476      862.450
08/21/2013  21:04:00     -116.213      164.929      -29.485       89.795       84.012       59.256     8063.102     7057.949     3511.235        3.010        0.932      201.760       57.338        0.081      345.782       23.557      862.462
08/21/2013  21:05:00      -98.356      146.894      -24.503       69.293       89.269       44.297     4801.505     7968.917     1962.233        2.329        0.737      176.782       40.093        0.051      345.739       23.484      862.461
08/21/2013  21:06:00     -138.528      197.942      -40.068       58.158       68.568       39.651     3382.375     4701.593     1572.239        3.481        0.483      241.601       34.141        0.020      345.754       23.507      862.450
08/21/2013  21:07:00     -157.228      107.905      -17.403       98.838      104.051       46.933     9768.980    10826.616     2202.716        2.973        1.140      190.694       55.702        0.085      345.770       23.536      862.441
08/21/2013  21:08:00     -121.726       97.276      -16.032      102.512       70.763       54.227    10508.673     5007.404     2940.576        2.149        0.923      155.820       59.612        0.146      345.758       23.516      862.437
08/21/2013  21:09:00     -192.798      152.540      -28.274      107.254      109.696       44.674    11503.357    12033.261     1995.770        4.338        1.277      245.844       37.708        0.024      345.804       23.594      862.441
08/21/2013  21:10:00     -130.351      157.450      -22.599       86.102       97.847       55.916     7413.547     9574.074     3126.555        3.120        1.006      204.406       52.956        0.067      345.771       23.538      862.464
08/21/2013  21:11:00      -93.203       13.118       -1.417       96.530       58.462       39.590     9318.111     3417.854     1567.348        1.158        0.715       94.122       55.703        0.350      345.770       23.534      862.496
08/21/2013  21:12:00      -42.219        9.157      -13.128       38.544       15.853       28.802     1485.626      251.315      829.583        0.230        0.128       43.201       25.856        0.358      345.738       23.485      862.522
08/21/2013  21:13:00      -26.125       -3.362       -2.735       40.092       40.024       36.021     1607.397     1601.902     1297.535        0.260        0.225       26.341       30.069        1.303      345.784       23.561      862.541
08/21/2013  21:14:00       -4.288       32.883        0.887       19.963       37.933       24.006      398.516     1438.879      576.274        0.176        0.121       33.162        8.283        0.062      345.806       23.601      862.570
08/21/2013  21:15:00       11.560       16.308       18.811       24.934       26.368       19.422      621.709      695.269      377.199        0.122        0.085       19.990       15.459        0.598      345.621       23.282      862.614
08/21/2013  21:16:00      -35.298       51.711       -6.029       29.630       25.178       24.131      877.913      633.951      582.303        0.302        0.105       62.610       22.577        0.130      345.703       23.422      862.654
08/21/2013  21:17:00      -70.165       57.471      -19.060       45.522       19.589       14.688     2072.217      383.725      215.734        0.563        0.134       90.698       16.997        0.035      345.816       23.615      862.683
08/21/2013  21:18:00     -196.942       -9.441      -30.524       74.436       65.458       38.669     5540.648     4284.689     1495.307        2.556        0.566      197.168       30.521        0.024      345.887       23.736      862.698
08/21/2013  21:19:00        2.778       85.646        3.280       34.947       50.563       30.104     1221.314     2556.647      906.236        0.602        0.234       85.691       29.480        0.118      345.747       23.498      862.712
08/21/2013  21:20:00      -29.444       24.870       -7.035       57.493       42.458       30.934     3305.479     1802.694      956.908        0.380        0.303       38.542       22.833        0.351      345.765       23.529      862.709
08/21/2013  21:21:00      -25.927        6.567        1.333       23.729       38.564       24.525      563.085     1487.160      601.495        0.168        0.133       26.745       20.549        0.590      345.641       23.316      862.712
08/21/2013  21:22:00      -47.610      -37.328       -5.086       26.171       26.667       19.053      684.906      711.131      363.003        0.272        0.088       60.499       13.558        0.050      345.636       23.307      862.715
08/21/2013  21:23:00      -82.489       10.315      -11.732       69.937       66.661       34.227     4891.244     4443.671     1171.509        0.878        0.525       83.132       22.347        0.072      345.749       23.501      862.731
08/21/2013  21:24:00     -125.684      -52.046      -12.002       30.635       29.875       20.734      938.529      892.539      429.908        1.045        0.113      136.034       11.274        0.007      345.821       23.624      862.739
08/21/2013  21:25:00      -38.652       -0.931       19.574       47.618       27.457       26.761     2267.508      753.872      716.144        0.281        0.187       38.663       24.168        0.391      345.587       23.224      862.756
08/21/2013  21:26:00      -54.398      -49.011        1.035       49.143       27.490       18.199     2415.012      755.719      331.208        0.443        0.175       73.220       21.675        0.088      345.623       23.285      862.760
08/21/2013  21:27:00      -32.090      -46.297       -8.837       55.095       37.242       16.643     3035.486     1386.972      276.994        0.397        0.235       56.331        9.495        0.028      345.630       23.299      862.753
08/21/2013  21:28:00      -72.402      -32.614       10.083       62.958       36.636       24.766     3963.695     1342.163      613.336        0.616        0.296       79.408       30.830        0.151      345.553       23.163      862.761
08/21/2013  21:29:00      -44.724      -54.284        3.334       31.306       30.436       25.552      980.044      926.347      652.893        0.376        0.128       70.334       20.753        0.087      345.560       23.179      862.756
08/21/2013  21:30:00      -80.462      -40.582       -3.836       21.924       26.763       18.394      480.655      716.269      338.349        0.484        0.077       90.116       13.775        0.023      345.643       23.320      862.754
08/21/2013  21:31:00     -105.002      -37.948        2.031       45.140       37.813       25.458     2037.580     1429.831      648.126        0.829        0.206      111.649       26.378        0.056      345.566       23.187      862.744
08/21/2013  21:32:00     -115.483      -42.933       -0.954       31.231       32.549       22.984      975.370     1059.466      528.258        0.887        0.128      123.205       15.939        0.017      345.559       23.176      862.740
08/21/2013  21:33:00      -38.788      -44.743        4.963       66.233       54.907       27.732     4386.866     3014.729      769.090        0.585        0.409       59.215       25.930        0.192      345.509       23.090      862.739
08/21/2013  21:34:00     -109.084      -45.997       -2.353       54.413       32.526       28.863     2960.755     1057.913      833.097        0.944        0.243      118.385       28.408        0.058      345.522       23.114      862.726
08/21/2013  21:35:00      -96.717      -29.492       -0.156       42.533       31.519       21.002     1809.067      993.437      441.085        0.673        0.162      101.114       20.157        0.040      345.443       22.975      862.731
08/21/2013  21:36:00      -87.018      -34.206       -0.884       51.480       57.773       35.467     2650.190     3337.696     1257.937        0.799        0.362       93.500       29.019        0.096      345.483       23.045      862.736
08/21/2013  21:37:00      -56.417      -28.513       10.629       36.056       51.851       21.496     1300.024     2688.520      462.072        0.428        0.223       63.213       17.903        0.080      345.428       22.950      862.741
08/21/2013  21:38:00     -130.030      -33.393      -14.104       35.894       65.608       31.730     1288.345     4304.401     1006.798        1.241        0.330      134.249       25.970        0.037      345.519       23.106      862.745
08/21/2013  21:39:00     -118.026       -9.325       -8.847       30.788       27.733       15.293      947.895      769.128      233.872        0.802        0.098      118.394       13.202        0.012      345.523       23.115      862.749
08/21/2013  21:40:00      -68.064      -38.383       -1.090       18.532       20.493       13.202      343.443      419.980      174.301        0.352        0.047       78.140       11.217        0.021      345.491       23.061      862.753
08/21/2013  21:41:00      -89.349      -28.274        3.066       47.707       34.428       20.040     2276.000     1185.298      401.613        0.633        0.193       93.716       21.132        0.051      345.444       22.977      862.762
08/21/2013  21:42:00     -101.572       18.521       -0.637       32.243       31.254       23.204     1039.591      976.786      538.435        0.661        0.128      103.246       11.675        0.013      345.406       22.914      862.770
08/21/2013  21:43:00      -61.714      -38.169        1.210       34.649       38.188       19.765     1200.527     1458.354      390.659        0.416        0.152       72.563       19.334        0.071      345.381       22.870      862.769
08/21/2013  21:44:00      -89.273      -22.544       -0.998       31.707       26.870       16.656     1005.364      722.019      277.425        0.524        0.100       92.075       16.301        0.031      345.361       22.835      862.773
08/21/2013  21:45:00      -77.460       10.317       -6.158       28.268       26.049       11.743      799.069      678.569      137.902        0.388        0.081       78.144       12.179        0.024      345.402       22.905      862.775
08/21/2013  21:46:00      -83.774       19.180       -1.520       30.378       19.898       15.301      922.840      395.918      234.111        0.447        0.078       85.942       13.389        0.024      345.254       22.652      862.767
08/21/2013  21:47:00      -53.574      -32.005       -3.457       37.876       19.106       16.425     1434.554      365.058      269.781        0.299        0.103       62.406       16.721        0.072      345.249       22.644      862.754
08/21/2013  21:48:00      -56.704      -32.978       -1.236       20.069       17.454       12.570      402.749      304.646      157.997        0.258        0.043       65.596       10.015        0.023      345.306       22.744      862.745
08/21/2013  21:49:00       24.058        4.238        1.013       26.469        8.793       12.769      700.596       77.308      163.042        0.077        0.047       24.429       10.906        0.199      345.149       22.471      862.738
08/21/2013  21:50:00      -16.858        0.360       -0.731       19.066       22.629       12.250      363.520      512.051      150.064        0.066        0.051       16.862       10.840        0.413      345.109       22.405      862.725
08/21/2013  21:51:00      -63.679       53.653      -10.443       24.348       20.507       11.551      592.804      420.529      133.418        0.409        0.057       83.269        4.351        0.003      345.053       22.309      862.734
08/21/2013  21:52:00      -37.351       14.419       -7.167       31.113       16.136       11.679      968.047      260.367      136.394        0.151        0.068       40.038        5.034        0.016      344.994       22.207      862.728
08/21/2013  21:53:00      -45.359       -1.840        0.039       27.025       24.716       18.831      730.377      610.866      354.625        0.188        0.085       45.396       13.767        0.092      345.038       22.282      862.715
08/21/2013  21:54:00        8.931      -11.799        8.706       30.009       18.971       18.916      900.540      359.886      357.834        0.096        0.081       14.798       15.915        1.157      344.733       21.762      862.703
08/21/2013  21:55:00      -79.826       20.115       -0.430       37.466       34.937       21.656     1403.701     1220.566      468.974        0.493        0.155       82.322       21.987        0.071      344.954       22.139      862.697
08/21/2013  21:56:00     -114.402       34.199      -11.770       31.821       36.351       19.215     1012.584     1321.414      369.204        0.855        0.135      119.404       20.150        0.028      344.966       22.161      862.700
08/21/2013  21:57:00      -45.343        5.624      -14.525       33.856       28.791       14.391     1146.253      828.903      207.090        0.224        0.109       45.690       11.483        0.063      345.074       22.346      862.688
08/21/2013  21:58:00      -69.066      -48.717       -2.962       61.745       28.484       15.606     3812.410      811.322      243.555        0.601        0.243       84.519       18.520        0.048      345.021       22.256      862.671
08/21/2013  21:59:00     -112.582      -18.960      -12.189       24.585       17.782       14.559      604.428      316.184      211.963        0.716        0.057      114.168       12.707        0.012      345.018       22.249      862.679
08/21/2013  22:00:00      -71.234       -7.095       -3.398       35.208       26.880       17.437     1239.606      722.529      304.048        0.370        0.113       71.586       19.224        0.072      344.869       21.994      862.683
08/21/2013  22:01:00     -104.923      -20.992       -1.646       46.969       28.181       20.414     2206.082      794.161      416.724        0.743        0.171      107.002       22.966        0.046      344.847       21.957      862.674
08/21/2013  22:02:00      -81.559      -22.776        7.820       49.064       34.096       24.592     2407.302     1162.538      604.769        0.570        0.209       84.680       23.253        0.075      344.885       22.023      862.662
08/21/2013  22:03:00     -123.663      -22.568       -6.770       35.229       27.322       18.683     1241.116      746.487      349.056        0.909        0.117      125.705       16.367        0.017      344.935       22.108      862.671
08/21/2013  22:04:00     -103.234      -42.931       -4.897       30.818       38.323       17.680      949.770     1468.669      312.593        0.763        0.137      111.805       10.099        0.008      344.891       22.032      862.687
08/21/2013  22:05:00      -70.207      -19.419       -1.740       32.757       32.380       15.071     1073.030     1048.473      227.147        0.383        0.117       72.843       14.535        0.040      344.836       21.937      862.703
08/21/2013  22:06:00      -90.577      -33.643       -0.763       40.466       35.516       19.425     1637.462     1261.380      377.338        0.631        0.164       96.623       20.469        0.045      344.835       21.936      862.721
08/21/2013  22:07:00     -106.683      -41.992        3.972       30.195       41.572       19.374      911.751     1728.223      375.355        0.809        0.151      114.650       18.183        0.025      344.808       21.890      862.731
08/21/2013  22:08:00     -105.899      -10.058        1.675       56.847       49.053       21.180     3231.543     2406.218      448.613        0.870        0.304      106.375       27.223        0.065      344.796       21.869      862.744
08/21/2013  22:09:00     -187.332       24.781      -23.663       29.947       19.250       19.186      896.822      370.568      368.086        1.895        0.082      188.964       18.516        0.010      344.797       21.870      862.755
08/21/2013  22:10:00     -140.383      -36.408       -9.457       40.487       23.238       20.906     1639.164      540.012      437.049        1.187        0.131      145.027       20.746        0.020      344.770       21.826      862.736
08/21/2013  22:11:00      -95.534       -6.001      -11.722       47.924       21.406       21.588     2296.718      458.199      466.040        0.626        0.161       95.722       23.987        0.063      344.820       21.909      862.723
08/21/2013  22:12:00     -111.214      -28.840      -11.957       25.493       22.333       18.799      649.900      498.753      353.405        0.742        0.075      114.892       11.860        0.011      344.794       21.866      862.726
08/21/2013  22:13:00     -133.981      -65.871      -16.420       27.583       31.497       21.328      760.842      992.066      454.882        1.238        0.110      149.298       11.190        0.006      344.811       21.896      862.710
08/21/2013  22:14:00     -109.503      -13.500       -2.522       37.676       34.616       25.986     1419.459     1198.280      675.250        0.774        0.165      110.332       22.575        0.042      344.798       21.873      862.706
08/21/2013  22:15:00     -128.230      -40.258      -13.459       23.264       37.868       20.033      541.220     1434.013      401.330        1.031        0.119      134.401       21.650        0.026      344.875       22.004      862.702
08/21/2013  22:16:00     -138.981      -48.283      -10.238       37.175       35.795       23.881     1382.012     1281.300      570.290        1.249        0.162      147.129       17.911        0.015      344.823       21.914      862.714
08/21/2013  22:17:00     -130.694      -26.084      -10.042       28.913       48.030       22.919      835.957     2306.910      525.299        1.076        0.183      133.272       19.134        0.021      344.851       21.964      862.734
08/21/2013  22:18:00     -167.933      -42.481      -15.171       34.930       32.598       24.488     1220.092     1062.639      599.666        1.656        0.144      173.223       21.661        0.016      344.844       21.951      862.739
08/21/2013  22:19:00     -128.774      -28.537      -13.033       27.130       30.899       22.961      736.023      954.770      527.218        0.989        0.111      131.898       15.949        0.015      344.852       21.965      862.760
08/21/2013  22:20:00      -95.610        7.104       -6.830       24.823       28.099       19.620      616.168      789.530      384.947        0.551        0.090       95.874       17.097        0.032      344.775       21.833      862.794
08/21/2013  22:21:00      -59.862       10.342       -3.530       17.777       12.498       10.136      316.038      156.203      102.740        0.214        0.029       60.749        5.984        0.010      344.736       21.765      862.815
08/21/2013  22:22:00      -74.705       -6.377      -10.126       19.042       14.590       11.141      362.592      212.860      124.115        0.321        0.035       74.977        9.981        0.018      344.883       22.020      862.827
08/21/2013  22:23:00      -94.352        7.412      -11.512       20.139       17.975       13.232      405.596      323.103      175.088        0.500        0.045       94.643        9.536        0.010      344.856       21.972      862.855
08/21/2013  22:24:00     -115.770        1.976      -11.948       15.246       19.367        6.376      232.444      375.079       40.658        0.710        0.032      115.787        5.572        0.002      344.845       21.953      862.873
08/21/2013  22:25:00      -86.081       -2.792       -6.478       16.513       19.245       13.724      272.688      370.360      188.341        0.415        0.042       86.126        9.243        0.012      344.804       21.883      862.869
08/21/2013  22:26:00     -139.217       44.790      -13.227       22.586       16.873       14.114      510.111      284.709      199.213        1.128        0.050      146.245       10.974        0.006      344.891       22.031      862.886
08/21/2013  22:27:00     -106.422       34.548      -12.386       33.034       29.176       16.683     1091.230      851.268      278.329        0.745        0.111      111.889       11.432        0.010      344.952       22.137      862.883
08/21/2013  22:28:00      -50.673      100.995       -5.339       47.560       67.680       26.449     2261.958     4580.635      699.569        1.017        0.377      112.995       23.892        0.045      345.180       22.527      862.880
08/21/2013  22:29:00      -52.032       65.421       -8.207       26.688       39.248       19.368      712.253     1540.422      375.107        0.484        0.131       83.590       18.195        0.047      345.088       22.368      862.886
08/21/2013  22:30:00      -70.072       40.024       -4.264       51.474       29.739       25.800     2649.620      884.422      665.662        0.536        0.210       80.697       28.268        0.123      345.148       22.472      862.891
08/21/2013  22:31:00     -103.947       17.056      -13.150       26.809       42.335       15.439      718.749     1792.287      238.352        0.701        0.137      105.338       12.171        0.013      345.073       22.343      862.893
08/21/2013  22:32:00      -61.347       32.687        1.996       45.627       39.076       24.648     2081.858     1526.936      607.545        0.453        0.211       69.511       22.846        0.108      344.967       22.163      862.899
08/21/2013  22:33:00     -110.722      117.540      -26.947       46.033       70.898       32.713     2119.027     5026.460     1070.170        1.751        0.411      161.477       28.809        0.032      345.139       22.455      862.900
08/21/2013  22:34:00     -144.806       68.502      -29.973       51.675       50.456       33.803     2670.285     2545.790     1142.669        1.646        0.318      160.192       32.288        0.041      345.199       22.558      862.901
08/21/2013  22:35:00     -126.162      153.199      -27.657       60.631       65.806       36.173     3676.137     4330.434     1308.520        2.473        0.466      198.461       41.797        0.044      345.248       22.639      862.921
08/21/2013  22:36:00     -144.395      138.741      -41.382       38.922       52.275       24.596     1514.932     2732.710      604.962        2.333        0.243      200.247       21.121        0.011      345.233       22.615      862.931
08/21/2013  22:37:00     -151.264      168.045      -37.835       62.184       64.270       35.553     3866.893     4130.602     1263.993        3.090        0.463      226.097       30.521        0.018      345.238       22.621      862.956
08/21/2013  22:38:00     -107.951       95.706      -19.006       43.450       51.317       27.458     1887.900     2633.416      753.956        1.322        0.264      144.267       25.188        0.030      345.172       22.512      862.983
08/21/2013  22:39:00     -111.114       98.376      -27.883       36.228       35.953       24.433     1312.449     1292.594      596.956        1.300        0.160      148.406       17.161        0.013      345.162       22.497      862.992
08/21/2013  22:40:00     -122.343      180.549      -31.563       48.354       58.630       25.783     2338.138     3437.459      664.739        2.750        0.322      218.096       15.379        0.005      345.158       22.486      863.010
08/21/2013  22:41:00     -112.929      110.430      -28.952       50.656       42.240       21.755     2566.031     1784.243      473.259        1.530        0.241      157.949       18.938        0.014      345.170       22.507      863.048
08/21/2013  22:42:00     -105.714       72.894      -15.977       37.023       42.527       28.081     1370.730     1808.577      788.524        1.036        0.198      128.409       28.591        0.050      345.125       22.432      863.082
08/21/2013  22:43:00      -96.751       82.816      -12.458       30.277       38.302       26.227      916.696     1467.013      687.863        0.972        0.154      127.354       19.258        0.023      345.116       22.416      863.115
08/21/2013  22:44:00     -103.069      121.348      -16.147       41.418       58.252       31.527     1715.465     3393.329      993.973        1.586        0.305      159.213       30.134        0.036      345.084       22.362      863.143
08/21/2013  22:45:00     -101.708      139.585      -22.332       27.949       43.491       25.781      781.155     1891.451      664.661        1.683        0.167      172.709       18.304        0.011      345.057       22.316      863.160
08/21/2013  22:46:00     -131.262       93.244      -22.966       43.968       30.534       20.947     1933.160      932.338      438.798        1.488        0.165      161.009       20.686        0.017      345.068       22.335      863.181
08/21/2013  22:47:00     -118.950       39.548       -8.650       32.913       39.751       23.569     1083.253     1580.171      555.505        0.950        0.161      125.352       16.896        0.018      345.053       22.309      863.196
08/21/2013  22:48:00     -123.104       26.155      -18.884       33.924       35.935       20.859     1150.829     1291.326      435.084        0.954        0.144      125.852       15.874        0.016      345.056       22.314      863.209
08/21/2013  22:49:00      -93.212       59.804      -12.531       43.120       59.496       22.196     1859.305     3539.771      492.654        0.916        0.295      110.747       17.278        0.024      345.023       22.257      863.213
08/21/2013  22:50:00     -105.796       46.379      -10.841       52.209       32.480       25.795     2725.778     1054.956      665.364        0.895        0.222      115.516       28.895        0.063      345.014       22.244      863.212
08/21/2013  22:51:00      -83.097       36.456       -7.775       29.312       24.455       14.945      859.194      598.024      223.347        0.499        0.084       90.742       12.995        0.021      344.970       22.167      863.220
08/21/2013  22:52:00      -78.155       26.423      -23.401       32.373       24.397       19.419     1047.997      595.190      377.098        0.469        0.101       82.501       18.136        0.048      344.975       22.175      863.237
08/21/2013  22:53:00      -99.717        5.145      -12.620       33.339       21.870       15.051     1111.520      478.310      226.528        0.597        0.091       99.849       11.157        0.012      344.976       22.178      863.259
08/21/2013  22:54:00     -100.321       32.871      -18.436       51.785       40.779       21.204     2681.732     1662.908      449.592        0.814        0.240      105.569       19.027        0.032      344.991       22.203      863.296
08/21/2013  22:55:00     -137.169       26.584      -11.088       66.412       55.543       28.273     4410.541     3085.037      799.335        1.397        0.415      139.722       22.579        0.026      344.991       22.203      863.300
08/21/2013  22:56:00     -124.371      -15.127       -1.462       63.982       41.165       34.998     4093.740     1694.597     1224.827        1.135        0.351      125.287       35.130        0.079      344.942       22.120      863.303
08/21/2013  22:57:00      -69.190       13.281       -8.087       38.898       53.341       25.359     1513.022     2845.259      643.071        0.501        0.250       70.454       27.393        0.151      344.897       22.043      863.301
08/21/2013  22:58:00      -95.436       42.673       -7.798       27.393       28.072       16.201      750.366      788.053      262.485        0.640        0.090      104.542       11.812        0.013      344.870       21.996      863.291
08/21/2013  22:59:00      -93.935       74.589      -12.855       29.336       55.678       24.887      860.605     3100.012      619.387        0.957        0.229      119.947       21.015        0.031      344.922       22.084      863.271
08/21/2013  23:00:00      -76.870      122.714      -16.608       56.057       83.406       38.937     3142.426     6956.549     1516.119        1.643        0.581      144.802       41.704        0.083      344.916       22.072      863.256
08/21/2013  23:01:00      -88.696      144.570      -15.312       34.097       45.190       30.140     1162.617     2042.171      908.448        1.656        0.206      169.610       27.379        0.026      344.928       22.095      863.234
08/21/2013  23:02:00      -85.428       94.116      -17.424       51.078       44.838       29.606     2608.973     2010.473      876.487        1.098        0.275      127.106       19.953        0.025      344.971       22.167      863.222
08/21/2013  23:03:00     -100.854      157.951      -19.290       70.435       60.801       37.287     4961.121     3696.742     1390.352        2.277        0.502      187.403       38.270        0.042      344.946       22.124      863.222
08/21/2013  23:04:00      -91.363      204.662      -19.845       49.614       72.332       44.646     2461.507     5231.904     1993.277        3.016        0.484      224.129       42.385        0.036      344.978       22.176      863.227
08/21/2013  23:05:00      -65.490      247.156      -28.755       48.176       80.606       41.324     2320.902     6497.318     1707.653        3.836        0.526      255.685       40.198        0.025      344.965       22.154      863.212
08/21/2013  23:06:00      -65.913      178.979      -12.143       54.591       67.782       40.594     2980.197     4594.341     1647.873        2.287        0.461      190.730       35.809        0.035      344.896       22.040      863.218
08/21/2013  23:07:00      -77.313      205.625      -28.666       66.048       93.953       36.995     4362.399     8827.201     1368.625        3.182        0.728      219.680       29.082        0.018      344.931       22.096      863.219
08/21/2013  23:08:00     -116.007      196.861      -15.231       82.618       77.908       49.179     6825.763     6069.724     2418.557        3.388        0.766      228.499       49.219        0.046      344.876       22.003      863.207
08/21/2013  23:09:00      -85.234      188.146      -22.916       67.744       63.915       41.878     4589.217     4085.068     1753.728        2.681        0.521      206.552       37.584        0.033      344.862       21.978      863.202
08/21/2013  23:10:00     -151.218      211.380      -30.826       74.609      109.209       45.566     5566.434    11926.700     2076.235        4.403        0.978      259.901       45.321        0.030      344.866       21.987      863.203
08/21/2013  23:11:00      -79.523      192.340      -13.305       58.660      100.339       47.961     3441.047    10067.894     2300.214        2.965        0.790      208.131       41.466        0.040      344.759       21.805      863.197
08/21/2013  23:12:00      -73.646       48.517      -10.319       46.969       42.912       24.353     2206.110     1841.475      593.054        0.626        0.232       88.191       24.961        0.080      344.785       21.850      863.198
08/21/2013  23:13:00      -49.374      184.668      -20.652       49.934       56.764       37.893     2493.426     3222.189     1435.868        2.206        0.358      191.154       30.425        0.025      344.768       21.819      863.220
08/21/2013  23:14:00      -94.767      230.077      -31.039       69.094       92.162       38.287     4774.029     8493.891     1465.931        3.880        0.737      248.829       41.916        0.028      344.694       21.693      863.238
08/21/2013  23:15:00     -118.681      247.142      -37.449       52.372       98.641       40.026     2742.823     9730.124     1602.068        4.532        0.704      274.161       36.278        0.018      344.688       21.679      863.235
08/21/2013  23:16:00      -69.794      173.047      -19.098       63.327       65.508       38.630     4010.257     4291.324     1492.263        2.249        0.490      186.592       41.818        0.050      344.638       21.596      863.229
08/21/2013  23:17:00      -80.493      212.382      -24.783       67.051       77.884       40.446     4495.819     6065.846     1635.856        3.220        0.610      227.124       41.987        0.034      344.622       21.568      863.202
08/21/2013  23:18:00      -84.170      142.167      -17.535       62.564       83.707       45.376     3914.291     7006.790     2059.027        2.029        0.649      165.215       43.815        0.070      344.591       21.517      863.192
08/21/2013  23:19:00      -46.817       77.587       -3.553       37.016       59.204       36.686     1370.200     3505.156     1345.891        0.722        0.311       90.617       36.068        0.158      344.582       21.502      863.179
08/21/2013  23:20:00      -89.456      248.496      -36.170       58.626       89.478       40.350     3436.951     8006.360     1628.090        4.206        0.654      264.108       34.806        0.017      344.609       21.547      863.190
08/21/2013  23:21:00     -102.139      217.342      -27.272       64.176       98.707       45.110     4118.573     9743.092     2034.876        3.715        0.795      240.145       41.401        0.030      344.566       21.473      863.188
08/21/2013  23:22:00     -104.418      173.903      -23.009       74.808      111.426       53.884     5596.302    12415.754     2903.450        3.129        1.046      202.843       62.417        0.095      344.544       21.436      863.170
08/21/2013  23:23:00     -137.643      224.792      -35.482       44.609       61.898       36.610     1989.942     3831.351     1340.326        3.895        0.358      263.585       26.451        0.010      344.576       21.490      863.140
08/21/2013  23:24:00     -131.524      259.180      -42.637       99.415      102.770       35.523     9883.431    10561.742     1261.890        5.400        1.085      290.642       33.952        0.014      344.611       21.548      863.121
08/21/2013  23:25:00      -87.425      138.574      -10.548       77.213       67.607       41.334     5961.886     4570.723     1708.497        1.960        0.612      163.847       41.986        0.066      344.547       21.442      863.104
08/21/2013  23:26:00      -78.921      261.420      -35.076       73.211      124.955       40.980     5359.898    15613.877     1679.361        4.922        1.133      273.073       45.607        0.028      344.566       21.472      863.126
08/21/2013  23:27:00     -144.220      234.029      -36.395      108.028      122.540       55.884    11670.148    15015.948     3123.063        5.335        1.490      274.898       62.690        0.052      344.580       21.496      863.137
08/21/2013  23:28:00      -98.738      214.658      -19.174       79.115      137.851       61.344     6259.215    19003.034     3763.117        4.261        1.451      236.278       57.279        0.059      344.585       21.505      863.138
08/21/2013  23:29:00     -103.324      199.919      -21.730       58.383       97.302       38.613     3408.631     9467.752     1490.957        3.274        0.718      225.041       31.720        0.020      344.561       21.465      863.178
08/21/2013  23:30:00     -117.715      240.873      -28.778       95.727       93.557       52.239     9163.743     8752.888     2728.903        4.667        1.032      268.098       43.665        0.027      344.583       21.501      863.218
08/21/2013  23:31:00     -148.234      155.257      -24.107       72.966      128.326       44.917     5324.061    16467.668     2017.558        3.523        1.190      214.658       27.820        0.017      344.574       21.488      863.226
08/21/2013  23:32:00     -148.723      127.911      -26.565       63.004       80.908       42.878     3969.533     6546.050     1838.526        2.577        0.618      196.163       40.865        0.043      344.632       21.586      863.244
08/21/2013  23:33:00     -134.904      108.938      -11.081       71.020       62.451       38.408     5043.908     3900.128     1475.180        2.030        0.521      173.397       22.905        0.017      344.593       21.522      863.263
08/21/2013  23:34:00     -103.783      122.706      -25.579       47.602       64.445       32.760     2265.929     4153.124     1073.197        1.699        0.375      160.710       32.486        0.041      344.579       21.498      863.295
08/21/2013  23:35:00     -150.314      175.550      -44.955       78.672       66.912       45.130     6189.265     4477.173     2036.745        3.407        0.635      231.111       45.365        0.039      344.672       21.652      863.304
08/21/2013  23:36:00     -157.196      135.218      -27.195       73.765       95.000       49.671     5441.325     9024.977     2467.232        3.033        0.847      207.351       56.303        0.074      344.683       21.674      863.297
08/21/2013  23:37:00     -135.706      124.806      -15.918       68.955       73.589       45.984     4754.830     5415.300     2114.524        2.326        0.614      184.371       37.996        0.042      344.624       21.573      863.301
08/21/2013  23:38:00     -195.719      175.030      -42.927       74.710       99.627       39.692     5581.585     9925.635     1575.425        4.393        0.854      262.567       41.457        0.025      344.650       21.615      863.297
08/21/2013  23:39:00     -125.840      218.692      -24.685       85.796       87.046       54.748     7360.916     7577.025     2997.332        4.110        0.897      252.313       51.583        0.042      344.695       21.691      863.306
08/21/2013  23:40:00     -109.075      151.198      -22.650       64.995       87.152       43.445     4224.400     7595.411     1887.480        2.449        0.685      186.435       48.910        0.069      344.686       21.679      863.335
08/21/2013  23:41:00     -151.327      136.153      -32.830       61.286       53.386       34.985     3755.927     2850.084     1223.924        2.517        0.391      203.562       28.796        0.020      344.629       21.580      863.340
08/21/2013  23:42:00     -112.660      146.922      -26.113       57.854       90.328       41.765     3347.059     8159.084     1744.347        2.410        0.663      185.144       44.844        0.059      344.606       21.543      863.350
08/21/2013  23:43:00     -123.903      144.581      -38.825       39.574       46.447       25.723     1566.066     2157.361      661.676        2.107        0.219      190.409       16.257        0.007      344.566       21.475      863.350
08/21/2013  23:44:00     -109.133      119.813      -22.801       52.810       55.227       35.408     2788.902     3050.009     1253.709        1.694        0.355      162.065       29.821        0.034      344.512       21.383      863.356
08/21/2013  23:45:00     -152.345      105.703      -22.991       62.413       69.719       37.724     3895.337     4860.706     1423.075        2.254        0.509      185.424       40.679        0.048      344.503       21.366      863.354
08/21/2013  23:46:00      -81.946       97.038      -16.549       53.390       49.976       34.165     2850.460     2497.567     1167.249        1.146        0.326      127.009       29.567        0.054      344.464       21.300      863.351
08/21/2013  23:47:00      -87.524       74.248       -7.506       49.492       38.422       32.010     2449.444     1476.213     1024.642        0.909        0.248      114.774       31.315        0.074      344.398       21.189      863.342
08/21/2013  23:48:00     -154.351      144.349      -41.490       40.119       73.616       27.813     1609.529     5419.279      773.589        2.709        0.390      211.331        6.971        0.001      344.420       21.223      863.344
08/21/2013  23:49:00     -102.006       65.452      -12.669       43.305       64.928       30.619     1875.344     4215.653      937.508        1.094        0.351      121.199       18.076        0.022      344.431       21.243      863.349
08/21/2013  23:50:00      -48.938       48.495       -3.373       62.837       36.529       35.263     3948.466     1334.354     1243.449        0.564        0.326       68.896       41.010        0.354      344.383       21.163      863.352
08/21/2013  23:51:00      -53.912       23.105        0.706       34.065       60.942       25.277     1160.439     3713.897      638.929        0.448        0.276       58.655       28.541        0.237      344.426       21.235      863.353
08/21/2013  23:52:00      -40.346       96.523       -3.543       40.336       39.077       28.347     1626.992     1526.977      803.579        0.746        0.198      104.616       23.187        0.049      344.423       21.231      863.358
08/21/2013  23:53:00      -38.285       59.374        2.378       34.033       36.400       22.540     1158.240     1324.962      508.050        0.399        0.150       70.647       25.317        0.128      344.393       21.179      863.364
08/21/2013  23:54:00       -9.866       76.238        3.636       30.190       47.272       25.537      911.462     2234.623      652.163        0.486        0.190       76.874       24.689        0.103      344.357       21.119      863.368
08/21/2013  23:55:00      -45.875       85.354        1.286       45.942       60.925       30.198     2110.640     3711.807      911.902        0.806        0.337       96.901       34.975        0.130      344.367       21.136      863.361
08/21/2013  23:56:00        0.439       69.102        3.258       38.592       43.938       32.101     1489.334     1930.527     1030.461        0.462        0.223       69.103       35.473        0.264      344.327       21.069      863.362
08/21/2013  23:57:00      -29.183      119.435       -7.541       36.034       41.661       31.195     1298.459     1735.658      973.107        0.959        0.200      122.949       28.459        0.054      344.332       21.075      863.372
08/21/2013  23:58:00        0.222       51.648       -3.779       27.788       28.221       18.407      772.168      796.431      338.815        0.229        0.095       51.649       15.795        0.094      344.325       21.064      863.390
08/21/2013  23:59:00       18.431       49.115        2.273       33.555       32.456       20.275     1125.956     1053.371      411.074        0.267        0.130       52.459       18.131        0.119      344.263       20.957      863.396
